[[{"header":{"parameterUnit":"m.s-1","parameterCategory":1,"la1":30.6,"la2":29.2853,"lo1":-89.7004,"lo2":-87.6739,"dy":0.0162,"dx":0.0183,"nx":112,"ny":82,"refTime":"2023-08-03T12:00:00:Z","depth":0,"parameterNumber":2,"parameterNumberName":"U-component_of_WINDS"},"data":[0.0,0.0,0.0,0.0,0.0,0.0,0.0,0.0,0.0,0.0,0.0,0.0,0.0,0.0,0.0,0.0,0.0,0.0,0.0,0.0,0.0,0.0,0.0,0.0,0.0,0.0,0.0,0.0,0.0,0.0,0.0,0.0,0.0,0.0,0.0,0.0,0.0,0.0,0.0,0.0,0.0,0.0,0.0,0.0,0.0,0.0,0.0,0.0,0.0,0.0,0.0,0.0,0.0,0.0,0.0,0.0,0.0,0.0,0.0,0.0,0.0,0.0,0.0,0.0,0.0,0.0,0.0,0.0,0.0,0.0,0.0,0.0,0.0,0.0,0.0,0.0,0.0,0.0,0.0,0.0,0.0,0.0,0.0,0.0,0.0,0.0,0.0,0.0,0.0,0.0,-0.0,-0.0,-0.0,0.1659,0.5833,0.567,0.5292,0.5064,0.0,0.0,0.0,0.0,0.0,0.0,0.0,0.0,0.0,0.0,0.0,0.0,0.0,0.0,0.0,0.0,0.0,0.0,0.0,0.0,0.0,0.0,0.0,0.0,0.0,0.0,0.0,0.0,0.0,0.0,0.0,0.0,0.0,0.0,0.0,0.0,0.0,0.0,0.0,0.0,0.0,0.0,0.0,0.0,0.0,0.0,0.0,0.0,0.0,0.0,0.0,0.0,0.0,0.0,0.0,0.0,0.0,0.0,0.0,0.0,0.0,0.0,0.0,0.0,0.0,0.0,0.0,0.0,0.0,0.0,0.0,0.0,0.0,0.0,0.0,0.0,0.0,0.0,0.0,0.0,0.0,0.0,0.0,0.0,0.0,0.0,0.0,0.0,0.0,0.0,0.0,0.0,0.0,0.0,0.0,0.0,0.0,0.0,0.0,0.0,0.0,0.0,0.0,0.0,-0.0,-0.0,-0.0,0.1514,0.5234,0.5458,0.5235,0.4852,0.0,0.0,0.0,0.0,0.0,0.0,0.0,0.0,0.0,0.0,0.0,0.0,0.0,0.0,0.0,0.0,0.0,0.0,0.0,0.0,0.0,0.0,0.0,0.0,0.0,0.0,0.0,0.0,0.0,0.0,0.0,0.0,0.0,0.0,0.0,0.0,0.0,0.0,0.0,0.0,0.0,0.0,0.0,0.0,0.0,0.0,0.0,0.0,0.0,0.0,0.0,0.0,0.0,0.0,0.0,0.0,0.0,0.0,0.0,0.0,0.0,0.0,0.0,0.0,0.0,0.0,0.0,0.0,0.0,0.0,0.0,0.0,0.0,0.0,0.0,0.0,0.0,0.0,0.0,0.0,0.0,0.0,0.0,0.0,0.0,0.0,0.0,0.0,0.0,0.0,0.0,0.0,0.0,0.0,0.0,0.0,0.0,0.0,0.0,0.0,0.0,0.0,0.0,0.1435,0.2554,0.2901,0.2017,0.2583,0.5325,0.5342,0.5223,0.5143,0.4911,0.0,0.0,0.0,0.0,0.0,0.0,0.0,0.0,0.0,0.0,0.0,0.0,0.0,0.0,0.0,0.0,0.0,0.0,0.0,0.0,0.0,0.0,0.0,0.0,0.0,0.0,0.0,0.0,0.0,0.0,0.0,0.0,0.0,0.0,0.0,0.0,0.0,0.0,0.0,0.0,0.0,0.0,0.0,0.0,0.0,0.0,0.0,0.0,0.0,0.0,0.0,0.0,0.0,0.0,0.0,0.0,0.0,0.0,0.0,0.0,0.0,0.0,0.0,0.0,0.0,0.0,0.0,0.0,0.0,0.0,0.0,0.0,0.0,0.0,0.0,0.0,0.0,0.0,0.0,0.0,0.0,0.0,0.0,0.0,0.0,0.0,0.0,0.0,0.0,0.0,0.0,0.0,0.0,0.0,0.0,0.0,0.0,0.0,0.0,0.0,0.0,0.0,0.2843,0.4681,0.5218,0.4148,0.3971,0.5473,0.5276,0.5183,0.5308,0.4952,0.0,0.0,0.0,0.0,0.0,0.0,0.0,0.0,0.0,0.0,0.0,0.0,0.0,0.0,0.0,0.0,0.0,0.0,0.0,0.0,0.0,0.0,0.0,0.0,0.0,0.0,0.0,0.0,0.0,0.0,0.0,0.0,0.0,0.0,0.0,0.0,0.0,0.0,0.0,0.0,0.0,0.0,0.0,0.0,0.0,0.0,0.0,0.0,0.0,0.0,0.0,0.0,0.0,0.0,0.0,0.0,0.0,0.0,0.0,0.0,0.0,0.0,0.0,0.0,0.0,0.0,0.0,0.0,0.0,0.0,0.0,0.0,0.0,0.0,0.0,0.0,0.0,0.0,0.0,0.0,0.0,0.0,0.0,0.0,0.0,0.0,0.0,0.0,0.0,0.0,0.0,0.0,0.0,0.0,0.0,0.0,0.0,0.0,0.0,0.0,0.0,0.0,0.3488,0.4627,0.488,0.5104,0.5254,0.5382,0.5254,0.5095,0.5148,0.4992,0.0,0.0,0.0,0.0,0.0,0.0,0.0,0.0,0.0,0.0,0.0,0.0,0.0,0.0,0.0,0.0,0.0,0.0,0.0,0.0,0.0,0.0,0.0,0.0,0.0,0.0,0.0,0.0,0.0,0.0,0.0,0.0,0.0,0.0,0.0,0.0,0.0,0.0,0.0,0.0,0.0,0.0,0.0,0.0,0.0,0.0,0.0,0.0,0.0,0.0,0.0,0.0,0.0,0.0,0.0,0.0,0.0,0.0,0.0,0.0,0.0,0.0,0.0,0.0,0.0,0.0,0.0,0.0,0.0,0.0,0.0,0.0,0.0,0.0,0.0,0.0,0.0,0.0,0.0,0.0,0.0,0.0,0.0,0.0,0.0,0.0,0.0,0.0,0.0,0.0,0.0,0.0,0.0,0.0,0.0,0.0,0.0,0.0,0.0,0.0,0.0,0.0,0.3537,0.4562,0.0,0.4906,0.4999,0.5081,0.4952,0.4938,0.5121,0.0,0.0,0.0,0.0,0.0,0.0,0.0,0.0,0.0,0.0,0.0,0.0,0.0,0.0,0.0,0.0,0.0,0.0,0.0,0.0,0.0,0.0,0.0,0.0,0.0,0.0,0.0,0.0,0.0,0.0,0.0,0.0,0.0,0.0,0.0,0.0,0.0,0.0,0.0,0.0,0.0,0.0,0.0,0.0,0.0,0.0,0.0,0.0,0.0,0.0,0.0,0.0,0.0,0.0,0.0,0.0,0.0,0.0,0.0,0.0,0.0,0.0,0.0,0.0,0.0,0.0,0.0,0.0,0.0,0.0,0.0,0.0,0.0,0.0,0.0,0.0,0.0,0.0,0.0,0.0,0.0,0.0,0.0,0.0,0.0,0.0,0.0,0.0,0.0,0.0,0.0,0.0,0.0,0.0,0.0,0.0,0.0,0.0,0.0,0.0,0.0,0.0,0.3204,0.3915,0.4592,0.0,0.4755,0.4752,0.4908,0.4779,0.4816,0.5111,0.0,0.0,0.0,0.0,0.0,0.0,0.0,0.0,0.0,0.0,0.0,0.0,0.0,0.0,0.0,0.0,0.0,0.0,0.0,0.0,0.0,0.0,0.0,0.0,0.0,0.0,0.0,0.0,0.0,0.0,0.0,0.0,0.0,0.0,0.0,0.0,0.0,0.0,0.0,0.0,0.0,0.0,0.0,0.0,0.0,0.0,0.0,0.0,0.0,0.0,0.0,0.0,0.0,0.0,0.0,0.0,0.0,0.0,0.0,0.0,0.0,0.0,0.0,0.0,0.0,0.0,0.0,0.0,0.0,0.0,0.0,0.0,0.0,0.0,0.0,0.0,0.0,0.0,0.0,0.0,0.0,0.0,0.0,0.0,0.0,0.0,0.0,0.0,0.0,0.0,0.0,0.0,0.0,0.0,0.0,0.0,0.0,0.0,0.0,0.0,0.0,0.0,0.4921,0.4663,0.4531,0.4674,0.4687,0.4748,0.4901,0.4775,0.4813,0.0,0.0,0.0,0.0,0.0,0.0,0.0,0.0,0.0,0.0,0.0,0.0,0.0,0.0,0.0,0.0,0.0,0.0,0.0,0.0,0.0,0.0,0.0,0.0,0.0,0.0,0.0,0.0,0.0,0.0,0.0,0.0,0.0,0.0,0.0,0.0,0.0,0.0,0.0,0.0,0.0,0.0,0.0,0.0,0.0,0.0,0.0,0.0,0.0,0.0,0.0,0.0,0.0,0.0,0.0,0.0,0.0,0.0,0.0,0.0,0.0,0.0,0.0,0.0,0.0,0.0,0.0,0.0,0.0,0.0,0.0,0.0,0.0,0.0,0.0,0.0,0.0,0.0,0.0,0.0,0.0,0.0,0.0,0.0,0.0,0.0,0.0,0.0,0.0,0.0,0.0,0.0,0.0,0.0,0.0,0.0,0.0,0.0,0.0,0.0,0.0,0.0,0.0,0.4921,0.4657,0.4539,0.458,0.4584,0.4548,0.4592,0.4555,0.466,0.4962,0.0,0.0,0.0,0.0,0.0,0.0,0.0,0.0,0.0,0.0,0.0,0.0,0.0,0.0,0.0,0.0,0.0,0.0,0.0,0.0,0.0,0.0,0.0,0.0,0.0,0.0,0.0,0.0,0.0,0.0,0.0,0.0,0.0,0.0,0.0,0.0,0.0,0.0,0.0,0.0,0.0,0.0,0.0,0.0,0.0,0.0,0.0,0.0,0.0,0.0,0.0,0.0,0.0,0.0,0.0,0.0,0.0,0.0,0.0,0.0,0.0,0.0,0.0,0.0,0.0,0.0,0.0,0.0,0.0,0.0,0.0,0.0,0.0,0.0,0.0,0.0,0.0,0.0,0.0,0.0,0.0,0.0,0.0,0.0,0.0,0.0,0.0,0.0,0.0,0.0,0.0,0.0,0.0,0.0,0.0,0.0,0.0,0.0,0.0,0.0,0.0,0.0,0.4918,0.4653,0.4519,0.4519,0.4519,0.4519,0.4519,0.4519,0.4568,0.4813,0.0,0.0,0.0,0.0,0.0,0.0,0.0,0.0,0.0,0.0,0.0,0.0,0.0,0.0,0.0,0.0,0.0,0.0,0.0,0.0,0.0,0.0,0.0,0.0,0.0,0.0,0.0,0.0,0.0,0.0,0.0,0.0,0.0,0.0,0.0,0.0,0.0,0.0,0.0,0.0,0.0,0.0,0.0,0.0,0.0,0.0,0.0,0.0,0.0,0.0,0.0,0.0,0.0,0.0,0.0,0.0,0.0,0.0,0.0,0.0,0.0,0.0,0.0,0.0,0.0,0.0,0.0,0.0,0.0,0.0,0.0,0.0,0.0,0.0,0.0,0.0,0.0,0.0,0.0,0.0,0.0,0.0,0.0,0.0,0.0,0.0,0.0,0.0,0.0,0.0,0.0,0.0,0.0,0.0,0.0,0.0,0.0,0.0,0.0,0.0,0.0,0.0,0.4918,0.4653,0.4519,0.4519,0.4529,0.4539,0.4539,0.4539,0.4604,0.4817,0.0,0.0,0.0,0.0,0.0,0.0,0.0,0.0,0.0,0.0,0.0,0.0,0.0,0.0,0.0,0.0,0.0,0.0,0.0,0.0,0.0,0.0,0.0,0.0,0.0,0.0,0.0,0.0,0.0,0.0,0.0,0.0,0.0,0.0,0.0,0.0,0.0,0.0,0.0,0.0,0.0,0.0,0.0,0.0,0.0,0.0,0.0,0.0,0.0,0.0,0.0,0.0,0.0,0.0,0.0,0.0,0.0,0.0,0.0,0.0,0.5267,0.0,0.0,0.0,0.0,0.0,0.0,0.0,0.0,0.0,0.0,0.0,0.0,0.0,0.0,0.0,0.0,0.0,0.0,0.0,0.0,0.0,0.0,0.0,0.0,0.0,0.0,0.0,0.0,0.0,0.0,0.0,0.0,0.0,0.0,0.0,0.0,0.0,0.0,0.0,0.0,0.0,0.4918,0.4653,0.4519,0.4519,0.4568,0.4643,0.4643,0.4643,0.4937,0.5688,0.531,0.0,0.0,0.0,0.0,0.0,0.0,0.0,0.0,0.0,0.0,0.0,0.0,0.0,0.0,0.0,0.0,0.0,0.0,0.0,0.0,0.0,0.0,0.0,0.0,0.0,0.0,0.0,0.0,0.0,0.0,0.0,0.0,0.0,0.0,0.0,0.0,0.0,0.0,0.0,0.0,0.0,0.0,0.0,0.0,0.0,0.0,0.0,0.0,0.0,0.0,0.0,0.0,0.0,0.0,0.0,0.0,0.0,0.0,0.0,0.0,0.5382,0.0,0.0,0.0,0.0,0.0,0.0,0.0,0.0,0.0,0.0,0.0,0.0,0.0,0.0,0.0,0.0,0.0,0.0,0.0,0.0,0.0,0.0,0.0,0.0,0.0,0.0,0.0,0.0,0.0,0.0,0.0,0.0,0.0,0.0,0.0,0.0,0.0,0.0,0.0,0.0,0.5071,0.4758,0.4572,0.4572,0.4707,0.4799,0.4799,0.5078,0.5413,0.5851,0.5482,0.0,0.0,0.0,0.0,0.0,0.0,0.0,0.0,0.0,0.0,0.0,0.0,0.0,0.0,0.0,0.0,0.0,0.0,0.0,0.0,0.0,0.0,0.0,0.0,0.0,0.0,0.0,0.0,0.0,0.0,0.0,0.0,0.0,0.0,0.0,0.0,0.0,0.0,0.0,0.0,0.0,0.0,0.0,0.0,0.0,0.0,0.0,0.0,0.0,0.0,0.0,0.0,0.0,0.7005,0.6802,0.6512,0.6512,0.6525,0.6525,0.6037,0.5691,0.5498,0.5742,0.0,0.0,0.0,0.0,0.0,0.0,0.0,0.0,0.0,0.0,0.0,0.0,0.0,0.0,0.0,0.0,0.0,0.0,0.0,0.0,0.0,0.0,0.0,0.0,1.1262,1.1657,0.0,0.0,0.0,0.0,0.0,0.0,0.0,0.0,0.0,0.0,0.0,0.0,0.5427,0.4934,0.4701,0.4728,0.4963,0.51,0.51,0.5647,0.6054,0.6169,0.6024,0.6317,0.0,0.0,0.0,0.0,0.0,0.0,0.0,0.0,0.0,0.0,0.0,0.0,0.0,0.0,0.0,0.0,0.0,0.0,0.0,0.0,0.0,0.0,0.0,0.0,0.0,0.0,0.0,0.0,0.0,0.0,0.0,0.0,0.4918,0.4918,0.0,0.0,0.0,0.0,0.0,0.0,0.0,0.0,0.0,0.0,0.0,0.0,0.0,0.6317,0.7334,0.663,0.6433,0.6541,0.6541,0.6645,0.6671,0.6671,0.6742,0.6865,0.6787,0.0,0.5945,0.5983,0.0,0.0,0.0,0.0,0.0,0.0,0.0,0.0,0.0,0.0,0.0,0.0,0.0,0.0,0.0,0.0,0.0,0.0,0.0,0.0,0.0,0.0,1.1481,1.1919,1.2145,1.2231,0.0,1.1329,1.0231,0.8748,0.8399,0.0,0.0,0.0,0.0,0.0,0.0,0.0,0.6258,0.5352,0.4741,0.4874,0.5446,0.5876,0.5876,0.6401,0.7017,0.7577,0.6894,0.7017,0.8172,0.7393,0.0,0.0,0.0,0.0,0.0,0.0,0.0,0.0,0.0,0.0,0.0,0.0,0.0,0.0,0.0,0.0,0.0,0.0,0.0,0.0,0.0,0.0,0.0,0.0,0.0,0.0,0.0,0.0,0.0,0.5114,0.5135,0.5047,0.5169,0.526,0.0,0.0,0.0,0.0,0.0,0.0,0.0,0.0,0.0,0.7005,0.643,0.6352,0.6883,0.6577,0.6536,0.6848,0.6848,0.7017,0.7326,0.7326,0.7407,0.7553,0.7553,0.7309,0.6892,0.6641,0.6393,0.6249,0.0,0.0,0.0,0.0,1.0827,1.2145,1.1563,1.1883,0.0,1.187,0.0,0.0,0.0,0.0,0.0,0.0,0.0,0.0,0.0,0.0,1.2492,1.2752,1.2939,1.3053,1.3053,1.2642,1.1942,0.0,1.0136,0.9779,0.9779,0.0,0.0,0.0,0.0,0.7752,0.713,0.6664,0.641,0.6494,0.6853,0.711,0.711,0.7643,0.8103,0.8398,0.8,0.8137,0.9072,0.8072,0.8248,0.0,0.0,0.0,0.0,0.0,0.0,0.0,0.0,0.0,0.0,0.0,0.0,0.0,0.0,0.0,0.0,0.0,0.0,0.0,0.0,0.0,0.0,0.0,0.0,0.0,0.0,0.0,0.0,0.523,0.5247,0.5094,0.5281,0.5406,0.0,0.0,0.0,0.0,0.0,0.0,0.5908,0.6098,0.6254,0.6369,0.6447,0.6556,0.6702,0.6742,0.6946,0.7312,0.7312,0.7529,0.7926,0.7885,0.7974,0.815,0.8113,0.7994,0.7784,0.7258,0.6885,0.6723,0.733,0.8222,0.9252,0.9984,1.1181,1.224,1.184,1.2406,1.3278,1.2525,0.0,1.2543,1.2706,0.0,0.0,0.0,0.0,1.2993,1.3144,1.326,1.3454,1.3527,1.3714,1.3848,1.3774,1.3761,1.3487,0.0,1.1802,1.1247,1.1174,0.0,0.0,0.0,0.0,0.8919,0.8101,0.7783,0.77,0.7762,0.8059,0.8191,0.8191,0.8724,0.9011,0.9011,0.8948,0.9174,0.9786,0.8823,0.8892,1.0227,0.0,0.0,0.0,0.0,0.0,0.0,0.0,0.0,0.0,0.0,0.0,0.0,0.0,0.0,0.0,0.0,0.0,0.0,0.0,0.0,0.0,0.0,0.0,0.0,0.0,0.0,0.0,0.0,0.0,0.4948,0.5311,0.0,0.0,0.0,0.0,0.5983,0.6132,0.63,0.6237,0.6512,0.6671,0.6678,0.6949,0.717,0.7326,0.7468,0.7621,0.7777,0.7777,0.7943,0.8241,0.8096,0.8187,0.8452,0.8319,0.8326,0.8381,0.7651,0.7251,0.7092,0.6959,0.7666,0.8719,0.8466,0.8994,0.9981,1.0919,1.1267,1.1642,1.3651,1.4542,1.4763,1.4175,1.3995,0.0,0.0,1.3594,1.3661,1.3948,1.4035,1.4115,1.4389,1.4462,1.4402,1.4122,1.4062,1.3801,0.0,1.2719,1.2632,1.2271,0.0,1.1979,1.1365,1.0466,0.9718,0.928,0.8327,0.7762,0.7986,0.8452,0.8751,0.8751,0.932,0.9648,0.9648,0.9635,0.9806,1.0087,1.0046,1.0186,1.0598,0.9716,0.0,0.0,0.0,0.0,0.0,0.0,0.0,0.0,0.0,0.0,0.0,0.0,0.0,0.0,0.0,0.0,0.0,0.0,0.0,0.0,0.0,0.0,0.0,0.0,0.0,0.0,0.0,0.0,0.5616,0.5945,0.0,0.622,0.6227,0.6298,0.6451,0.6512,0.6627,0.6817,0.7021,0.7221,0.7411,0.7516,0.7645,0.7801,0.7953,0.8007,0.796,0.815,0.8252,0.8272,0.8306,0.8381,0.8479,0.8428,0.8435,0.8462,0.8197,0.7943,0.7706,0.7556,0.8107,0.9047,0.8984,0.975,1.093,1.1304,1.2097,1.314,1.4365,1.4623,1.4362,1.4148,1.4088,1.4102,1.4182,1.4208,1.4275,1.4576,1.4649,1.4629,1.4543,1.4522,1.4442,1.4148,1.4088,1.3995,1.3674,1.33,1.3013,1.2906,1.2405,1.1951,1.1744,1.125,1.0689,1.0232,0.9976,0.979,0.9658,0.9819,0.9944,0.9944,1.0177,1.0309,1.0309,1.0309,1.0294,1.0401,1.0401,1.0454,1.0618,1.0301,0.9977,0.0,0.0,0.0,0.0,0.0,0.0,0.0,0.0,0.0,0.0,0.0,0.0,0.0,0.0,0.0,0.0,0.0,0.0,0.0,0.0,0.0,0.0,0.0,0.0,0.0,0.0,0.5905,0.6149,0.6485,0.6719,0.6773,0.6729,0.6783,0.6987,0.7048,0.7207,0.7506,0.7665,0.7834,0.8031,0.8038,0.8085,0.8187,0.8292,0.8289,0.8191,0.8387,0.8459,0.8421,0.8462,0.8537,0.8632,0.8581,0.8587,0.8635,0.8635,0.8489,0.8248,0.8589,0.9143,0.9807,1.0289,1.1139,1.1925,1.1854,1.2453,1.3341,1.3776,1.3701,1.3413,1.3863,1.4039,1.4173,1.4724,1.4963,1.501,1.5204,1.5257,1.5184,1.4883,1.4816,1.4736,1.4442,1.4382,1.4382,1.4382,1.3908,1.3474,1.3373,1.2779,1.2285,1.2251,1.183,1.1436,1.1049,1.1082,1.1029,1.0735,1.0701,1.0732,1.0631,1.0648,1.0732,1.0631,1.0648,1.0661,1.0624,1.0624,1.0624,1.0624,1.0301,0.9893,0.9391,0.0,0.0,0.0,0.0,0.0,0.0,0.0,0.0,0.0,0.0,0.0,0.0,0.0,0.0,0.0,0.0,0.0,0.0,0.0,0.0,0.0,0.0,0.0,0.561,0.5996,0.6335,0.6481,0.6892,0.7109,0.6976,0.7092,0.7299,0.7597,0.775,0.7963,0.8262,0.8408,0.8482,0.8489,0.8482,0.8482,0.8489,0.8489,0.8486,0.8482,0.8492,0.857,0.8706,0.856,0.8659,0.893,0.8781,0.8801,0.894,0.894,0.8852,0.8807,1.0104,1.0647,1.085,1.2191,1.2705,1.2669,1.2445,1.2127,1.1848,1.1848,1.1945,1.2139,1.3392,1.3878,1.4166,1.5337,1.573,1.573,1.573,1.5635,1.5657,1.5372,1.5305,1.5317,1.503,1.4963,1.4963,1.495,1.4489,1.4008,1.3721,1.3427,1.312,1.2896,1.2358,0.0,1.1884,1.163,1.1343,1.1049,1.1022,1.0902,1.0672,1.0842,1.0875,1.0645,1.0822,1.0855,1.0631,1.0561,1.0561,1.0491,0.9658,0.9326,0.9432,0.0,0.0,0.0,0.0,0.0,0.0,0.0,0.0,0.0,0.0,0.0,0.0,0.0,0.0,0.0,0.0,0.0,0.0,0.0,0.0,0.0,0.0,0.6078,0.6078,0.6461,0.6841,0.7095,0.7421,0.7655,0.7726,0.7872,0.7994,0.8079,0.8218,0.8333,0.8418,0.8462,0.8533,0.8645,0.854,0.8533,0.8648,0.8648,0.8591,0.8486,0.8706,0.8777,0.8713,0.8781,0.8859,0.8937,0.8896,0.8899,0.894,0.894,0.8913,0.8859,0.913,0.9206,0.91,0.9514,0.9649,0.9623,1.0436,1.0632,1.0681,1.1556,1.1945,1.1945,1.2334,1.3102,1.3776,1.3108,1.3686,1.4172,1.3204,1.3011,1.3143,1.3743,1.3963,1.4173,1.4843,1.4963,1.4903,1.4683,1.4509,1.4376,1.4295,1.3861,1.3494,1.3407,1.308,0.0,1.2245,1.2111,1.1951,1.1663,1.163,1.151,1.1216,1.1263,1.1096,1.0658,1.0698,1.0705,1.0624,0.9983,0.9332,0.8737,0.8479,0.8401,0.0,0.0,0.0,0.0,0.0,0.0,0.0,0.0,0.0,0.0,0.0,0.0,0.0,0.0,0.0,0.0,0.0,0.0,0.0,0.0,0.0,0.0,0.6434,0.6695,0.6885,0.7027,0.7224,0.7519,0.7763,0.7967,0.8123,0.8218,0.8323,0.8445,0.853,0.8632,0.8757,0.8706,0.8771,0.8984,0.8842,0.8808,0.8896,0.8896,0.8821,0.8676,0.8916,0.895,0.8811,0.896,0.8994,0.0,0.894,0.894,0.894,0.894,0.894,0.0,0.0,0.0,0.0,0.0,0.9991,0.9362,1.0062,0.9829,0.9316,0.9998,1.0288,1.0386,1.0974,1.1653,1.2231,1.1945,1.2431,1.2915,1.2139,1.1945,1.2012,1.2639,1.2797,1.2947,1.3566,1.3728,1.368,1.3433,1.3308,0.0,1.3183,1.3417,1.3687,1.3808,1.3474,1.3126,1.2893,1.2645,1.2223,1.1484,1.135,1.0953,1.0182,1.0164,0.0,0.0,0.0,0.9633,0.9524,0.9102,0.0,0.0,0.0,0.7695,0.7748,0.0,0.0,0.0,0.7751,0.7459,0.0,0.0,0.0,0.0,0.0,0.0,0.0,0.0,0.0,0.0,0.0,0.0,0.0,0.0,0.0,0.0,0.7034,0.7373,0.7824,0.7662,0.7594,0.7855,0.8007,0.8143,0.8282,0.8309,0.8428,0.8689,0.8726,0.8859,0.914,0.0,0.0,0.0,0.0,0.9188,0.9205,0.9188,0.9106,0.8964,0.911,0.9103,0.8967,0.9093,0.9083,0.896,0.8947,0.894,0.894,0.894,0.894,0.9047,1.0351,1.0891,1.0992,1.2243,1.1778,1.0431,1.0389,0.0,0.0,0.8038,0.8038,0.8233,0.941,0.9899,1.0194,1.117,1.156,1.1658,1.1458,1.1458,1.1458,1.1658,1.1658,1.1755,1.1853,1.1945,1.1843,1.1813,1.1642,1.1432,1.1318,1.2348,1.3393,1.362,1.3225,1.2978,1.3192,1.2745,1.1999,1.086,0.0,0.0,0.8603,0.8639,0.8529,0.8215,0.8331,0.824,0.7912,0.8028,0.8064,0.7928,0.7276,0.6948,0.6968,0.6183,0.5827,0.5823,0.6503,0.6267,0.0,0.0,0.0,0.0,0.0,0.0,0.0,0.0,0.0,0.0,0.0,0.0,0.0,0.0,0.0,0.7322,0.757,0.7838,0.8289,0.8303,0.8289,0.8347,0.8377,0.8408,0.8438,0.8554,0.8648,0.8706,0.8825,0.8971,0.9144,0.9127,0.9252,0.9554,0.9415,0.9398,0.952,0.9398,0.9262,0.9113,0.0,0.0,0.9113,0.914,0.9137,0.9103,0.8988,0.894,0.894,0.894,0.894,0.8937,0.9265,0.9372,0.934,0.94,0.926,0.8859,0.8606,0.8285,0.8038,0.8038,0.8038,0.8038,0.8333,0.9118,0.0,0.9019,0.9509,1.0096,0.9019,0.8726,0.9019,1.0096,1.0386,1.0681,1.1653,1.1945,1.1793,1.1607,1.1532,1.1432,1.1216,1.1289,1.1303,1.1241,1.1139,1.1027,1.0888,1.0616,1.0412,1.0321,1.0048,0.9704,0.9346,0.919,0.892,0.8369,0.8414,0.805,0.7324,0.7285,0.6954,0.625,0.614,0.6078,0.6205,0.606,0.5986,0.5983,0.5971,0.5821,0.0,0.0,0.0,0.0,0.0,0.0,0.0,0.0,0.0,0.0,0.0,0.6458,0.0,0.0,0.7234,0.7838,0.8055,0.8252,0.8554,0.8662,0.8655,0.8499,0.8482,0.8513,0.8587,0.8665,0.8743,0.8818,0.8964,0.911,0.9259,0.9266,0.9405,0.9707,0.9574,0.9534,0.9608,0.9534,0.9418,0.9269,0.9422,0.9415,0.9266,0.9266,0.9225,0.9147,0.9001,0.894,0.894,0.894,0.894,0.894,0.894,0.894,0.892,0.8767,0.8662,0.8574,0.8425,0.8279,0.8153,0.8153,0.8153,0.814,0.8062,0.8489,0.9033,0.8258,0.8531,0.8825,0.8137,0.8038,0.8137,0.8825,0.9019,0.9213,0.9801,0.9998,0.987,0.9774,0.9753,0.9694,0.951,0.9405,0.9644,1.0706,1.076,1.0654,1.0544,1.0238,0.9907,0.9517,0.908,0.8598,0.8045,0.7795,0.7516,0.7158,0.707,0.6932,0.644,0.6523,0.635,0.5915,0.5993,0.603,0.603,0.603,0.5989,0.5915,0.5837,0.5762,0.0,0.0,0.0,0.0,0.0,0.0,0.0,0.0,0.6458,0.6685,0.6831,0.7034,0.7428,0.7546,0.7767,0.8313,0.852,0.8665,0.8821,0.8923,0.8889,0.8642,0.8611,0.8648,0.8747,0.8808,0.8879,0.8974,0.9117,0.9262,0.9418,0.9425,0.9547,0.9812,0.971,0.9649,0.9649,0.9649,0.9574,0.9425,0.9578,0.9571,0.9425,0.9395,0.9313,0.9188,0.9015,0.894,0.894,0.894,0.894,0.894,0.894,0.894,0.8933,0.8906,0.8815,0.8706,0.8676,0.8509,0.8306,0.8279,0.8272,0.8241,0.8085,0.8126,0.8201,0.8075,0.8038,0.8038,0.8038,0.8038,0.8038,0.8038,0.8038,0.8038,0.8038,0.8038,0.8038,0.8038,0.8038,0.8001,0.7875,0.7855,0.8461,1.0204,1.0309,1.0192,1.015,0.9817,0.9248,0.8491,0.7967,0.7402,0.651,0.6213,0.602,0.5898,0.5891,0.5891,0.5891,0.601,0.6074,0.6074,0.6196,0.62,0.6074,0.6074,0.601,0.5891,0.5891,0.5857,0.4101,0.531,0.5898,0.6331,0.6317,0.6419,0.0,0.0,0.7007,0.755,0.7675,0.7743,0.7929,0.818,0.8469,0.8808,0.8984,0.913,0.9283,0.9205,0.9117,0.9083,0.9076,0.9035,0.8923,0.915,0.9256,0.9137,0.9269,0.9422,0.9578,0.9585,0.9656,0.9815,0.9805,0.9798,0.9798,0.9798,0.9727,0.9585,0.973,0.9724,0.9581,0.9442,0.9371,0.934,0.9062,0.894,0.894,0.894,0.894,0.894,0.894,0.894,0.8923,0.8784,0.8723,0.8693,0.8554,0.8486,0.8438,0.8313,0.8272,0.8241,0.8085,0.8052,0.8062,0.8045,0.8038,0.8038,0.8038,0.8038,0.8038,0.8038,0.8038,0.8038,0.8038,0.8038,0.8038,0.8038,0.8038,0.8035,0.8018,0.8014,0.8014,0.8012,0.7955,0.7891,0.784,0.7574,0.7376,0.7288,0.6895,0.6579,0.6373,0.6254,0.6227,0.621,0.621,0.621,0.621,0.6227,0.6234,0.6234,0.6251,0.6251,0.6234,0.6234,0.6227,0.621,0.621,0.6064,0.1695,0.3002,0.0,0.0,0.5707,0.6949,0.755,0.7701,0.7845,0.8269,0.8404,0.8513,0.8659,0.8788,0.8944,0.0,0.9245,0.9306,0.9371,0.9249,0.9123,0.9039,0.9028,0.9005,0.8944,0.9127,0.9222,0.9157,0.9378,0.9544,0.9605,0.9686,0.9758,0.9819,0.9822,0.9822,0.9822,0.9822,0.9791,0.9734,0.9791,0.9788,0.9727,0.9581,0.9415,0.9239,0.9028,0.894,0.894,0.894,0.894,0.894,0.894,0.894,0.893,0.8866,0.8845,0.8832,0.8771,0.8689,0.8604,0.8543,0.8526,0.8496,0.8343,0.836,0.8411,0.8323,0.8238,0.8174,0.8174,0.8106,0.8038,0.8038,0.8038,0.8038,0.8038,0.8038,0.8038,0.8038,0.8038,0.8038,0.8038,0.8038,0.7997,0.7875,0.778,0.7699,0.7634,0.7421,0.7207,0.7037,0.677,0.6546,0.6396,0.6308,0.6338,0.6338,0.6338,0.6338,0.6338,0.6338,0.6338,0.6338,0.6338,0.6338,0.6338,0.6338,0.6338,0.6338,0.6338,0.6193,-0.0,0.0,0.0,0.2236,0.373,0.5397,0.6388,0.7586,0.8629,0.8876,0.8988,0.9093,0.9198,0.9252,0.9313,0.9425,0.9476,0.9503,0.9503,0.93,0.9113,0.9011,0.8889,0.8811,0.8811,0.9018,0.9154,0.9154,0.9435,0.9608,0.9608,0.9744,0.9822,0.9822,0.9822,0.9822,0.9822,0.9822,0.9822,0.9822,0.9822,0.9822,0.9815,0.9676,0.9466,0.9208,0.9062,0.8998,0.8994,0.8954,0.894,0.894,0.894,0.894,0.894,0.894,0.894,0.894,0.894,0.8866,0.8767,0.8723,0.871,0.8682,0.8526,0.856,0.8625,0.8513,0.8408,0.8319,0.8282,0.8187,0.8092,0.8052,0.8038,0.8038,0.8038,0.8038,0.8038,0.8038,0.8038,0.8038,0.8038,0.8038,0.8038,0.8038,0.7943,0.7858,0.7818,0.7553,0.7272,0.7014,0.6854,0.6685,0.6488,0.638,0.6302,0.6342,0.6338,0.6338,0.6338,0.6338,0.6338,0.6338,0.6338,0.6338,0.6338,0.6338,0.6338,0.6338,0.6338,0.6338,0.0,0.0,0.0086,0.0093,0.0198,0.0837,0.319,0.6547,0.9211,0.948,0.9381,0.9367,0.9374,0.9496,0.9598,0.9602,0.972,0.9808,0.9808,0.9429,0.915,0.9147,0.876,0.8496,0.0,0.8896,0.9154,0.9154,0.9435,0.9608,0.9608,0.9744,0.9822,0.9822,0.9822,0.9822,0.9822,0.9822,0.9822,0.9822,0.9822,0.9822,0.9815,0.9676,0.9523,0.9364,0.9211,0.9147,0.9133,0.8994,0.894,0.894,0.894,0.894,0.894,0.894,0.894,0.894,0.894,0.8933,0.8906,0.8757,0.871,0.8682,0.8526,0.8486,0.8486,0.8482,0.8479,0.8442,0.8306,0.8269,0.8225,0.8075,0.8038,0.8038,0.8038,0.8038,0.8038,0.8038,0.8038,0.8038,0.8038,0.8038,0.8038,0.8038,0.8035,0.798,0.7831,0.7553,0.7312,0.7149,0.7007,0.68,0.6498,0.6468,0.6407,0.6271,0.6338,0.6338,0.6338,0.6338,0.6338,0.6338,0.6338,0.6338,0.6338,0.6338,0.6338,0.6338,0.6338,0.6338,0.0,0.0,-0.0,-0.0,-0.0,0.0227,0.105,0.2137,0.4317,0.875,0.9665,0.9717,0.961,0.9539,0.9412,0.9514,0.9497,0.953,0.953,0.9486,0.9306,0.8906,0.8723,0.0,0.0,0.0,0.0,0.9147,0.9435,0.9649,0.9744,0.9795,0.9822,0.9822,0.9822,0.9822,0.9822,0.9822,0.9822,0.9822,0.9822,0.9822,0.9815,0.9676,0.9581,0.9523,0.9371,0.9303,0.9293,0.9144,0.9083,0.9069,0.8977,0.894,0.894,0.894,0.894,0.894,0.894,0.894,0.893,0.8879,0.8862,0.8852,0.8801,0.8784,0.8784,0.8784,0.8713,0.8621,0.8574,0.8418,0.8258,0.8204,0.8113,0.8038,0.8038,0.8038,0.8038,0.8038,0.8038,0.8038,0.8038,0.8038,0.8038,0.8038,0.8038,0.7984,0.7831,0.7641,0.7465,0.7312,0.7075,0.6888,0.6783,0.6586,0.6451,0.6403,0.6315,0.6338,0.6338,0.6338,0.6338,0.6338,0.6338,0.6338,0.6338,0.6338,0.6338,0.6338,0.6338,0.6338,-0.0,-0.0,-0.0,-0.0,-0.0,-0.0,-0.0,-0.0,0.1213,0.5467,0.7276,0.8081,0.801,0.7812,0.7954,0.8908,0.9208,0.929,0.9273,0.9293,0.9205,0.8977,0.8808,0.8672,0.0,0.0,0.0,0.9069,0.9408,0.9625,0.9663,0.9764,0.9822,0.9822,0.9822,0.9822,0.9822,0.9822,0.9822,0.9822,0.9822,0.9822,0.9819,0.9727,0.9686,0.9676,0.9527,0.9432,0.9367,0.9215,0.9123,0.9066,0.8974,0.894,0.894,0.894,0.894,0.894,0.894,0.894,0.894,0.894,0.894,0.894,0.894,0.894,0.894,0.894,0.8869,0.8777,0.8723,0.853,0.8333,0.8282,0.815,0.8038,0.8038,0.8038,0.8038,0.8038,0.8038,0.8038,0.8038,0.8038,0.8038,0.8038,0.8038,0.8004,0.7906,0.7767,0.7617,0.7468,0.7234,0.7044,0.6939,0.6749,0.6586,0.6478,0.6386,0.6315,0.6342,0.6338,0.6338,0.6338,0.6338,0.6338,0.6338,0.6338,0.6338,0.6338,0.6338,0.6338,-0.0,-0.0,-0.0,-0.0,-0.0,-0.0,-0.0,-0.0,-0.0,-0.0,0.2436,0.4699,0.0,0.0,0.5319,0.748,0.8395,0.8941,0.9188,0.8923,0.891,0.0,0.0,0.0,0.0,0.0,0.0,0.896,0.0,0.954,0.9412,0.9669,0.9822,0.9822,0.9822,0.9822,0.9822,0.9822,0.9822,0.9822,0.9822,0.9822,0.9822,0.9822,0.9822,0.9815,0.968,0.9534,0.9381,0.9228,0.9079,0.895,0.8944,0.894,0.894,0.894,0.894,0.894,0.894,0.894,0.894,0.894,0.894,0.894,0.894,0.894,0.894,0.894,0.894,0.8906,0.876,0.8608,0.8459,0.8316,0.8163,0.8048,0.8041,0.8038,0.8038,0.8038,0.8038,0.8038,0.8038,0.8038,0.8038,0.8038,0.8038,0.8038,0.8038,0.7906,0.7756,0.7614,0.7461,0.7255,0.6963,0.6932,0.6803,0.6515,0.6481,0.6413,0.6355,0.6342,0.6338,0.6338,0.6338,0.6338,0.6338,0.6338,0.6338,0.6338,0.6338,0.6338,-0.0,-0.0,-0.0,-0.0,-0.0,-0.0,-0.0,-0.0,-0.0,-0.0,0.0716,0.1241,0.0,0.0,0.0,0.2022,0.5558,0.0,0.8894,0.9178,0.0,0.0,0.0,0.9167,0.9052,0.9178,0.0,0.0,0.9374,0.9517,0.97,0.9781,0.9822,0.9822,0.9822,0.9822,0.9822,0.9822,0.9822,0.9822,0.9822,0.9822,0.9822,0.9822,0.9822,0.9819,0.9781,0.9686,0.954,0.9388,0.9235,0.9086,0.8981,0.894,0.894,0.894,0.894,0.894,0.894,0.894,0.894,0.894,0.894,0.894,0.894,0.894,0.894,0.894,0.894,0.893,0.8893,0.8767,0.8615,0.8465,0.8319,0.818,0.8065,0.8038,0.8038,0.8038,0.8038,0.8038,0.8038,0.8038,0.8038,0.8038,0.8038,0.8038,0.8038,0.7906,0.7756,0.7614,0.7461,0.7292,0.7102,0.699,0.6895,0.6817,0.66,0.6458,0.642,0.6318,0.6338,0.6338,0.6338,0.6338,0.6338,0.6338,0.6338,0.6338,0.6338,0.6338,-0.0,-0.0,-0.0,-0.0,-0.0,-0.0,-0.0,-0.0,-0.0,-0.0,-0.0,0.0,0.0,0.0,0.0,0.0,0.0,0.0,0.8358,0.9188,0.9476,0.0,0.9466,0.0,0.9361,0.9486,0.9574,0.0,0.9574,0.9618,0.9724,0.9788,0.9822,0.9822,0.9822,0.9822,0.9822,0.9822,0.9822,0.9822,0.9822,0.9822,0.9822,0.9822,0.9822,0.9822,0.0,0.9741,0.9598,0.9445,0.9293,0.9137,0.8994,0.894,0.894,0.894,0.894,0.894,0.894,0.894,0.894,0.894,0.894,0.894,0.894,0.894,0.894,0.894,0.894,0.894,0.894,0.8825,0.8672,0.852,0.8374,0.8228,0.8072,0.8038,0.8038,0.8038,0.8038,0.8038,0.8038,0.8038,0.8038,0.8038,0.8038,0.8038,0.8038,0.7963,0.7831,0.7624,0.7522,0.738,0.716,0.7068,0.6966,0.6837,0.6668,0.6515,0.6383,0.6302,0.6338,0.6338,0.6338,0.6291,0.6356,0.6291,0.6291,0.6352,0.6288,0.6338,-0.0,-0.0,-0.0,-0.0,-0.0,-0.0,-0.0,-0.0,-0.0,-0.0,0.0,-0.0,-0.0,0.0,-0.0,-0.0,0.0,0.177,0.6808,0.8455,0.9432,0.9737,0.9703,0.9639,0.9639,0.9747,0.9822,0.9822,0.9839,0.9798,0.9676,0.9764,0.9822,0.9822,0.9822,0.9822,0.9822,0.9822,0.9822,0.9822,0.9822,0.9822,0.9822,0.9822,0.9822,0.9822,0.9822,0.0,0.9598,0.9466,0.931,0.914,0.9015,0.8954,0.894,0.894,0.894,0.894,0.894,0.894,0.894,0.894,0.894,0.894,0.894,0.894,0.894,0.894,0.894,0.894,0.894,0.8842,0.8696,0.8523,0.8387,0.8252,0.8075,0.8038,0.8038,0.8038,0.8038,0.8038,0.8038,0.8038,0.8038,0.8038,0.8038,0.8038,0.8038,0.8021,0.7902,0.7631,0.7584,0.7455,0.7166,0.7139,0.7031,0.6773,0.6722,0.6586,0.6329,0.6281,0.6338,0.6338,0.6278,0.6349,0.6471,0.6369,0.6373,0.6468,0.6346,0.6278,-0.0,-0.0,-0.0,-0.0,-0.0,-0.0,-0.0,-0.0,0.0,0.0,0.0,-0.0,-0.0,-0.0,0.0,-0.0,0.0,0.0,0.0,0.0,0.9519,0.0,0.0,0.0,0.0,0.0,0.0,0.0,0.0,0.9998,0.9975,0.9876,0.9822,0.9822,0.9822,0.9822,0.9822,0.9822,0.9822,0.9822,0.9822,0.9822,0.9822,0.9822,0.9822,0.9822,0.9822,0.0,0.9608,0.9581,0.9405,0.915,0.9127,0.9045,0.894,0.894,0.894,0.894,0.894,0.894,0.894,0.894,0.894,0.894,0.894,0.894,0.894,0.894,0.894,0.894,0.894,0.892,0.8828,0.855,0.8462,0.837,0.8099,0.8038,0.8038,0.8038,0.8038,0.8038,0.8038,0.8038,0.8038,0.8038,0.8038,0.8038,0.8038,0.7929,0.7787,0.7617,0.7489,0.7336,0.7156,0.7139,0.7119,0.7065,0.6837,0.6678,0.6627,0.639,0.6338,0.6338,0.6376,0.6447,0.6471,0.6573,0.6573,0.6471,0.6447,0.6373,-0.0,-0.0,-0.0,-0.0,-0.0,-0.0,-0.0,0.0,0.0,0.0,0.0,-0.0,-0.0,0.0,0.0,0.0,0.0,0.0,0.0,0.0,0.0,0.0,0.0,0.0,0.0,0.0,0.0,0.0,0.0,1.0015,0.9934,0.9863,0.9822,0.9822,0.9822,0.9822,0.9822,0.9822,0.9822,0.9822,0.9822,0.9822,0.9822,0.9822,0.9822,0.9819,0.9744,0.0,0.9598,0.9439,0.9286,0.9147,0.9069,0.8998,0.8947,0.9022,0.9001,0.895,0.9025,0.9001,0.894,0.894,0.894,0.894,0.894,0.894,0.894,0.894,0.894,0.894,0.894,0.894,0.8879,0.8655,0.8482,0.8309,0.8085,0.8038,0.8038,0.8038,0.8038,0.8038,0.8038,0.8038,0.8038,0.8038,0.8038,0.8038,0.8038,0.7906,0.7756,0.7614,0.7536,0.7394,0.716,0.7139,0.7109,0.7034,0.6824,0.6664,0.6583,0.6376,0.6295,0.6369,0.6437,0.6552,0.6709,0.6624,0.6624,0.6705,0.6471,0.6366,-0.0,-0.0,-0.0,-0.0,-0.0,-0.0,-0.0,-0.0,0.0,0.0,-0.0,-0.0,-0.0,0.0,0.0,0.0,0.0,0.0,0.0,0.0,0.0,0.0,0.0,0.0,0.0,0.0,0.0,0.0,0.0,0.0,0.9829,0.9822,0.9822,0.9822,0.9822,0.9822,0.9822,0.9822,0.9822,0.9822,0.9822,0.9822,0.9822,0.9822,0.9805,0.9771,0.9656,0.0,0.0,0.93,0.9184,0.9144,0.9028,0.8964,0.8954,0.9066,0.9035,0.896,0.9103,0.9059,0.8944,0.8974,0.8964,0.894,0.894,0.894,0.894,0.894,0.894,0.894,0.894,0.894,0.8899,0.8747,0.8486,0.8238,0.8116,0.8062,0.8038,0.8038,0.8038,0.8038,0.8038,0.8038,0.8038,0.8038,0.8038,0.8038,0.8038,0.7933,0.7804,0.7658,0.7617,0.7489,0.7214,0.719,0.7129,0.6983,0.6831,0.6695,0.6576,0.643,0.6407,0.6519,0.6552,0.6671,0.6878,0.6671,0.6661,0.682,0.6471,0.6366,-0.0,-0.0,-0.0,-0.0,-0.0,-0.0,-0.0,0.0,0.0,-0.0,-0.0,-0.0,-0.0,-0.0,0.0,0.0,0.0,0.0,0.0,0.0,0.0,0.0,0.0,0.0,0.0,0.0,0.0,0.0,0.0,0.0,0.9822,0.9822,0.9822,0.9822,0.9822,0.9822,0.9822,0.9822,0.9822,0.9822,0.9822,0.9822,0.9822,0.9822,0.9751,0.9629,0.9615,0.0,0.0,0.9371,0.9276,0.915,0.9137,0.9052,0.894,0.8954,0.895,0.896,0.9103,0.9059,0.896,0.9089,0.9045,0.894,0.894,0.894,0.894,0.894,0.894,0.894,0.894,0.894,0.8899,0.8747,0.8486,0.8269,0.8252,0.814,0.8038,0.8038,0.8038,0.8038,0.8038,0.8038,0.8038,0.8038,0.8038,0.8038,0.8038,0.8028,0.796,0.7807,0.7678,0.7533,0.7363,0.735,0.7285,0.7129,0.6987,0.6902,0.6888,0.6742,0.6664,0.6678,0.6817,0.6831,0.6722,0.6831,0.6759,0.6512,0.6471,0.6461,-0.0,-0.0,-0.0,-0.0,-0.0,-0.0,-0.0,0.0,0.0,-0.0,-0.0,-0.0,-0.0,-0.0,0.0829,0.0,0.0,0.0,0.0,0.0,0.0,0.0,0.0,0.0,0.0,0.0,0.0,0.0,0.0,0.0,0.9822,0.9822,0.9822,0.9822,0.9822,0.9822,0.9822,0.9822,0.9822,0.9822,0.9822,0.9822,0.9822,0.9822,0.9791,0.9727,0.9551,0.0,0.0,0.9228,0.913,0.9144,0.9059,0.8988,0.895,0.9035,0.9015,0.896,0.9103,0.9059,0.8947,0.9005,0.8984,0.8954,0.9042,0.9008,0.8957,0.9045,0.9005,0.894,0.894,0.8869,0.8764,0.8608,0.8482,0.835,0.817,0.8157,0.815,0.8058,0.8038,0.8038,0.8038,0.8038,0.8038,0.8038,0.8038,0.8038,0.8038,0.8038,0.8018,0.7957,0.7818,0.7631,0.7394,0.737,0.7305,0.7149,0.7007,0.6929,0.6929,0.678,0.6746,0.6834,0.6898,0.6898,0.6837,0.6807,0.6729,0.6607,0.6427,0.6441,-0.0,-0.0,-0.0,-0.0,-0.0,-0.0,0.0,0.0,0.0,-0.0,-0.0,-0.0,-0.0,-0.0,0.1355,0.539,0.0,0.0,0.0,0.0,0.0,0.0,0.0,0.0,0.0,0.0,0.0,0.0,0.0,0.0,0.9822,0.9822,0.9822,0.9822,0.9822,0.9822,0.9822,0.9822,0.9822,0.9822,0.9822,0.9822,0.9819,0.9778,0.9758,0.9744,0.949,0.0,0.0,0.915,0.9062,0.9137,0.8994,0.894,0.895,0.9052,0.9025,0.896,0.9103,0.9059,0.8947,0.8988,0.8974,0.8964,0.911,0.9052,0.896,0.9062,0.9018,0.894,0.894,0.8859,0.875,0.8642,0.855,0.8425,0.8214,0.8187,0.817,0.8062,0.8038,0.8038,0.8038,0.8038,0.8038,0.8038,0.8038,0.8038,0.8038,0.8038,0.8038,0.8038,0.7943,0.7777,0.7522,0.7502,0.7417,0.7221,0.7115,0.7037,0.6993,0.6888,0.6881,0.699,0.699,0.6949,0.6861,0.6753,0.6658,0.6566,0.6359,0.6393,-0.0,-0.0,-0.0,-0.0,-0.0,-0.0,0.0,0.0,-0.0,-0.0,-0.0,-0.0,-0.0,-0.0,0.1184,0.4815,0.5633,0.0,0.0,0.0,0.0,0.0,0.0,0.0,0.0,0.0,0.0,0.0,0.0,0.0,0.9822,0.9822,0.9822,0.9822,0.9822,0.9822,0.9822,0.9822,0.9822,0.9822,0.9822,0.9822,0.9815,0.9676,0.9612,0.0,0.0,0.0,0.0,0.9215,0.915,0.9137,0.8994,0.894,0.894,0.894,0.894,0.896,0.9103,0.9059,0.896,0.9103,0.9055,0.8964,0.911,0.9052,0.894,0.894,0.894,0.894,0.894,0.8937,0.8937,0.8933,0.8703,0.8482,0.8479,0.8248,0.8041,0.8038,0.8038,0.8038,0.8038,0.8038,0.8038,0.8038,0.8038,0.8038,0.8038,0.8038,0.8038,0.8038,0.8038,0.7974,0.7821,0.7807,0.7682,0.7387,0.7366,0.7299,0.7143,0.7136,0.7136,0.7139,0.7139,0.6993,0.6702,0.6702,0.6552,0.6268,0.6264,0.6339,-0.0,-0.0,-0.0,-0.0,-0.0,0.0663,0.3092,0.0,-0.0,-0.0,-0.0,-0.0,-0.0,-0.0,0.0854,0.3399,0.4918,0.0,0.0,0.0,0.0,0.0,0.0,0.0,0.0,0.0,0.0,0.0,0.0,0.0,0.9822,0.9822,0.9822,0.9822,0.9822,0.9822,0.9822,0.9822,0.9822,0.9819,0.9724,0.9676,0.9673,0.952,0.9452,0.0,0.0,0.0,0.0,0.911,0.9062,0.9137,0.8994,0.894,0.895,0.9049,0.9086,0.9106,0.9256,0.9279,0.9232,0.9171,0.9123,0.9076,0.9022,0.8974,0.894,0.894,0.894,0.894,0.894,0.8862,0.8781,0.8781,0.8628,0.8455,0.836,0.8262,0.8167,0.8062,0.8038,0.8038,0.8038,0.8038,0.8038,0.8038,0.8038,0.8038,0.8038,0.8038,0.8038,0.8038,0.8038,0.7977,0.7824,0.7811,0.7685,0.739,0.737,0.7302,0.7146,0.7139,0.7139,0.7139,0.7044,0.6949,0.6858,0.6647,0.6447,0.6268,0.6468,0.6586,0.0,-0.0,-0.0,-0.0,-0.0,0.0,0.0,0.0,0.151,0.0952,0.0818,0.0811,0.0821,0.0919,0.1672,0.3563,0.4908,0.0,0.0,0.0,0.0,0.0,0.0,0.0,0.0,0.0,0.0,0.0,0.0,0.0,0.9741,0.9686,0.9683,0.9741,0.9791,0.9795,0.9741,0.9741,0.971,0.9652,0.9564,0.9523,0.9517,0.9364,0.9327,0.0,0.0,0.0,0.0,0.912,0.9072,0.9137,0.8994,0.894,0.895,0.9039,0.9072,0.9205,0.992,0.971,0.9319,0.9836,0.9673,0.9055,0.8964,0.894,0.894,0.894,0.8896,0.8866,0.8923,0.8781,0.8638,0.8696,0.8554,0.8377,0.8289,0.8225,0.8153,0.8058,0.8038,0.8038,0.8038,0.8038,0.8038,0.8038,0.8038,0.8038,0.8038,0.8038,0.8038,0.8038,0.8038,0.8001,0.7906,0.7896,0.7794,0.7553,0.7489,0.7387,0.7234,0.717,0.7139,0.7139,0.7054,0.6983,0.6929,0.662,0.6427,0.6346,0.6586,0.6702,0.0,0.0,0.0,0.0,0.0,0.0,0.0,0.0,0.0,0.2651,0.2347,0.2368,0.2388,0.2649,0.3356,0.488,0.0,0.0,0.0,0.0,0.0,0.0,0.0,0.0,0.0,0.0,0.0,0.0,0.0,0.0,0.9595,0.9459,0.9445,0.9588,0.972,0.973,0.9612,0.9598,0.952,0.9381,0.9371,0.9364,0.9361,0.9208,0.9215,0.0,0.0,0.0,0.0,0.9198,0.9137,0.9123,0.8991,0.894,0.894,0.895,0.8954,0.9193,1.0783,1.0297,0.921,1.0775,1.027,0.894,0.894,0.894,0.894,0.894,0.8835,0.876,0.8903,0.8726,0.855,0.8693,0.8509,0.8303,0.8303,0.818,0.8069,0.8058,0.8055,0.8052,0.8041,0.8038,0.8038,0.8038,0.8038,0.8038,0.8038,0.8038,0.8038,0.8038,0.8038,0.8038,0.8038,0.8038,0.7974,0.7821,0.7689,0.7543,0.738,0.7234,0.7149,0.7139,0.7139,0.7065,0.6912,0.6637,0.6498,0.6491,0.6647,0.6715,0.3553,0.0,0.1711,0.1711,0.0,0.0,0.0,0.0,0.0,0.0,0.0,0.0,0.0,0.0,0.0,0.0,0.0,0.0,0.0,0.0,0.0,0.0,0.0,0.0,0.0,0.0,0.0,0.0,0.0,0.9435,0.9435,0.9401,0.9398,0.9435,0.9466,0.9527,0.9608,0.9493,0.9415,0.9381,0.9262,0.9208,0.9201,0.9055,0.9008,0.0,0.0,0.0,0.9039,0.9005,0.8988,0.8984,0.895,0.894,0.895,0.9062,0.9103,0.9236,0.9728,0.9645,0.9377,0.9628,0.9388,0.894,0.894,0.894,0.894,0.894,0.8913,0.8893,0.893,0.8886,0.8842,0.8876,0.8743,0.8608,0.8608,0.8486,0.8347,0.8238,0.8214,0.8177,0.8058,0.8038,0.8038,0.8038,0.8038,0.8038,0.8038,0.8038,0.8038,0.8038,0.8038,0.8038,0.8038,0.8038,0.7974,0.7821,0.778,0.7645,0.7383,0.7336,0.7261,0.7143,0.7139,0.7014,0.6756,0.68,0.6763,0.6651,0.6803,0.6875,0.448,0.3916,0.3244,0.3244,0.3244,0.3485,0.0,0.0,0.0,0.0,0.0,0.0,0.0,0.0,0.0,0.0,0.0,0.0,0.0,0.0,0.0,0.0,0.0,0.0,0.0,0.0,0.0,0.0,0.0,0.9276,0.9276,0.9215,0.9208,0.9273,0.9215,0.9249,0.9398,0.9317,0.9242,0.9178,0.9093,0.9055,0.9052,0.8974,0.894,0.0,0.0,0.0,0.894,0.894,0.894,0.894,0.894,0.894,0.8947,0.9025,0.9055,0.9185,1.0012,1.0406,1.0266,0.9325,0.9001,0.894,0.894,0.8889,0.8849,0.892,0.8889,0.8832,0.8832,0.8781,0.873,0.873,0.8665,0.8604,0.8604,0.8489,0.8381,0.837,0.8258,0.816,0.8147,0.8085,0.8038,0.8038,0.8038,0.8038,0.8038,0.8038,0.8038,0.8038,0.8038,0.8038,0.8038,0.7974,0.7899,0.7818,0.775,0.7611,0.738,0.7302,0.7224,0.7143,0.7139,0.7031,0.6807,0.6888,0.6888,0.6807,0.6892,0.6963,0.4519,0.4494,0.4521,0.4497,0.449,0.4487,0.0,0.0,0.0,0.0,0.0,0.0,0.0,0.0,0.0,0.0,0.0,0.0,0.0,0.0,0.0,0.0,0.0,0.0,0.0,0.0,0.0,0.0,0.0,0.9086,0.9086,0.8991,0.8984,0.9083,0.8967,0.8964,0.9083,0.911,0.9059,0.894,0.894,0.894,0.894,0.894,0.894,0.894,0.0,0.0,0.894,0.894,0.894,0.894,0.894,0.894,0.8937,0.8913,0.8903,0.903,1.0584,1.1094,1.0871,0.9414,0.8923,0.8903,0.8903,0.8798,0.8706,0.8862,0.8811,0.871,0.871,0.8632,0.8554,0.8554,0.8554,0.8554,0.8554,0.8459,0.8401,0.8499,0.8296,0.8143,0.8252,0.8143,0.8038,0.8038,0.8038,0.8038,0.8038,0.8038,0.8038,0.8038,0.8038,0.8038,0.8038,0.7919,0.7828,0.778,0.7665,0.7533,0.738,0.7221,0.7139,0.7139,0.7139,0.7082,0.6959,0.6959,0.6959,0.6959,0.6959,0.7024,0.4519,0.4558,0.4629,0.4501,0.4522,0.4522,0.0,0.0,0.0,0.0,0.0,0.0,0.0,0.0,0.0,0.0,0.0,0.0,0.0,0.0,0.0,0.0,0.0,0.0,0.0,0.0,0.0,0.0,0.0,0.8777,0.8777,0.8879,0.8889,0.8781,0.8757,0.8757,0.8777,0.8906,0.896,0.894,0.894,0.894,0.894,0.894,0.894,0.894,0.0,0.894,0.894,0.894,0.894,0.894,0.894,0.894,0.8923,0.8794,0.8747,0.8747,0.8984,0.9187,0.9296,0.8944,0.8852,0.8747,0.8747,0.8638,0.855,0.8703,0.8726,0.871,0.871,0.8791,0.8869,0.8869,0.8869,0.8869,0.8869,0.8852,0.8804,0.8696,0.8533,0.8384,0.8286,0.8143,0.8038,0.8038,0.8038,0.8038,0.8038,0.8038,0.8038,0.8038,0.8038,0.8038,0.8038,0.8018,0.7899,0.7648,0.7611,0.7533,0.738,0.7221,0.7139,0.7139,0.7139,0.7129,0.7109,0.7109,0.7109,0.7109,0.7109,0.7119,0.4519,0.457,0.4551,0.4536,0.4585,0.4687,0.4606,0.0,0.0,0.0,0.0,0.0,0.0,0.0,0.0,0.0,0.0,0.0,0.0,0.0,0.0,0.0,0.0,0.0,0.0,0.0,0.0,0.0,0.0,0.0,0.8706,0.8699,0.8659,0.8587,0.8587,0.8587,0.8587,0.8655,0.8733,0.8815,0.8899,0.8896,0.8815,0.8815,0.8815,0.8811,0.0,0.8737,0.8808,0.8726,0.8693,0.8693,0.8693,0.8693,0.8682,0.8615,0.8587,0.8587,0.8587,0.8632,0.8693,0.8693,0.8645,0.8587,0.8587,0.8482,0.8384,0.8455,0.8587,0.8693,0.8608,0.876,0.8896,0.873,0.8818,0.894,0.894,0.8872,0.8794,0.8723,0.8587,0.8435,0.8296,0.8211,0.8136,0.8052,0.8038,0.8038,0.8038,0.8038,0.8038,0.8038,0.8038,0.8038,0.8038,0.7963,0.7824,0.7614,0.7444,0.7319,0.7248,0.7177,0.7139,0.7139,0.7139,0.7139,0.7139,0.7139,0.7139,0.7139,0.7139,0.7139,0.4519,0.4543,0.4563,0.4525,0.0,0.4809,0.4796,0.0,0.0,0.0,0.0,0.0,0.0,0.0,0.0,0.0,0.0,0.0,0.0,0.0,0.0,0.0,0.0,0.0,0.0,0.0,0.0,0.0,0.0,0.0,0.8601,0.8526,0.8465,0.8431,0.8431,0.8431,0.8431,0.8431,0.8509,0.8659,0.8774,0.8771,0.8659,0.8696,0.8693,0.8652,0.857,0.8581,0.8648,0.853,0.8482,0.8482,0.8482,0.8462,0.8431,0.8431,0.8431,0.8431,0.8431,0.8455,0.8482,0.8482,0.8459,0.8431,0.8431,0.8333,0.8225,0.8258,0.8431,0.8581,0.8462,0.8659,0.8825,0.8591,0.8713,0.8886,0.8886,0.8764,0.8659,0.8659,0.8533,0.8397,0.8289,0.8241,0.8177,0.8058,0.8038,0.8038,0.8038,0.8038,0.8038,0.8038,0.8038,0.8038,0.8038,0.7899,0.7767,0.7655,0.7363,0.7177,0.7143,0.7177,0.7177,0.7139,0.7139,0.7139,0.7139,0.7139,0.7139,0.7139,0.7139,0.7139,0.4519,0.4565,0.464,0.4553,0.0,0.0,0.5006,0.0,0.0,0.0,0.0,0.0,0.0,0.0,0.0,0.0,0.0,0.0,0.0,0.0,0.0,0.0,0.0,0.0,0.0,0.0,0.0,0.0,0.0,0.0,0.8303,0.8418,0.8421,0.8289,0.8286,0.8286,0.8286,0.8286,0.8357,0.8499,0.8509,0.8509,0.8503,0.8645,0.8632,0.8506,0.8635,0.8618,0.8499,0.8486,0.8482,0.8482,0.8482,0.8401,0.8286,0.8286,0.8286,0.8286,0.8286,0.8374,0.8482,0.8482,0.8391,0.8286,0.8286,0.8177,0.8085,0.8231,0.8286,0.8299,0.8289,0.8506,0.872,0.8699,0.871,0.8726,0.8726,0.8608,0.8499,0.8499,0.8384,0.8282,0.8272,0.815,0.8052,0.8041,0.8038,0.8038,0.8038,0.8038,0.8038,0.8038,0.8038,0.8038,0.8038,0.7899,0.7807,0.7797,0.7519,0.7288,0.7146,0.7278,0.7288,0.7143,0.7139,0.7139,0.7139,0.7139,0.7139,0.7139,0.7139,0.7139,0.4519,0.456,0.4591,0.4532,0.0,0.0,0.0,0.0,0.0,0.0,0.0,0.0,0.0,0.0,0.0,0.0,0.0,0.0,0.0,0.0,0.0,0.0,0.0,0.0,0.0,0.0,0.0,0.0,0.0,0.0,0.8265,0.8228,0.8184,0.813,0.8126,0.8126,0.8126,0.8126,0.8153,0.8208,0.8394,0.8435,0.835,0.8411,0.8408,0.8347,0.8309,0.8316,0.8343,0.8248,0.8208,0.8208,0.8208,0.8174,0.8126,0.8126,0.8126,0.8126,0.8126,0.816,0.8208,0.8208,0.817,0.8126,0.8126,0.8085,0.8052,0.8109,0.8126,0.815,0.8245,0.8418,0.8547,0.8459,0.8506,0.8567,0.8567,0.8523,0.8455,0.8367,0.8377,0.8343,0.8157,0.816,0.815,0.8055,0.8038,0.8038,0.8038,0.8038,0.8038,0.8038,0.8038,0.8038,0.8038,0.7899,0.7811,0.7811,0.7624,0.7489,0.7428,0.7482,0.7441,0.7288,0.7285,0.7238,0.7139,0.7139,0.7139,0.7139,0.7139,0.7139,0.4519,0.4519,0.4519,0.0,0.0,0.0,0.0,0.0,0.0,0.0,0.0,0.0,0.0,0.0,0.0,0.0,0.0,0.0,0.0,0.0,0.0,0.0,0.0,0.0,0.0,0.0,0.0,0.0,0.0,0.0,0.0,0.8096,0.8038,0.8038,0.8038,0.8038,0.8038,0.8038,0.8038,0.8041,0.8245,0.8292,0.8201,0.8248,0.8245,0.8194,0.8136,0.8143,0.8187,0.8082,0.8038,0.8038,0.8038,0.8038,0.8038,0.8038,0.8038,0.8038,0.8038,0.8038,0.8038,0.8038,0.8045,0.8048,0.8048,0.7952,0.7955,0.7952,0.8048,0.8072,0.8174,0.8306,0.8391,0.8292,0.8343,0.8414,0.8414,0.8377,0.8313,0.8218,0.8275,0.8279,0.8075,0.8126,0.8163,0.8055,0.8038,0.8038,0.8038,0.8038,0.8038,0.8038,0.8038,0.8038,0.8038,0.7943,0.7882,0.7882,0.779,0.7695,0.7604,0.7641,0.7597,0.7448,0.7397,0.7319,0.7214,0.7163,0.7139,0.7139,0.7139,0.7139,0.4519,0.4519,0.0,0.0,0.0,0.0,0.0,0.0,0.0,0.0,0.0,0.0,0.0,0.0,0.0,0.0,0.0,0.0,0.0,0.0,0.0,0.0,0.0,0.0,0.0,0.0,0.0,0.0,0.0,0.0,0.0,0.8038,0.8038,0.8038,0.8038,0.8038,0.8038,0.8038,0.8038,0.8038,0.8038,0.8038,0.8045,0.8197,0.8184,0.8048,0.8201,0.818,0.8038,0.8038,0.8038,0.8038,0.8038,0.8038,0.8038,0.8038,0.8038,0.8038,0.8038,0.8038,0.8038,0.8038,0.7955,0.7972,0.7972,0.7982,0.7985,0.7975,0.7972,0.7969,0.8045,0.8153,0.8269,0.8269,0.8269,0.8269,0.8269,0.8147,0.8038,0.8038,0.8038,0.8038,0.8038,0.8038,0.8038,0.8038,0.8038,0.8038,0.8038,0.8038,0.8038,0.8038,0.8038,0.8038,0.8038,0.8038,0.8038,0.8038,0.8038,0.7909,0.7614,0.774,0.7746,0.7604,0.7451,0.7373,0.737,0.7217,0.7139,0.7139,0.7139,0.7139,0.5058,0.4842,0.0,0.0,0.0,0.0,0.0,0.0,0.0,0.0,0.0,0.0,0.0,0.0,0.0,0.0,0.0,0.0,0.0,0.0,0.0,0.0,0.0,0.0,0.0,0.0,0.0,0.0,0.0,0.0,0.0,0.7936,0.7929,0.8035,0.7936,0.7929,0.8038,0.8038,0.8038,0.8038,0.8038,0.8038,0.8041,0.8089,0.8082,0.8041,0.8089,0.8082,0.8038,0.8038,0.8038,0.8038,0.8038,0.8038,0.8038,0.8038,0.8038,0.8038,0.8038,0.8038,0.8041,0.7959,0.7955,0.7746,0.6534,0.7042,0.7952,0.8048,0.8048,0.8048,0.8041,0.8072,0.8109,0.8109,0.8109,0.8109,0.8109,0.8072,0.8038,0.8038,0.8038,0.8038,0.8038,0.8038,0.8038,0.8038,0.8038,0.8038,0.8038,0.8038,0.8038,0.8038,0.8038,0.8038,0.8038,0.8038,0.8038,0.8038,0.8038,0.8001,0.7913,0.795,0.7899,0.775,0.7604,0.7478,0.737,0.7217,0.7139,0.7139,0.7139,0.7139,0.5167,0.0,0.0,0.0,0.0,0.0,0.0,0.0,0.0,0.0,0.0,0.0,0.0,0.0,0.0,0.0,0.0,0.0,0.0,0.0,0.0,0.0,0.0,0.0,0.0,0.0,0.0,0.0,0.0,0.0,0.0,0.7777,0.777,0.7862,0.7777,0.7773,0.7865,0.7865,0.7865,0.7865,0.7865,0.7892,0.795,0.8011,0.8038,0.8038,0.8038,0.8038,0.8038,0.8038,0.8038,0.8038,0.8038,0.8038,0.8038,0.8038,0.8038,0.8038,0.8038,0.8038,0.8041,0.7955,0.7543,0.693,0.6537,0.7144,0.7959,0.7955,0.7952,0.7952,0.8041,0.8038,0.8038,0.8038,0.8038,0.8038,0.8038,0.8038,0.8038,0.8038,0.8038,0.8038,0.8038,0.8038,0.8038,0.8038,0.8038,0.8038,0.8038,0.8038,0.8038,0.8038,0.8038,0.8038,0.8038,0.8038,0.8038,0.8038,0.8038,0.8038,0.8038,0.8038,0.7967,0.7814,0.7672,0.7522,0.737,0.7217,0.7139,0.7139,0.7139,0.7139,0.0,0.0,0.0,0.0,0.0,0.0,0.0,0.0,0.0,0.0,0.0,0.0,0.0,0.0,0.0,0.0,0.0,0.0,0.0,0.0,0.0,0.0,0.0,0.0,0.0,0.0,0.0,0.0,0.0,0.0,0.0,0.7573,0.757,0.7597,0.7573,0.757,0.76,0.76,0.76,0.76,0.76,0.7665,0.7797,0.795,0.8024,0.8038,0.8038,0.8038,0.8038,0.8024,0.8018,0.8018,0.8018,0.8018,0.8021,0.8035,0.8038,0.8038,0.8038,0.8038,0.8038,0.8041,0.693,0.5927,0.7559,0.7979,0.7982,0.7972,0.7969,0.7965,0.8045,0.8038,0.8038,0.8038,0.8038,0.8038,0.8038,0.8038,0.8038,0.8038,0.8038,0.8038,0.8038,0.8038,0.8038,0.8038,0.8038,0.8038,0.8038,0.8038,0.8038,0.8038,0.8038,0.8038,0.8038,0.8038,0.8038,0.8038,0.8038,0.8038,0.8038,0.8038,0.7967,0.7814,0.7672,0.7522,0.737,0.7217,0.7139,0.7139,0.7139,0.7139,0.0,0.0,0.0,0.0,0.0,0.0,0.0,0.0,0.0,0.0,0.0,0.0,0.0,0.0,0.0,0.0,0.0,0.0,0.0,0.0,0.0,0.0,0.0,0.0,0.0,0.0,0.0,0.0,0.0,0.0,0.76,0.737,0.735,0.7594,0.7363,0.7356,0.7597,0.76,0.76,0.0,0.76,0.7614,0.7651,0.7794,0.7926,0.8038,0.8038,0.8038,0.8031,0.7909,0.7862,0.7862,0.7862,0.7862,0.7875,0.7994,0.8038,0.8038,0.8038,0.8038,0.8041,0.7959,0.7753,0.7537,0.7865,0.7962,0.8048,0.8048,0.8045,0.8045,0.8041,0.8038,0.8038,0.8038,0.8038,0.8038,0.8038,0.8038,0.8038,0.8038,0.8038,0.8038,0.8038,0.8038,0.8038,0.8038,0.8038,0.8038,0.8038,0.8038,0.8038,0.8038,0.8038,0.8038,0.8038,0.8038,0.8038,0.8038,0.8038,0.8038,0.8038,0.8038,0.7967,0.7814,0.7672,0.7522,0.737,0.7217,0.7139,0.7139,0.7139,0.7139,0.0,0.0,0.0,0.0,0.0,0.0,0.0,0.0,0.0,0.0,0.0,0.0,0.0,0.0,0.0,0.0,0.0,0.0,0.0,0.0,0.0,0.0,0.0,0.0,0.0,0.0,0.0,0.0,0.0,0.717,0.717,0.7017,0.7004,0.7163,0.7014,0.7041,0.7275,0.7278,0.7312,0.738,0.738,0.7417,0.7495,0.7641,0.7753,0.7828,0.7828,0.7828,0.7828,0.7818,0.7811,0.7811,0.7811,0.7811,0.7814,0.7824,0.7828,0.7828,0.7828,0.7828,0.7831,0.7851,0.7889,0.7933,0.796,0.8001,0.8038,0.8038,0.8038,0.8038,0.8038,0.8038,0.8038,0.8038,0.8038,0.8038,0.8038,0.8038,0.8038,0.8038,0.8038,0.8038,0.8038,0.8038,0.8038,0.8038,0.8038,0.8038,0.8038,0.8038,0.8038,0.8038,0.8038,0.8038,0.8038,0.8038,0.8038,0.8038,0.8038,0.8038,0.8038,0.797,0.7862,0.7712,0.7638,0.7489,0.7261,0.718,0.7177,0.7248,0.7173,0.718,0.0,0.0,0.0,0.0,0.0,0.0,0.0,0.0,0.0,0.0,0.0,0.0,0.0,0.0,0.0,0.0,0.0,0.0,0.0,0.0,0.0,0.0,0.0,0.0,0.0,0.0,0.0,0.0,0.0,0.6702,0.6702,0.6675,0.6671,0.6702,0.6675,0.6732,0.6888,0.6892,0.6949,0.7065,0.7065,0.7132,0.7261,0.7387,0.7502,0.76,0.76,0.76,0.7607,0.7699,0.7736,0.7736,0.7736,0.7736,0.7726,0.7634,0.76,0.76,0.76,0.76,0.76,0.7705,0.7689,0.7777,0.7897,0.7976,0.797,0.7994,0.8001,0.8007,0.8031,0.8038,0.8038,0.8038,0.8038,0.8038,0.8038,0.8038,0.8038,0.8038,0.8038,0.8038,0.8038,0.8038,0.8038,0.8038,0.8038,0.8038,0.8038,0.8038,0.8038,0.8038,0.8038,0.8038,0.8038,0.8038,0.8028,0.8001,0.8024,0.8028,0.8001,0.7902,0.7773,0.7604,0.7573,0.7434,0.718,0.718,0.7258,0.7407,0.7251,0.7248,0.0,0.0,0.0,0.0,0.0,0.0,0.0,0.0,0.0,0.0,0.0,0.0,0.0,0.0,0.0,0.0,0.0,0.0,0.0,0.0,0.0,0.0,0.0,0.0,0.0,0.0,0.0,0.0,0.6624,0.6702,0.6702,0.6573,0.6563,0.6698,0.6573,0.6576,0.6729,0.6729,0.6742,0.6759,0.6759,0.677,0.679,0.681,0.7105,0.76,0.76,0.76,0.759,0.7478,0.7431,0.7431,0.7431,0.7431,0.7444,0.7556,0.76,0.76,0.76,0.76,0.76,0.76,0.7614,0.7628,0.7631,0.7645,0.7685,0.7807,0.7841,0.7872,0.8004,0.8038,0.8038,0.8038,0.8038,0.8038,0.8038,0.8038,0.8038,0.8038,0.8038,0.8038,0.8038,0.8038,0.8038,0.8038,0.8038,0.8038,0.8038,0.8038,0.8038,0.8038,0.8038,0.8038,0.8038,0.8038,0.7984,0.7848,0.7967,0.798,0.7845,0.795,0.7879,0.7604,0.7468,0.7383,0.7343,0.7343,0.7417,0.7567,0.7411,0.7353,0.0,0.0,0.0,0.0,0.0,0.0,0.0,0.0,0.0,0.0,0.0,0.0,0.0,0.0,0.0,0.0,0.0,0.0,0.0,0.0,0.0,0.0,0.0,0.0,0.0,0.0,0.0,0.0,0.6285,0.6288,0.62,0.6132,0.6129,0.6193,0.6132,0.621,0.6451,0.6454,0.6536,0.6702,0.6702,0.6702,0.6702,0.6702,0.6844,0.7095,0.7095,0.7095,0.7099,0.7115,0.7122,0.7129,0.721,0.7241,0.7251,0.7316,0.7343,0.7343,0.7343,0.7343,0.7346,0.7356,0.7411,0.7475,0.7485,0.7543,0.7611,0.7675,0.775,0.7828,0.7892,0.7974,0.8038,0.8038,0.8038,0.8018,0.7929,0.798,0.8038,0.8038,0.8038,0.8038,0.8038,0.8038,0.8038,0.8038,0.8038,0.8038,0.8038,0.8038,0.8038,0.8038,0.8038,0.8038,0.8038,0.796,0.7882,0.7814,0.7801,0.7763,0.7695,0.7675,0.7604,0.7475,0.7567,0.7495,0.7241,0.7329,0.7451,0.7594,0.7353,0.7333,0.0,0.0,0.0,0.0,0.0,0.0,0.0,0.0,0.0,0.0,0.0,0.0,0.0,0.0,0.0,0.0,0.0,0.0,0.0,0.0,0.0,0.0,0.0,0.0,0.0,0.0,0.0,0.0,0.5973,0.5922,0.5806,0.58,0.58,0.58,0.58,0.5911,0.6142,0.6146,0.6274,0.6529,0.6491,0.6491,0.6529,0.6529,0.6529,0.6536,0.6651,0.6702,0.6709,0.6824,0.6871,0.6881,0.6987,0.7027,0.7031,0.7031,0.7034,0.7041,0.7085,0.7071,0.7048,0.7054,0.7214,0.7268,0.7322,0.7404,0.7492,0.7533,0.7617,0.7709,0.7746,0.7841,0.7926,0.7926,0.7926,0.7916,0.7879,0.7899,0.795,0.8024,0.8007,0.7994,0.8031,0.8007,0.7994,0.8035,0.8007,0.7994,0.8035,0.8038,0.8038,0.8038,0.8004,0.798,0.798,0.7845,0.774,0.7702,0.7638,0.7584,0.7543,0.7468,0.7411,0.737,0.7628,0.7573,0.72,0.7316,0.7451,0.7594,0.7326,0.7322,0.0,0.0,0.0,0.0,0.0,0.0,0.0,0.0,0.0,0.0,0.0,0.0,0.0,0.0,0.0,0.0,0.0,0.0,0.0,0.0,0.0,0.0,0.0,0.0,0.0,0.0,0.0,0.0,0.5813,0.581,0.58,0.58,0.58,0.58,0.58,0.581,0.5823,0.5827,0.5905,0.6064,0.5918,0.5925,0.6064,0.6064,0.6064,0.6088,0.6515,0.6702,0.6702,0.6709,0.6712,0.6712,0.6719,0.6722,0.6725,0.6822,0.6826,0.685,0.7022,0.6967,0.6874,0.7082,0.6984,0.6976,0.7112,0.7156,0.7193,0.7343,0.739,0.7428,0.7573,0.7617,0.7624,0.7624,0.7624,0.7695,0.797,0.7814,0.7706,0.7984,0.7923,0.7868,0.8014,0.7919,0.7872,0.8018,0.7916,0.7875,0.8021,0.8038,0.8038,0.8038,0.7909,0.7824,0.7824,0.7692,0.755,0.7404,0.7522,0.7536,0.739,0.7516,0.7519,0.7373,0.7529,0.7529,0.736,0.7366,0.7451,0.7597,0.7434,0.7366,0.0,0.0,0.0,0.0,0.0,0.0,0.0,0.0,0.0,0.0,0.0,0.0,0.0,0.0,0.0,0.0,0.0,0.0,0.0,0.0,0.0,0.0,0.0,0.0,0.0,0.0,0.0,0.0,0.0,0.5623,0.5525,0.5518,0.5518,0.5518,0.5518,0.5566,0.5664,0.5755,0.583,0.5881,0.5827,0.583,0.5884,0.5983,0.5976,0.5898,0.6156,0.6325,0.642,0.642,0.642,0.6427,0.6519,0.6556,0.6566,0.6761,0.6798,0.6629,0.5754,0.599,0.6725,0.6834,0.6898,0.6939,0.699,0.7068,0.7153,0.7207,0.7295,0.7383,0.7438,0.7526,0.76,0.76,0.7522,0.7509,0.7712,0.7746,0.7767,0.7872,0.7929,0.7974,0.8031,0.7913,0.7865,0.8018,0.7831,0.7763,0.8007,0.7953,0.7892,0.7892,0.7845,0.7773,0.7682,0.7539,0.7431,0.7373,0.7329,0.7278,0.7224,0.7275,0.7278,0.7224,0.7275,0.7278,0.7224,0.7322,0.74,0.7448,0.7295,0.7278,0.0,0.0,0.0,0.0,0.0,0.0,0.0,0.0,0.0,0.0,0.0,0.0,0.0,0.0,0.0,0.0,0.0,0.0,0.0,0.0,0.0,0.0,0.0,0.0,0.0,0.0,0.0,0.0,0.0,0.0,0.5432,0.5428,0.5428,0.5428,0.5428,0.541,0.5511,0.5606,0.5681,0.5728,0.5677,0.5681,0.5735,0.5837,0.5827,0.5739,0.5888,0.601,0.6112,0.6162,0.6183,0.62,0.6342,0.6403,0.6417,0.661,0.615,0.5488,0.5202,0.5773,0.658,0.6678,0.6776,0.6851,0.6851,0.6987,0.7129,0.7082,0.7177,0.7292,0.7292,0.737,0.7444,0.7444,0.7366,0.7322,0.7424,0.7519,0.7617,0.7719,0.778,0.7831,0.7882,0.7767,0.7716,0.7868,0.7682,0.7611,0.7858,0.7804,0.774,0.774,0.7695,0.7624,0.7533,0.738,0.7292,0.7292,0.7197,0.7139,0.7139,0.7139,0.7139,0.7139,0.7139,0.7139,0.7139,0.7244,0.7292,0.7292,0.7187,0.7193,0.0,0.0,0.0,0.0,0.0,0.0,0.0,0.0,0.0,0.0,0.0,0.0,0.0,0.0,0.0,0.0,0.0,0.0,0.0,0.0,0.0,0.0,0.0,0.0,0.0,0.0,0.0,0.0,0.5418,0.5422,0.5422,0.5422,0.5422,0.5422,0.5422,0.5422,0.5428,0.5428,0.5437,0.5583,0.5433,0.544,0.5586,0.5589,0.5586,0.5586,0.5732,0.5789,0.5793,0.5956,0.6023,0.6037,0.619,0.6328,0.6335,0.6271,0.5007,0.345,0.5482,0.6255,0.6339,0.6542,0.6625,0.6695,0.6695,0.6898,0.7099,0.6959,0.7024,0.7136,0.7139,0.7139,0.7139,0.7139,0.7139,0.7139,0.7139,0.7139,0.7231,0.7533,0.7478,0.7424,0.7573,0.7472,0.7424,0.7577,0.7465,0.7421,0.758,0.7597,0.7594,0.7594,0.7458,0.737,0.7363,0.7227,0.7139,0.7139,0.7139,0.7139,0.7139,0.7139,0.7139,0.7139,0.7139,0.7143,0.7146,0.7143,0.7139,0.7139,0.7139,0.7139,0.9814,0.0,0.0,0.0,0.0,0.0,0.0,0.0,0.0,0.0,0.0,0.0,0.0,0.0,0.0,0.0,0.0,0.0,0.0,0.0,0.0,0.0,0.0,0.0,0.0,0.0,0.0,0.0,0.5135,0.5196,0.5196,0.5196,0.5196,0.5196,0.5196,0.5247,0.5425,0.5428,0.5389,0.5437,0.5396,0.5399,0.5454,0.5483,0.541,0.5284,0.5538,0.5521,0.5345,0.5711,0.5943,0.603,0.6075,0.6172,0.6291,0.6301,0.5896,0.526,0.4337,0.4961,0.6295,0.6366,0.6458,0.6536,0.6536,0.6668,0.6814,0.6773,0.6871,0.701,0.7112,0.7139,0.7139,0.7139,0.7139,0.7139,0.7139,0.7139,0.7197,0.7397,0.7489,0.755,0.7594,0.7472,0.7424,0.7577,0.7373,0.7299,0.7567,0.7502,0.7434,0.7434,0.7397,0.7326,0.7214,0.7166,0.7139,0.7139,0.7139,0.7139,0.7139,0.7139,0.7139,0.7139,0.7139,0.7193,0.7309,0.7193,0.7139,0.7139,0.7139,0.7139,0.0,0.0,0.0,0.0,0.0,0.0,0.8804,0.8804,0.0,0.0,0.0,0.0,0.0,0.0,0.0,0.0,0.0,0.0,0.0,0.0,0.0,0.0,0.0,0.0,0.0,0.4897,0.4938,0.4921,0.4996,0.5043,0.5043,0.5043,0.5043,0.5043,0.5043,0.5114,0.5264,0.5206,0.5277,0.5415,0.5291,0.5,0.4546,0.4549,0.4696,0.4998,0.5233,0.5243,0.5091,0.5413,0.5676,0.581,0.5069,0.4848,0.4998,0.493,0.5544,0.6046,0.416,0.473,0.6278,0.6264,0.6356,0.6461,0.6403,0.6532,0.6685,0.6624,0.6715,0.6854,0.6936,0.6956,0.6956,0.6956,0.7004,0.7034,0.697,0.7054,0.7166,0.7258,0.7346,0.7407,0.7407,0.7333,0.7305,0.7394,0.7255,0.7207,0.7383,0.7329,0.7275,0.7275,0.7275,0.7238,0.7146,0.7139,0.7139,0.7139,0.7139,0.7139,0.7139,0.7139,0.7139,0.7139,0.7139,0.7183,0.7275,0.7183,0.7139,0.7139,0.7139,0.7139,0.0,0.0,0.0,0.0,0.0,0.0,0.8752,0.8752,0.848,0.0,0.0,0.0,0.0,0.0,0.0,0.0,0.0,0.0,0.0,0.0,0.0,0.0,0.0,0.0,0.4653,0.468,0.4741,0.486,0.4884,0.4887,0.487,0.4884,0.4894,0.4894,0.4894,0.4965,0.5108,0.4986,0.5058,0.5389,0.5061,0.4186,0.2946,0.3317,0.3986,0.4837,0.4914,0.4937,0.5061,0.5131,0.5315,0.5527,0.3783,0.3247,0.333,0.311,0.4276,0.5748,0.4731,0.5182,0.6227,0.6213,0.6295,0.6373,0.6247,0.6403,0.6607,0.6502,0.6569,0.6678,0.6695,0.6702,0.6702,0.6702,0.6803,0.6865,0.6729,0.6905,0.7092,0.7092,0.7115,0.7139,0.7139,0.7139,0.7136,0.7119,0.7129,0.7129,0.7095,0.7119,0.7136,0.7119,0.7132,0.7139,0.7139,0.7139,0.7139,0.7139,0.7139,0.7139,0.7139,0.7139,0.7139,0.7139,0.7156,0.7156,0.7139,0.7139,0.7139,0.7139,0.7139,0.7139,0.0,0.0,0.0,0.0,0.0,0.0,0.8533,0.8321,0.7723,0.0,0.0,0.0,0.0,0.0,0.0,0.0,0.0,0.0,0.0,0.0,0.0,0.0,0.0,0.0,0.456,0.4619,0.4653,0.4558,0.4667,0.468,0.4558,0.4667,0.4735,0.4735,0.4803,0.4886,0.5102,0.5074,0.5149,0.5388,0.4203,0.2581,0.0739,0.3392,0.4578,0.4601,0.4833,0.4897,0.4862,0.5241,0.5408,0.5312,0.4011,0.4079,0.4745,0.3311,0.3077,0.3589,0.4913,0.5596,0.5842,0.5898,0.5908,0.5925,0.5898,0.6017,0.6203,0.6413,0.6495,0.6546,0.6668,0.6702,0.6702,0.6702,0.6722,0.6736,0.6709,0.6746,0.6787,0.6787,0.698,0.7139,0.7139,0.7139,0.7102,0.6987,0.7068,0.7054,0.6817,0.6993,0.7095,0.6983,0.7071,0.7139,0.7139,0.7139,0.7139,0.7139,0.7139,0.7139,0.7139,0.7139,0.7139,0.7139,0.7261,0.7265,0.7139,0.7139,0.7139,0.7139,0.7139,0.7139,0.0,0.0,0.0,0.8119,0.0,0.0,0.0,0.7402,0.6966,0.6199,0.0,0.0,0.0,0.0,0.0,0.0,0.0,0.0,0.0,0.0,0.0,0.0,0.0,0.0,0.4519,0.4538,0.4555,0.4484,0.4548,0.4558,0.4529,0.4541,0.4585,0.4585,0.4649,0.4314,0.3667,0.3669,0.4219,0.5415,0.4402,0.3299,0.224,0.2411,0.2797,0.3395,0.3796,0.4216,0.4653,0.4965,0.5095,0.5,0.3647,0.4064,0.5307,0.4393,0.4114,0.4351,0.5358,0.5691,0.5745,0.5803,0.58,0.58,0.58,0.5908,0.6061,0.621,0.6308,0.6383,0.6461,0.6481,0.6481,0.6481,0.6536,0.6566,0.6495,0.6597,0.6678,0.6603,0.6766,0.6919,0.6919,0.6919,0.6898,0.6824,0.6875,0.6868,0.6719,0.6827,0.6895,0.682,0.6946,0.7034,0.7034,0.7099,0.7139,0.7139,0.7139,0.7139,0.7139,0.7139,0.7139,0.7139,0.7217,0.7217,0.7139,0.7139,0.7139,0.7139,0.7139,0.7139,0.0,0.0,0.0,0.0,0.0,0.6263,0.0,0.0,0.0,0.5597,0.0,0.0,0.0,0.0,0.0,0.0,0.0,0.0,0.0,0.0,0.0,0.0,0.0,0.0,0.0,0.4473,0.4369,0.4095,0.4039,0.4036,0.4082,0.4311,0.448,0.448,0.4484,0.3741,0.2206,0.1922,0.2665,0.4342,0.4166,0.3881,0.3543,0.1733,0.1507,0.2627,0.2788,0.3473,0.4539,0.4701,0.4796,0.4781,0.3563,0.404,0.5345,0.5315,0.5413,0.5628,0.5597,0.5676,0.5718,0.5718,0.5718,0.5722,0.5752,0.5847,0.5949,0.5979,0.6078,0.6179,0.621,0.6217,0.6224,0.6254,0.6349,0.64,0.6285,0.6447,0.658,0.6458,0.6532,0.6634,0.6692,0.6702,0.6692,0.6661,0.6681,0.6678,0.6624,0.6664,0.6702,0.6702,0.6837,0.6939,0.6966,0.7075,0.7139,0.7139,0.7139,0.7139,0.7139,0.7139,0.7139,0.7139,0.7139,0.7139,0.7139,0.7316,0.7316,0.7139,0.7139,0.7139,0.0,0.0,0.0,0.0,0.566,0.0,0.0,0.0,0.5597,0.5542,0.0,0.0,0.0,0.0,0.0,0.0,0.0,0.0,0.0,0.0,0.0,0.0,0.0,0.0,0.0,0.4473,0.3913,0.2567,0.2456,0.2456,0.2454,0.3752,0.449,0.448,0.4501,0.3769,0.2188,0.0894,0.0392,0.062,0.1847,0.1788,0.0616,0.2914,0.4101,0.4166,0.2852,0.3244,0.4769,0.4766,0.4852,0.4864,0.4706,0.4862,0.5095,0.5023,0.5148,0.5435,0.5233,0.5284,0.5476,0.5476,0.5476,0.5437,0.5572,0.5627,0.5664,0.5793,0.584,0.5884,0.602,0.6057,0.6091,0.623,0.6352,0.6281,0.6264,0.6288,0.6305,0.6288,0.6298,0.6393,0.6654,0.6702,0.6654,0.6519,0.6614,0.6607,0.6346,0.6539,0.6702,0.6702,0.6837,0.698,0.7105,0.7132,0.7139,0.7139,0.7139,0.7139,0.7139,0.7139,0.7139,0.7139,0.7139,0.7139,0.7139,0.8189,0.8105,0.7139,0.7139,0.7139,0.0,0.0,0.0,0.0,0.0,0.0,0.5226,0.0,0.4893,0.0,0.0,0.0,0.0,0.0,0.0,0.0,0.4423,0.0,0.0,0.0,0.0,0.0,0.0,0.0,0.0,0.0,0.0,0.0,0.0951,0.095,0.0949,0.1563,0.2685,0.4442,0.4507,0.337,0.0951,0.0336,-0.0,-0.0,0.0615,0.1512,0.2639,0.3937,0.4504,0.4445,0.3808,0.3946,0.4632,0.4625,0.4659,0.4653,0.4653,0.4802,0.5006,0.4942,0.4999,0.5108,0.5125,0.5172,0.5243,0.5332,0.5428,0.5439,0.5437,0.5518,0.5603,0.5661,0.5739,0.5817,0.5881,0.5962,0.6047,0.6112,0.6129,0.6149,0.624,0.619,0.6156,0.6244,0.6338,0.6298,0.6424,0.6444,0.6424,0.6359,0.6407,0.64,0.6278,0.6369,0.6444,0.6444,0.6576,0.6688,0.6749,0.6834,0.6922,0.701,0.7095,0.7139,0.7139,0.7139,0.7139,0.7139,0.7139,0.7139,0.7139,0.7577,0.7577,0.7139,0.7841,0.7753,0.4504,0.0,0.0,0.0,0.0,0.0,0.0,0.0,0.0,0.0,0.0,0.0,0.0,0.0,0.0,0.0,0.0,0.0,0.0,0.0,0.0,0.0,0.0,0.0,0.0,0.0,0.0,0.0224,-0.0,-0.0,-0.0,-0.0,0.1007,0.32,0.3258,0.2639,0.1233,0.1233,0.1233,0.1233,0.0784,0.1736,0.3878,0.4333,0.4501,0.449,0.448,0.4473,0.4473,0.4522,0.4519,0.4519,0.4519,0.4599,0.4796,0.4796,0.4847,0.4928,0.4989,0.5036,0.5091,0.5203,0.524,0.524,0.524,0.5345,0.5464,0.5464,0.5569,0.5691,0.5732,0.5827,0.5918,0.5959,0.5966,0.6,0.6112,0.6047,0.6,0.6112,0.6135,0.6135,0.6135,0.6203,0.6338,0.6338,0.6338,0.6338,0.6338,0.6338,0.6352,0.6315,0.641,0.6488,0.6532,0.6637,0.6766,0.6919,0.7061,0.7139,0.7139,0.7139,0.7139,0.7139,0.7139,0.7139,0.7139,0.7404,0.7404,0.7139,0.8017,0.7925,0.0,0.0,0.0,0.448,0.0,0.0,0.0,0.0,0.4522,0.0,0.0,0.0,0.0,0.0,0.0,0.0,0.0,0.0,0.0,0.0,0.0,0.0,0.0,0.0,0.0,0.0,0.0,0.0224,-0.0,-0.0,-0.0,-0.0,0.0056,0.0168,0.0168,0.1514,0.434,0.4343,0.4343,0.434,0.2854,0.2176,0.2343,0.3802,0.448,0.448,0.4522,0.4519,0.4519,0.4519,0.4519,0.4519,0.4519,0.4522,0.4532,0.4532,0.4663,0.4897,0.4755,0.4802,0.4925,0.4931,0.4935,0.4935,0.4935,0.5033,0.5145,0.5145,0.5257,0.5476,0.5559,0.5599,0.564,0.5776,0.581,0.581,0.5817,0.5813,0.581,0.5817,0.5817,0.5817,0.5817,0.6064,0.6338,0.6338,0.6338,0.6338,0.6338,0.6338,0.6315,0.6451,0.6468,0.6532,0.6681,0.6698,0.6766,0.6919,0.7061,0.7139,0.7139,0.7139,0.7139,0.7139,0.7139,0.7139,0.7139,0.8277,0.8281,0.7139,0.7139,0.7139,0.0,0.0,0.2961,0.2959,0.0,0.0,0.0,0.0,0.0,0.0,0.0,0.0,0.0,0.0,0.0,0.0,0.0,0.0,0.0,0.0,0.0,0.0,0.0,0.0,0.0,0.0,0.0,0.0054,-0.0,-0.0,-0.0,-0.0,-0.0,-0.0,-0.0,0.1457,0.4458,0.4514,0.4511,0.4501,0.3984,0.3694,0.3744,0.4252,0.4477,0.4522,0.4519,0.4519,0.4519,0.4519,0.4519,0.4519,0.4519,0.4519,0.4519,0.4519,0.4592,0.4775,0.4823,0.4874,0.4918,0.4918,0.4982,0.5057,0.5057,0.5165,0.5284,0.5284,0.5321,0.5439,0.5423,0.5515,0.5603,0.565,0.5661,0.5688,0.5783,0.5728,0.5688,0.5783,0.5884,0.5952,0.5952,0.6125,0.6227,0.6125,0.6196,0.6338,0.6338,0.6338,0.6278,0.6329,0.6332,0.6352,0.6407,0.6495,0.6614,0.6766,0.6919,0.7041,0.7136,0.7139,0.7139,0.7139,0.7139,0.7139,0.7139,0.7489,0.7489,0.7139,0.7139,0.7139,0.1396,0.1396,0.0,0.1395,0.2174,0.0,0.4252,0.0,0.0,0.0,0.0,0.0,0.0,0.0,0.0,0.0,0.0,0.0,0.0,0.4511,0.0,0.0,0.0,0.0,0.0,0.0,0.092,0.0054,-0.0,-0.0,0.0,0.0,-0.0,-0.0,-0.0,0.0953,0.2865,0.394,0.4504,0.4497,0.4487,0.448,0.4473,0.4473,0.4525,0.4519,0.4519,0.4519,0.4519,0.4519,0.4519,0.4519,0.4519,0.4519,0.4519,0.4519,0.458,0.4623,0.4721,0.4758,0.4758,0.4758,0.4819,0.4894,0.4894,0.5036,0.5216,0.5267,0.5318,0.5439,0.543,0.5477,0.5508,0.5508,0.5508,0.5535,0.5627,0.5572,0.5535,0.5627,0.5725,0.5793,0.5793,0.5918,0.6044,0.6101,0.6196,0.6338,0.6338,0.6338,0.6338,0.6338,0.6338,0.6338,0.6338,0.639,0.6536,0.6692,0.6844,0.6993,0.7136,0.7139,0.7166,0.7221,0.717,0.7139,0.7139,0.7139,0.7085,0.6987,0.7092,0.7112]},{"header":{"parameterUnit":"m.s-1","parameterCategory":1,"la1":30.6,"la2":29.2853,"lo1":-89.7004,"lo2":-87.6739,"dy":0.0162,"dx":0.0183,"nx":112,"ny":82,"refTime":"2023-08-03T12:00:00:Z","depth":0,"parameterNumber":3,"parameterNumberName":"V-component_of_WINDS"},"data":[0.0,0.0,0.0,0.0,0.0,0.0,0.0,0.0,0.0,0.0,0.0,0.0,0.0,0.0,0.0,0.0,0.0,0.0,0.0,0.0,0.0,0.0,0.0,0.0,0.0,0.0,0.0,0.0,0.0,0.0,0.0,0.0,0.0,0.0,0.0,0.0,0.0,0.0,0.0,0.0,0.0,0.0,0.0,0.0,0.0,0.0,0.0,0.0,0.0,0.0,0.0,0.0,0.0,0.0,0.0,0.0,0.0,0.0,0.0,0.0,0.0,0.0,0.0,0.0,0.0,0.0,0.0,0.0,0.0,0.0,0.0,0.0,0.0,0.0,0.0,0.0,0.0,0.0,0.0,0.0,0.0,0.0,0.0,0.0,0.0,0.0,0.0,0.0,0.0,0.0,-2.5703,-2.8047,-3.1133,-3.3044,-3.3083,-3.434,-3.3412,-2.947,0.0,0.0,0.0,0.0,0.0,0.0,0.0,0.0,0.0,0.0,0.0,0.0,0.0,0.0,0.0,0.0,0.0,0.0,0.0,0.0,0.0,0.0,0.0,0.0,0.0,0.0,0.0,0.0,0.0,0.0,0.0,0.0,0.0,0.0,0.0,0.0,0.0,0.0,0.0,0.0,0.0,0.0,0.0,0.0,0.0,0.0,0.0,0.0,0.0,0.0,0.0,0.0,0.0,0.0,0.0,0.0,0.0,0.0,0.0,0.0,0.0,0.0,0.0,0.0,0.0,0.0,0.0,0.0,0.0,0.0,0.0,0.0,0.0,0.0,0.0,0.0,0.0,0.0,0.0,0.0,0.0,0.0,0.0,0.0,0.0,0.0,0.0,0.0,0.0,0.0,0.0,0.0,0.0,0.0,0.0,0.0,0.0,0.0,0.0,0.0,0.0,0.0,0.0,0.0,-2.7031,-2.8184,-3.0098,-3.1526,-3.2135,-3.1761,-3.0868,-2.9387,0.0,0.0,0.0,0.0,0.0,0.0,0.0,0.0,0.0,0.0,0.0,0.0,0.0,0.0,0.0,0.0,0.0,0.0,0.0,0.0,0.0,0.0,0.0,0.0,0.0,0.0,0.0,0.0,0.0,0.0,0.0,0.0,0.0,0.0,0.0,0.0,0.0,0.0,0.0,0.0,0.0,0.0,0.0,0.0,0.0,0.0,0.0,0.0,0.0,0.0,0.0,0.0,0.0,0.0,0.0,0.0,0.0,0.0,0.0,0.0,0.0,0.0,0.0,0.0,0.0,0.0,0.0,0.0,0.0,0.0,0.0,0.0,0.0,0.0,0.0,0.0,0.0,0.0,0.0,0.0,0.0,0.0,0.0,0.0,0.0,0.0,0.0,0.0,0.0,0.0,0.0,0.0,0.0,0.0,0.0,0.0,0.0,0.0,0.0,0.0,0.0,0.0,0.0,-2.7384,-2.7793,-2.8191,-2.9775,-3.1084,-3.1823,-3.1087,-3.0394,-2.9932,-2.8961,0.0,0.0,0.0,0.0,0.0,0.0,0.0,0.0,0.0,0.0,0.0,0.0,0.0,0.0,0.0,0.0,0.0,0.0,0.0,0.0,0.0,0.0,0.0,0.0,0.0,0.0,0.0,0.0,0.0,0.0,0.0,0.0,0.0,0.0,0.0,0.0,0.0,0.0,0.0,0.0,0.0,0.0,0.0,0.0,0.0,0.0,0.0,0.0,0.0,0.0,0.0,0.0,0.0,0.0,0.0,0.0,0.0,0.0,0.0,0.0,0.0,0.0,0.0,0.0,0.0,0.0,0.0,0.0,0.0,0.0,0.0,0.0,0.0,0.0,0.0,0.0,0.0,0.0,0.0,0.0,0.0,0.0,0.0,0.0,0.0,0.0,0.0,0.0,0.0,0.0,0.0,0.0,0.0,0.0,0.0,0.0,0.0,0.0,0.0,0.0,0.0,0.0,-2.7627,-2.797,-2.8153,-2.9515,-3.0681,-3.1441,-3.0702,-3.0163,-3.0102,-2.8082,0.0,0.0,0.0,0.0,0.0,0.0,0.0,0.0,0.0,0.0,0.0,0.0,0.0,0.0,0.0,0.0,0.0,0.0,0.0,0.0,0.0,0.0,0.0,0.0,0.0,0.0,0.0,0.0,0.0,0.0,0.0,0.0,0.0,0.0,0.0,0.0,0.0,0.0,0.0,0.0,0.0,0.0,0.0,0.0,0.0,0.0,0.0,0.0,0.0,0.0,0.0,0.0,0.0,0.0,0.0,0.0,0.0,0.0,0.0,0.0,0.0,0.0,0.0,0.0,0.0,0.0,0.0,0.0,0.0,0.0,0.0,0.0,0.0,0.0,0.0,0.0,0.0,0.0,0.0,0.0,0.0,0.0,0.0,0.0,0.0,0.0,0.0,0.0,0.0,0.0,0.0,0.0,0.0,0.0,0.0,0.0,0.0,0.0,0.0,0.0,0.0,0.0,-2.7416,-2.7286,-2.8035,-2.8948,-2.9794,-3.0525,-2.9794,-2.9267,-2.9198,-2.8313,0.0,0.0,0.0,0.0,0.0,0.0,0.0,0.0,0.0,0.0,0.0,0.0,0.0,0.0,0.0,0.0,0.0,0.0,0.0,0.0,0.0,0.0,0.0,0.0,0.0,0.0,0.0,0.0,0.0,0.0,0.0,0.0,0.0,0.0,0.0,0.0,0.0,0.0,0.0,0.0,0.0,0.0,0.0,0.0,0.0,0.0,0.0,0.0,0.0,0.0,0.0,0.0,0.0,0.0,0.0,0.0,0.0,0.0,0.0,0.0,0.0,0.0,0.0,0.0,0.0,0.0,0.0,0.0,0.0,0.0,0.0,0.0,0.0,0.0,0.0,0.0,0.0,0.0,0.0,0.0,0.0,0.0,0.0,0.0,0.0,0.0,0.0,0.0,0.0,0.0,0.0,0.0,0.0,0.0,0.0,0.0,0.0,0.0,0.0,0.0,0.0,0.0,-2.7331,-2.6901,0.0,-2.7475,-2.7995,-2.8813,-2.8082,-2.8005,-2.9044,0.0,0.0,0.0,0.0,0.0,0.0,0.0,0.0,0.0,0.0,0.0,0.0,0.0,0.0,0.0,0.0,0.0,0.0,0.0,0.0,0.0,0.0,0.0,0.0,0.0,0.0,0.0,0.0,0.0,0.0,0.0,0.0,0.0,0.0,0.0,0.0,0.0,0.0,0.0,0.0,0.0,0.0,0.0,0.0,0.0,0.0,0.0,0.0,0.0,0.0,0.0,0.0,0.0,0.0,0.0,0.0,0.0,0.0,0.0,0.0,0.0,0.0,0.0,0.0,0.0,0.0,0.0,0.0,0.0,0.0,0.0,0.0,0.0,0.0,0.0,0.0,0.0,0.0,0.0,0.0,0.0,0.0,0.0,0.0,0.0,0.0,0.0,0.0,0.0,0.0,0.0,0.0,0.0,0.0,0.0,0.0,0.0,0.0,0.0,0.0,0.0,0.0,-2.8119,-2.7003,-2.6381,0.0,-2.6629,-2.6948,-2.7832,-2.7101,-2.7313,-2.8986,0.0,0.0,0.0,0.0,0.0,0.0,0.0,0.0,0.0,0.0,0.0,0.0,0.0,0.0,0.0,0.0,0.0,0.0,0.0,0.0,0.0,0.0,0.0,0.0,0.0,0.0,0.0,0.0,0.0,0.0,0.0,0.0,0.0,0.0,0.0,0.0,0.0,0.0,0.0,0.0,0.0,0.0,0.0,0.0,0.0,0.0,0.0,0.0,0.0,0.0,0.0,0.0,0.0,0.0,0.0,0.0,0.0,0.0,0.0,0.0,0.0,0.0,0.0,0.0,0.0,0.0,0.0,0.0,0.0,0.0,0.0,0.0,0.0,0.0,0.0,0.0,0.0,0.0,0.0,0.0,0.0,0.0,0.0,0.0,0.0,0.0,0.0,0.0,0.0,0.0,0.0,0.0,0.0,0.0,0.0,0.0,0.0,0.0,0.0,0.0,0.0,0.0,-2.7909,-2.6447,-2.5697,-2.6505,-2.6582,-2.6928,-2.7794,-2.7082,-2.7294,0.0,0.0,0.0,0.0,0.0,0.0,0.0,0.0,0.0,0.0,0.0,0.0,0.0,0.0,0.0,0.0,0.0,0.0,0.0,0.0,0.0,0.0,0.0,0.0,0.0,0.0,0.0,0.0,0.0,0.0,0.0,0.0,0.0,0.0,0.0,0.0,0.0,0.0,0.0,0.0,0.0,0.0,0.0,0.0,0.0,0.0,0.0,0.0,0.0,0.0,0.0,0.0,0.0,0.0,0.0,0.0,0.0,0.0,0.0,0.0,0.0,0.0,0.0,0.0,0.0,0.0,0.0,0.0,0.0,0.0,0.0,0.0,0.0,0.0,0.0,0.0,0.0,0.0,0.0,0.0,0.0,0.0,0.0,0.0,0.0,0.0,0.0,0.0,0.0,0.0,0.0,0.0,0.0,0.0,0.0,0.0,0.0,0.0,0.0,0.0,0.0,0.0,0.0,-2.7909,-2.6409,-2.5418,-2.5649,-2.5668,-2.5793,-2.6043,-2.5832,-2.6428,-2.814,0.0,0.0,0.0,0.0,0.0,0.0,0.0,0.0,0.0,0.0,0.0,0.0,0.0,0.0,0.0,0.0,0.0,0.0,0.0,0.0,0.0,0.0,0.0,0.0,0.0,0.0,0.0,0.0,0.0,0.0,0.0,0.0,0.0,0.0,0.0,0.0,0.0,0.0,0.0,0.0,0.0,0.0,0.0,0.0,0.0,0.0,0.0,0.0,0.0,0.0,0.0,0.0,0.0,0.0,0.0,0.0,0.0,0.0,0.0,0.0,0.0,0.0,0.0,0.0,0.0,0.0,0.0,0.0,0.0,0.0,0.0,0.0,0.0,0.0,0.0,0.0,0.0,0.0,0.0,0.0,0.0,0.0,0.0,0.0,0.0,0.0,0.0,0.0,0.0,0.0,0.0,0.0,0.0,0.0,0.0,0.0,0.0,0.0,0.0,0.0,0.0,0.0,-2.789,-2.639,-2.5303,-2.5303,-2.5303,-2.5303,-2.5303,-2.5303,-2.5909,-2.7294,0.0,0.0,0.0,0.0,0.0,0.0,0.0,0.0,0.0,0.0,0.0,0.0,0.0,0.0,0.0,0.0,0.0,0.0,0.0,0.0,0.0,0.0,0.0,0.0,0.0,0.0,0.0,0.0,0.0,0.0,0.0,0.0,0.0,0.0,0.0,0.0,0.0,0.0,0.0,0.0,0.0,0.0,0.0,0.0,0.0,0.0,0.0,0.0,0.0,0.0,0.0,0.0,0.0,0.0,0.0,0.0,0.0,0.0,0.0,0.0,0.0,0.0,0.0,0.0,0.0,0.0,0.0,0.0,0.0,0.0,0.0,0.0,0.0,0.0,0.0,0.0,0.0,0.0,0.0,0.0,0.0,0.0,0.0,0.0,0.0,0.0,0.0,0.0,0.0,0.0,0.0,0.0,0.0,0.0,0.0,0.0,0.0,0.0,0.0,0.0,0.0,0.0,-2.789,-2.639,-2.5303,-2.5303,-2.536,-2.5418,-2.5418,-2.5418,-2.5783,-2.6638,0.0,0.0,0.0,0.0,0.0,0.0,0.0,0.0,0.0,0.0,0.0,0.0,0.0,0.0,0.0,0.0,0.0,0.0,0.0,0.0,0.0,0.0,0.0,0.0,0.0,0.0,0.0,0.0,0.0,0.0,0.0,0.0,0.0,0.0,0.0,0.0,0.0,0.0,0.0,0.0,0.0,0.0,0.0,0.0,0.0,0.0,0.0,0.0,0.0,0.0,0.0,0.0,0.0,0.0,0.0,0.0,0.0,0.0,0.0,0.0,-2.9871,0.0,0.0,0.0,0.0,0.0,0.0,0.0,0.0,0.0,0.0,0.0,0.0,0.0,0.0,0.0,0.0,0.0,0.0,0.0,0.0,0.0,0.0,0.0,0.0,0.0,0.0,0.0,0.0,0.0,0.0,0.0,0.0,0.0,0.0,0.0,0.0,0.0,0.0,0.0,0.0,0.0,-2.789,-2.639,-2.5303,-2.5303,-2.5909,-2.6332,-2.6332,-2.6332,-2.6636,-2.7344,-2.7002,0.0,0.0,0.0,0.0,0.0,0.0,0.0,0.0,0.0,0.0,0.0,0.0,0.0,0.0,0.0,0.0,0.0,0.0,0.0,0.0,0.0,0.0,0.0,0.0,0.0,0.0,0.0,0.0,0.0,0.0,0.0,0.0,0.0,0.0,0.0,0.0,0.0,0.0,0.0,0.0,0.0,0.0,0.0,0.0,0.0,0.0,0.0,0.0,0.0,0.0,0.0,0.0,0.0,0.0,0.0,0.0,0.0,0.0,0.0,0.0,-3.0525,0.0,0.0,0.0,0.0,0.0,0.0,0.0,0.0,0.0,0.0,0.0,0.0,0.0,0.0,0.0,0.0,0.0,0.0,0.0,0.0,0.0,0.0,0.0,0.0,0.0,0.0,0.0,0.0,0.0,0.0,0.0,0.0,0.0,0.0,0.0,0.0,0.0,0.0,0.0,0.0,-2.8398,-2.6986,-2.5928,-2.5928,-2.6697,-2.7217,-2.7217,-2.6749,-2.6603,-2.695,-2.6649,0.0,0.0,0.0,0.0,0.0,0.0,0.0,0.0,0.0,0.0,0.0,0.0,0.0,0.0,0.0,0.0,0.0,0.0,0.0,0.0,0.0,0.0,0.0,0.0,0.0,0.0,0.0,0.0,0.0,0.0,0.0,0.0,0.0,0.0,0.0,0.0,0.0,0.0,0.0,0.0,0.0,0.0,0.0,0.0,0.0,0.0,0.0,0.0,0.0,0.0,0.0,0.0,0.0,-3.3314,-3.4591,-3.693,-3.693,-3.7007,-3.7007,-3.4237,-3.2275,-3.1179,-3.2564,0.0,0.0,0.0,0.0,0.0,0.0,0.0,0.0,0.0,0.0,0.0,0.0,0.0,0.0,0.0,0.0,0.0,0.0,0.0,0.0,0.0,0.0,0.0,0.0,-3.2478,-3.2691,0.0,0.0,0.0,0.0,0.0,0.0,0.0,0.0,0.0,0.0,0.0,0.0,-2.8929,-2.7629,-2.6659,-2.6813,-2.7445,-2.7857,-2.7857,-2.6854,-2.6224,-2.6198,-2.6091,-2.6062,0.0,0.0,0.0,0.0,0.0,0.0,0.0,0.0,0.0,0.0,0.0,0.0,0.0,0.0,0.0,0.0,0.0,0.0,0.0,0.0,0.0,0.0,0.0,0.0,0.0,0.0,0.0,0.0,0.0,0.0,0.0,0.0,-2.789,-2.789,0.0,0.0,0.0,0.0,0.0,0.0,0.0,0.0,0.0,0.0,0.0,0.0,0.0,-3.2497,-3.3083,-3.4108,-3.5139,-3.6171,-3.6171,-3.6748,-3.7834,-3.7834,-3.8238,-3.8931,-3.8488,0.0,-3.3718,-3.393,0.0,0.0,0.0,0.0,0.0,0.0,0.0,0.0,0.0,0.0,0.0,0.0,0.0,0.0,0.0,0.0,0.0,0.0,0.0,0.0,0.0,0.0,-3.1758,-3.3198,-3.3595,-3.3605,0.0,-3.3136,-3.2449,-3.128,-3.1072,0.0,0.0,0.0,0.0,0.0,0.0,0.0,-2.8821,-2.7532,-2.689,-2.764,-2.7692,-2.7644,-2.7644,-2.6664,-2.5963,-2.5785,-2.5288,-2.5518,-2.6728,-2.7116,0.0,0.0,0.0,0.0,0.0,0.0,0.0,0.0,0.0,0.0,0.0,0.0,0.0,0.0,0.0,0.0,0.0,0.0,0.0,0.0,0.0,0.0,0.0,0.0,0.0,0.0,0.0,0.0,0.0,-2.9006,-2.9121,-2.8621,-2.9313,-2.9833,0.0,0.0,0.0,0.0,0.0,0.0,0.0,0.0,0.0,-3.2955,-3.3868,-3.4697,-3.5411,-3.5926,-3.7065,-3.8834,-3.8834,-3.9796,-4.1546,-4.1546,-4.2008,-4.2835,-4.2835,-4.145,-3.9084,-3.7661,-3.6257,-3.4993,0.0,0.0,0.0,0.0,-3.3571,-3.3595,-3.3345,-3.3792,0.0,-3.4231,0.0,0.0,0.0,0.0,0.0,0.0,0.0,0.0,0.0,0.0,-3.4321,-3.5037,-3.555,-3.5862,-3.5862,-3.5699,-3.4929,0.0,-3.2642,-3.2751,-3.2751,0.0,0.0,0.0,0.0,-2.8435,-2.8597,-2.8027,-2.7766,-2.8127,-2.8544,-2.8783,-2.8783,-2.7796,-2.7136,-2.7046,-2.6372,-2.6207,-2.6725,-2.7471,-2.8071,0.0,0.0,0.0,0.0,0.0,0.0,0.0,0.0,0.0,0.0,0.0,0.0,0.0,0.0,0.0,0.0,0.0,0.0,0.0,0.0,0.0,0.0,0.0,0.0,0.0,0.0,0.0,0.0,-2.966,-2.9756,-2.889,-2.9948,-3.066,0.0,0.0,0.0,0.0,0.0,0.0,-3.3506,-3.4584,-3.5468,-3.6122,-3.6565,-3.718,-3.8007,-3.8238,-3.9392,-4.147,-4.147,-4.2701,-4.4951,-4.472,-4.522,-4.622,-4.6009,-4.5336,-4.4143,-4.1162,-3.9046,-3.7647,-3.7274,-3.6708,-3.6099,-3.6308,-3.6571,-3.6848,-3.6712,-3.7349,-3.8022,-3.6897,0.0,-3.7488,-3.5634,0.0,0.0,0.0,0.0,-3.5697,-3.5871,-3.6431,-3.6964,-3.7165,-3.7679,-3.8046,-3.7845,-3.7808,-3.7055,0.0,-3.4275,-3.4358,-3.4136,0.0,0.0,0.0,0.0,-2.8725,-2.8723,-2.8548,-2.8489,-2.8716,-2.9059,-2.9286,-2.9286,-2.8315,-2.7733,-2.7733,-2.7137,-2.6834,-2.6888,-2.7773,-2.8202,-2.8099,0.0,0.0,0.0,0.0,0.0,0.0,0.0,0.0,0.0,0.0,0.0,0.0,0.0,0.0,0.0,0.0,0.0,0.0,0.0,0.0,0.0,0.0,0.0,0.0,0.0,0.0,0.0,0.0,0.0,-2.8063,-3.0121,0.0,0.0,0.0,0.0,-3.393,-3.4776,-3.5282,-3.5372,-3.693,-3.7834,-3.7873,-3.9411,-4.0662,-4.1546,-4.2354,-4.322,-4.4105,-4.4105,-4.5047,-4.674,-4.5913,-4.6432,-4.7932,-4.7182,-4.7221,-4.7528,-4.3393,-4.1123,-4.0219,-3.9469,-3.9438,-3.9738,-3.8994,-3.8575,-3.825,-3.7159,-3.6851,-3.7205,-3.9091,-4.0226,-4.0561,-3.8946,-3.845,0.0,0.0,-3.7349,-3.7533,-3.8322,-3.856,-3.8781,-3.9533,-3.9735,-3.957,-3.8799,-3.8634,-3.7918,0.0,-3.4945,-3.4706,-3.3944,0.0,-3.3136,-3.1654,-3.0831,-3.0132,-2.9431,-2.8801,-2.8716,-2.9545,-2.8764,-2.8184,-2.8184,-2.7259,-2.6688,-2.6688,-2.6652,-2.6943,-2.7714,-2.7791,-2.8176,-2.892,-2.9249,0.0,0.0,0.0,0.0,0.0,0.0,0.0,0.0,0.0,0.0,0.0,0.0,0.0,0.0,0.0,0.0,0.0,0.0,0.0,0.0,0.0,0.0,0.0,0.0,0.0,0.0,0.0,0.0,-3.1852,-3.3718,0.0,-3.5276,-3.5315,-3.5718,-3.6584,-3.693,-3.7584,-3.8661,-3.9815,-4.095,-4.2027,-4.2624,-4.3355,-4.4239,-4.5105,-4.5413,-4.5143,-4.622,-4.6797,-4.6913,-4.7105,-4.7528,-4.8086,-4.7798,-4.7836,-4.799,-4.649,-4.5047,-4.3701,-4.2854,-4.2197,-4.1666,-4.138,-4.1407,-4.1515,-4.1111,-4.117,-4.1361,-4.0848,-4.0175,-3.946,-3.8872,-3.8707,-3.8744,-3.8964,-3.9038,-3.9221,-4.0047,-4.0249,-4.0194,-3.9955,-3.99,-3.968,-3.8872,-3.8707,-3.845,-3.7569,-3.6541,-3.5752,-3.5459,-3.4082,-3.2834,-3.2265,-3.155,-3.0609,-2.93,-2.9388,-2.9471,-2.9289,-2.8926,-2.8676,-2.8676,-2.8346,-2.8132,-2.8132,-2.8132,-2.8282,-2.8576,-2.8576,-2.8723,-2.8975,-2.9089,-2.9181,0.0,0.0,0.0,0.0,0.0,0.0,0.0,0.0,0.0,0.0,0.0,0.0,0.0,0.0,0.0,0.0,0.0,0.0,0.0,0.0,0.0,0.0,0.0,0.0,0.0,0.0,-3.3487,-3.4872,-3.6776,-3.8104,-3.8411,-3.8161,-3.8469,-3.9623,-3.9969,-4.0873,-4.2566,-4.347,-4.4432,-4.5547,-4.5586,-4.5855,-4.6432,-4.7028,-4.7009,-4.6451,-4.7567,-4.7971,-4.7759,-4.799,-4.8413,-4.8952,-4.8663,-4.8702,-4.8971,-4.8971,-4.8144,-4.6778,-4.5783,-4.4939,-4.4238,-4.4129,-4.4264,-4.4504,-4.424,-4.4156,-4.3978,-4.2716,-4.1549,-4.0677,-4.0547,-4.0486,-4.0585,-4.1011,-4.1111,-4.124,-4.1772,-4.1919,-4.1717,-4.0891,-4.0708,-4.0487,-3.968,-3.9515,-3.9515,-3.9515,-3.8212,-3.7019,-3.6743,-3.511,-3.3752,-3.3431,-3.2504,-3.1421,-3.0356,-3.0448,-3.0301,-2.9494,-2.9402,-2.9287,-2.9012,-2.9255,-2.9287,-2.9012,-2.9255,-2.9292,-2.8994,-2.8994,-2.8994,-2.8994,-2.9089,-2.9354,-2.9785,0.0,0.0,0.0,0.0,0.0,0.0,0.0,0.0,0.0,0.0,0.0,0.0,0.0,0.0,0.0,0.0,0.0,0.0,0.0,0.0,0.0,0.0,0.0,-3.1814,-3.4007,-3.593,-3.6757,-3.9084,-4.0315,-3.9565,-4.0219,-4.1393,-4.3085,-4.3951,-4.5163,-4.6855,-4.7682,-4.8105,-4.8144,-4.8105,-4.8105,-4.8144,-4.8144,-4.8125,-4.8105,-4.8163,-4.8606,-4.9375,-4.8548,-4.9106,-5.0644,-4.9798,-4.9913,-5.0702,-5.0702,-5.0202,-4.9317,-4.8051,-4.7533,-4.7467,-4.714,-4.7005,-4.6873,-4.6043,-4.5259,-4.4606,-4.4606,-4.458,-4.4527,-4.4146,-4.4016,-4.3924,-4.3612,-4.3513,-4.3513,-4.3513,-4.3548,-4.3311,-4.2522,-4.2338,-4.2084,-4.1295,-4.1111,-4.1111,-4.1075,-3.9808,-3.8487,-3.7698,-3.689,-3.6046,-3.5192,-3.3725,0.0,-3.2651,-3.1953,-3.1164,-3.0356,-3.0283,-2.9953,-2.9122,-2.9787,-2.9879,-2.9049,-2.9732,-2.9824,-2.9012,-2.9017,-2.9017,-2.9021,-2.9289,-2.9805,-3.0611,0.0,0.0,0.0,0.0,0.0,0.0,0.0,0.0,0.0,0.0,0.0,0.0,0.0,0.0,0.0,0.0,0.0,0.0,0.0,0.0,0.0,0.0,-3.4468,-3.4468,-3.6642,-3.8796,-4.0239,-4.2085,-4.3412,-4.3816,-4.4643,-4.5336,-4.5817,-4.6605,-4.7259,-4.774,-4.799,-4.8394,-4.9029,-4.8432,-4.8394,-4.9048,-4.9048,-4.8721,-4.8125,-4.9375,-4.9779,-4.9413,-4.9798,-5.024,-5.0683,-5.0452,-5.0471,-5.0702,-5.0702,-5.0548,-5.024,-4.9259,-4.8489,-4.7933,-4.7832,-4.7427,-4.6774,-4.5658,-4.5152,-4.4919,-4.4682,-4.458,-4.458,-4.4474,-4.4233,-4.4028,-4.4252,-4.4076,-4.3943,-4.4223,-4.428,-4.4017,-4.2932,-4.2656,-4.236,-4.1342,-4.1111,-4.0946,-4.0341,-3.9863,-3.9496,-3.9276,-3.8083,-3.7074,-3.6835,-3.5936,0.0,-3.3642,-3.3275,-3.2834,-3.2045,-3.1953,-3.1623,-3.0815,-3.0944,-3.0485,-2.9085,-2.9195,-2.9214,-2.8994,-2.92,-2.9373,-2.9495,-2.957,-3.0039,0.0,0.0,0.0,0.0,0.0,0.0,0.0,0.0,0.0,0.0,0.0,0.0,0.0,0.0,0.0,0.0,0.0,0.0,0.0,0.0,0.0,0.0,-3.6488,-3.7969,-3.9046,-3.9854,-4.0969,-4.2643,-4.4028,-4.5182,-4.6067,-4.6605,-4.7201,-4.7894,-4.8375,-4.8952,-4.9663,-4.9375,-4.974,-5.0952,-5.0144,-4.9952,-5.0452,-5.0452,-5.0029,-4.9202,-5.0567,-5.076,-4.9971,-5.0818,-5.101,0.0,-5.0702,-5.0702,-5.0702,-5.0702,-5.0702,0.0,0.0,0.0,0.0,0.0,-4.8034,-4.7066,-4.6342,-4.5753,-4.5282,-4.5096,-4.5011,-4.4988,-4.4849,-4.4657,-4.4482,-4.458,-4.4447,-4.4308,-4.4527,-4.458,-4.444,-4.3717,-4.3549,-4.3362,-4.2701,-4.2567,-4.2419,-4.1965,-4.1574,0.0,-4.0876,-3.8966,-3.7606,-3.7936,-3.7019,-3.6064,-3.5422,-3.4743,-3.4044,-3.3352,-3.2964,-3.2501,-3.1808,-3.1753,0.0,0.0,0.0,-2.9646,-2.9312,-2.9772,0.0,0.0,0.0,-3.1153,-3.1663,0.0,0.0,0.0,-3.2286,-3.1371,0.0,0.0,0.0,0.0,0.0,0.0,0.0,0.0,0.0,0.0,0.0,0.0,0.0,0.0,0.0,0.0,-3.9892,-4.1816,-4.4374,-4.3451,-4.3066,-4.4547,-4.5413,-4.6182,-4.6971,-4.7124,-4.7798,-4.9279,-4.949,-5.024,-5.1837,0.0,0.0,0.0,0.0,-5.2106,-5.2202,-5.2106,-5.1645,-5.0837,-5.1664,-5.1625,-5.0856,-5.1568,-5.151,-5.0818,-5.0741,-5.0702,-5.0702,-5.0702,-5.0702,-5.0663,-5.0313,-5.0159,-5.0097,-4.9565,-4.8593,-4.7541,-4.735,0.0,0.0,-4.5586,-4.5586,-4.5531,-4.5243,-4.5118,-4.5052,-4.48,-4.4701,-4.4676,-4.4707,-4.4707,-4.4707,-4.4676,-4.4676,-4.465,-4.4624,-4.458,-4.4587,-4.4473,-4.3832,-4.3039,-4.224,-3.9768,-3.8085,-3.873,-3.7606,-3.6905,-3.7514,-3.6242,-3.5095,-3.4708,0.0,0.0,-3.2676,-3.2525,-3.2109,-3.1202,-3.1091,-3.0751,-3.005,-3.0767,-3.1181,-3.1216,-3.2156,-3.2688,-3.2783,-3.296,-3.3045,-3.3026,-3.1962,-3.1153,0.0,0.0,0.0,0.0,0.0,0.0,0.0,0.0,0.0,0.0,0.0,0.0,0.0,0.0,0.0,-4.1527,-4.2931,-4.4451,-4.7009,-4.7086,-4.7009,-4.7336,-4.7509,-4.7682,-4.7855,-4.8509,-4.9048,-4.9375,-5.0048,-5.0875,-5.1856,-5.176,-5.2472,-5.4184,-5.3395,-5.3299,-5.3991,-5.3299,-5.2529,-5.1683,0.0,0.0,-5.1683,-5.1837,-5.1818,-5.1625,-5.0971,-5.0702,-5.0702,-5.0702,-5.0702,-5.0683,-5.0604,-5.0565,-5.0392,-4.8929,-4.82,-4.7799,-4.6436,-4.5819,-4.5586,-4.5586,-4.5586,-4.5586,-4.5513,-4.5322,0.0,-4.5342,-4.5222,-4.5074,-4.5342,-4.5419,-4.5342,-4.5074,-4.4988,-4.4919,-4.4657,-4.458,-4.4398,-4.37,-4.3416,-4.3039,-4.2227,-4.1054,-4.0077,-3.9526,-3.9169,-3.8775,-3.8286,-3.7328,-3.6919,-3.7533,-3.623,-3.5292,-3.5186,-3.4601,-3.3582,-3.2071,-3.1958,-3.1991,-3.2045,-3.2194,-3.2367,-3.253,-3.273,-3.3198,-3.389,-3.3936,-3.3949,-3.393,-3.3019,-3.2193,0.0,0.0,0.0,0.0,0.0,0.0,0.0,0.0,0.0,0.0,0.0,-3.6622,0.0,0.0,-4.1027,-4.4451,-4.5682,-4.6797,-4.8509,-4.9125,-4.9086,-4.8202,-4.8105,-4.8279,-4.8702,-4.9144,-4.9586,-5.001,-5.0837,-5.1664,-5.251,-5.2549,-5.3337,-5.5049,-5.4299,-5.4068,-5.4491,-5.4068,-5.3414,-5.2568,-5.3433,-5.3395,-5.2549,-5.2549,-5.2318,-5.1875,-5.1048,-5.0702,-5.0702,-5.0702,-5.0702,-5.0702,-5.0702,-5.0702,-5.0587,-4.9721,-4.9125,-4.8625,-4.7778,-4.6951,-4.624,-4.624,-4.624,-4.6163,-4.572,-4.5802,-4.5937,-4.5666,-4.5476,-4.54,-4.5568,-4.5586,-4.5568,-4.54,-4.5342,-4.5283,-4.514,-4.5096,-4.4985,-4.4546,-4.445,-4.4183,-4.3344,-4.2867,-4.2193,-4.1028,-4.0509,-4.0113,-3.9698,-3.8546,-3.7967,-3.8529,-3.7108,-3.616,-3.6287,-3.5162,-3.3903,-3.2622,-3.2562,-3.2611,-3.2752,-3.3173,-3.3445,-3.3545,-3.3987,-3.4199,-3.4199,-3.4199,-3.3968,-3.3545,-3.3103,-3.2679,0.0,0.0,0.0,0.0,0.0,0.0,0.0,0.0,-3.6622,-3.7911,-3.8738,-3.9892,-4.2124,-4.2797,-4.4047,-4.7144,-4.8317,-4.9144,-5.0029,-5.0606,-5.0414,-4.9009,-4.8836,-4.9048,-4.9606,-4.9952,-5.0356,-5.0894,-5.1702,-5.2529,-5.3414,-5.3453,-5.4145,-5.5645,-5.5068,-5.4722,-5.4722,-5.4722,-5.4299,-5.3453,-5.4318,-5.428,-5.3453,-5.328,-5.2818,-5.2106,-5.1125,-5.0702,-5.0702,-5.0702,-5.0702,-5.0702,-5.0702,-5.0702,-5.0664,-5.051,-4.999,-4.9375,-4.9202,-4.8259,-4.7105,-4.6951,-4.6913,-4.674,-4.5855,-4.6086,-4.6509,-4.5797,-4.5586,-4.5586,-4.5586,-4.5586,-4.5586,-4.5586,-4.5586,-4.5586,-4.5586,-4.5586,-4.5586,-4.5586,-4.5586,-4.5374,-4.4662,-4.4547,-4.4038,-4.2503,-4.1734,-4.126,-4.1089,-3.9743,-3.8896,-3.9108,-3.7483,-3.6383,-3.6454,-3.5238,-3.4141,-3.3449,-3.341,-3.341,-3.341,-3.4083,-3.4449,-3.4449,-3.5141,-3.5161,-3.4449,-3.4449,-3.4083,-3.341,-3.341,-3.3218,-3.4011,-3.3527,-3.3449,-3.4581,-3.4505,-3.5498,0.0,0.0,-3.9738,-4.2816,-4.3528,-4.3912,-4.497,-4.6394,-4.8029,-4.9952,-5.0952,-5.1779,-5.2645,-5.2202,-5.1702,-5.151,-5.1471,-5.1241,-5.0606,-5.1895,-5.2491,-5.1818,-5.2568,-5.3433,-5.4318,-5.4357,-5.4761,-5.5665,-5.5607,-5.5568,-5.5568,-5.5568,-5.5164,-5.4357,-5.5184,-5.5145,-5.4337,-5.3549,-5.3145,-5.2972,-5.1395,-5.0702,-5.0702,-5.0702,-5.0702,-5.0702,-5.0702,-5.0702,-5.0606,-4.9817,-4.9471,-4.9298,-4.8509,-4.8125,-4.7855,-4.7144,-4.6913,-4.674,-4.5855,-4.5663,-4.572,-4.5624,-4.5586,-4.5586,-4.5586,-4.5586,-4.5586,-4.5586,-4.5586,-4.5586,-4.5586,-4.5586,-4.5586,-4.5586,-4.5586,-4.5566,-4.547,-4.5451,-4.4876,-4.3229,-4.2921,-4.2576,-4.179,-4.0866,-4.0287,-4.0303,-3.8131,-3.6383,-3.5685,-3.5468,-3.5315,-3.5218,-3.5218,-3.5218,-3.5218,-3.5315,-3.5353,-3.5353,-3.5449,-3.5449,-3.5353,-3.5353,-3.5315,-3.5218,-3.5218,-3.4391,-3.6973,-3.6125,0.0,0.0,-3.8762,-4.0977,-4.3371,-4.4237,-4.5064,-4.6894,-4.7663,-4.8279,-4.9106,-4.9837,-5.0721,0.0,-5.2433,-5.2779,-5.3145,-5.2452,-5.1741,-5.126,-5.1202,-5.1068,-5.0721,-5.176,-5.2299,-5.1933,-5.3183,-5.4126,-5.4472,-5.4934,-5.5338,-5.5684,-5.5703,-5.5703,-5.5703,-5.5703,-5.553,-5.5203,-5.553,-5.5511,-5.5164,-5.4337,-5.3395,-5.2395,-5.1202,-5.0702,-5.0702,-5.0702,-5.0702,-5.0702,-5.0702,-5.0702,-5.0644,-5.0279,-5.0164,-5.0087,-4.974,-4.9279,-4.8798,-4.8452,-4.8355,-4.8182,-4.7317,-4.7413,-4.7702,-4.7201,-4.6721,-4.6355,-4.6355,-4.597,-4.5586,-4.5586,-4.5586,-4.5586,-4.5586,-4.5586,-4.5586,-4.5586,-4.5586,-4.5586,-4.5586,-4.5586,-4.5355,-4.4662,-4.4124,-4.3662,-4.3297,-4.2085,-4.0873,-3.9912,-3.8392,-3.7123,-3.6276,-3.5776,-3.5493,-3.5493,-3.5493,-3.5493,-3.5493,-3.5493,-3.5493,-3.5493,-3.5493,-3.5493,-3.5493,-3.5493,-3.5493,-3.5493,-3.5493,-3.5122,-3.7949,0.0,0.0,-3.937,-4.263,-4.56,-4.6181,-4.7899,-4.9567,-5.0337,-5.0971,-5.1568,-5.2164,-5.2472,-5.2818,-5.3453,-5.3741,-5.3895,-5.3895,-5.2741,-5.1683,-5.1106,-5.0414,-4.9971,-4.9971,-5.1144,-5.1914,-5.1914,-5.351,-5.4491,-5.4491,-5.5261,-5.5703,-5.5703,-5.5703,-5.5703,-5.5703,-5.5703,-5.5703,-5.5703,-5.5703,-5.5703,-5.5665,-5.4876,-5.3683,-5.2222,-5.1395,-5.1029,-5.101,-5.0779,-5.0702,-5.0702,-5.0702,-5.0702,-5.0702,-5.0702,-5.0702,-5.0702,-5.0702,-5.0279,-4.9721,-4.9471,-4.9394,-4.924,-4.8355,-4.8548,-4.8913,-4.8279,-4.7682,-4.7182,-4.6971,-4.6432,-4.5893,-4.5663,-4.5586,-4.5586,-4.5586,-4.5586,-4.5586,-4.5586,-4.5586,-4.5586,-4.5586,-4.5586,-4.5586,-4.5586,-4.5047,-4.4566,-4.4335,-4.2835,-4.1239,-3.9777,-3.8873,-3.7911,-3.6796,-3.618,-3.5738,-3.5512,-3.5493,-3.5493,-3.5493,-3.5493,-3.5493,-3.5493,-3.5493,-3.5493,-3.5493,-3.5493,-3.5493,-3.5493,-3.5493,-3.5493,0.0,0.0,-3.9336,-4.2617,-4.539,-4.7942,-5.0348,-5.146,-5.2241,-5.3086,-5.3203,-5.3126,-5.3164,-5.3857,-5.4434,-5.4453,-5.5126,-5.5626,-5.5626,-5.3472,-5.1895,-5.1875,-4.9683,-4.8182,0.0,-5.0452,-5.1914,-5.1914,-5.351,-5.4491,-5.4491,-5.5261,-5.5703,-5.5703,-5.5703,-5.5703,-5.5703,-5.5703,-5.5703,-5.5703,-5.5703,-5.5703,-5.5665,-5.4876,-5.401,-5.3106,-5.2241,-5.1875,-5.1798,-5.101,-5.0702,-5.0702,-5.0702,-5.0702,-5.0702,-5.0702,-5.0702,-5.0702,-5.0702,-5.0664,-5.051,-4.9663,-4.9394,-4.924,-4.8355,-4.8125,-4.8125,-4.8105,-4.8086,-4.7875,-4.7105,-4.6894,-4.6644,-4.5797,-4.5586,-4.5586,-4.5586,-4.5586,-4.5586,-4.5586,-4.5586,-4.5586,-4.5586,-4.5586,-4.5586,-4.5586,-4.5566,-4.5259,-4.4412,-4.2835,-4.147,-4.0546,-3.9738,-3.8565,-3.6853,-3.668,-3.6334,-3.5565,-3.5493,-3.5493,-3.5493,-3.5493,-3.5493,-3.5493,-3.5493,-3.5493,-3.5493,-3.5493,-3.5493,-3.5493,-3.5493,-3.5493,0.0,0.0,-4.3672,-4.7129,-4.9883,-5.2128,-5.3447,-5.4391,-5.485,-5.4477,-5.3449,-5.2427,-5.1851,-5.1467,-5.1411,-5.1968,-5.3182,-5.4049,-5.4049,-5.3799,-5.2779,-5.051,-4.9471,0.0,0.0,0.0,0.0,-5.1875,-5.351,-5.4722,-5.5261,-5.5549,-5.5703,-5.5703,-5.5703,-5.5703,-5.5703,-5.5703,-5.5703,-5.5703,-5.5703,-5.5703,-5.5665,-5.4876,-5.4337,-5.401,-5.3145,-5.276,-5.2702,-5.1856,-5.151,-5.1433,-5.0914,-5.0702,-5.0702,-5.0702,-5.0702,-5.0702,-5.0702,-5.0702,-5.0644,-5.0356,-5.026,-5.0202,-4.9913,-4.9817,-4.9817,-4.9817,-4.9413,-4.8894,-4.8625,-4.774,-4.6836,-4.6528,-4.6009,-4.5586,-4.5586,-4.5586,-4.5586,-4.5586,-4.5586,-4.5586,-4.5586,-4.5586,-4.5586,-4.5586,-4.5586,-4.5278,-4.4412,-4.3335,-4.2335,-4.147,-4.0123,-3.9065,-3.8469,-3.7353,-3.6584,-3.6315,-3.5815,-3.5493,-3.5493,-3.5493,-3.5493,-3.5493,-3.5493,-3.5493,-3.5493,-3.5493,-3.5493,-3.5493,-3.5493,-3.5493,-4.1465,-4.4433,-4.7226,-5.0683,-5.3027,-5.4668,-5.5469,-5.5781,-5.5573,-5.4296,-5.2605,-5.1024,-4.9869,-4.8634,-4.8176,-4.926,-5.0297,-5.1374,-5.2587,-5.2702,-5.2202,-5.0914,-4.9952,-4.9183,0.0,0.0,0.0,-5.1433,-5.3356,-5.4587,-5.4799,-5.5376,-5.5703,-5.5703,-5.5703,-5.5703,-5.5703,-5.5703,-5.5703,-5.5703,-5.5703,-5.5703,-5.5684,-5.5164,-5.4934,-5.4876,-5.403,-5.3491,-5.3126,-5.226,-5.1741,-5.1414,-5.0894,-5.0702,-5.0702,-5.0702,-5.0702,-5.0702,-5.0702,-5.0702,-5.0702,-5.0702,-5.0702,-5.0702,-5.0702,-5.0702,-5.0702,-5.0702,-5.0298,-4.9779,-4.9471,-4.8375,-4.7259,-4.6971,-4.622,-4.5586,-4.5586,-4.5586,-4.5586,-4.5586,-4.5586,-4.5586,-4.5586,-4.5586,-4.5586,-4.5586,-4.5586,-4.5393,-4.4836,-4.4047,-4.3201,-4.2354,-4.1027,-3.995,-3.9354,-3.8277,-3.7353,-3.6738,-3.6219,-3.5815,-3.5512,-3.5493,-3.5493,-3.5493,-3.5493,-3.5493,-3.5493,-3.5493,-3.5493,-3.5493,-3.5493,-3.5493,-4.4394,-4.7207,-4.9961,-5.3301,-5.4746,-5.5566,-5.6367,-5.5723,-5.4473,-5.2676,-5.0723,-4.8798,0.0,0.0,-4.494,-4.6571,-4.701,-4.8241,-5.1452,-5.0606,-5.0529,0.0,0.0,0.0,0.0,0.0,0.0,-5.0818,0.0,-5.4107,-5.3376,-5.4838,-5.5703,-5.5703,-5.5703,-5.5703,-5.5703,-5.5703,-5.5703,-5.5703,-5.5703,-5.5703,-5.5703,-5.5703,-5.5703,-5.5665,-5.4895,-5.4068,-5.3203,-5.2337,-5.1491,-5.076,-5.0721,-5.0702,-5.0702,-5.0702,-5.0702,-5.0702,-5.0702,-5.0702,-5.0702,-5.0702,-5.0702,-5.0702,-5.0702,-5.0702,-5.0702,-5.0702,-5.0702,-5.051,-4.9683,-4.8817,-4.7971,-4.7163,-4.6297,-4.5643,-4.5605,-4.5586,-4.5586,-4.5586,-4.5586,-4.5586,-4.5586,-4.5586,-4.5586,-4.5586,-4.5586,-4.5586,-4.5586,-4.4836,-4.3989,-4.3181,-4.2316,-4.1143,-3.9488,-3.9315,-3.8584,-3.6949,-3.6757,-3.6372,-3.5589,-3.5512,-3.5493,-3.5493,-3.5493,-3.5493,-3.5493,-3.5493,-3.5493,-3.5493,-3.5493,-3.5493,-4.8652,-5.1191,-5.3223,-5.539,-5.6094,-5.6152,-5.5723,-5.4433,-5.2656,-5.0293,-4.685,-4.3752,0.0,0.0,0.0,-4.4114,-4.6957,0.0,-5.1761,-5.2723,0.0,0.0,0.0,-5.1991,-5.1337,-5.2049,0.0,0.0,-5.3164,-5.3972,-5.5011,-5.5472,-5.5703,-5.5703,-5.5703,-5.5703,-5.5703,-5.5703,-5.5703,-5.5703,-5.5703,-5.5703,-5.5703,-5.5703,-5.5703,-5.5684,-5.5472,-5.4934,-5.4107,-5.3241,-5.2375,-5.1529,-5.0933,-5.0702,-5.0702,-5.0702,-5.0702,-5.0702,-5.0702,-5.0702,-5.0702,-5.0702,-5.0702,-5.0702,-5.0702,-5.0702,-5.0702,-5.0702,-5.0702,-5.0644,-5.0433,-4.9721,-4.8856,-4.8009,-4.7182,-4.6394,-4.574,-4.5586,-4.5586,-4.5586,-4.5586,-4.5586,-4.5586,-4.5586,-4.5586,-4.5586,-4.5586,-4.5586,-4.5586,-4.4836,-4.3989,-4.3181,-4.2316,-4.1354,-4.0277,-3.9642,-3.9104,-3.8661,-3.743,-3.6622,-3.6411,-3.5834,-3.5493,-3.5493,-3.5493,-3.5493,-3.5493,-3.5493,-3.5493,-3.5493,-3.5493,-3.5493,-5.2246,-5.4668,-5.6426,-5.7012,-5.6875,-5.6074,-5.4043,-5.2266,-4.998,-4.6289,-4.2969,0.0,0.0,0.0,0.0,0.0,0.0,0.0,-5.0623,-5.2106,-5.3067,0.0,-5.3683,0.0,-5.3087,-5.3799,-5.4299,0.0,-5.4299,-5.4549,-5.5145,-5.5511,-5.5703,-5.5703,-5.5703,-5.5703,-5.5703,-5.5703,-5.5703,-5.5703,-5.5703,-5.5703,-5.5703,-5.5703,-5.5703,-5.5703,0.0,-5.5241,-5.4434,-5.3568,-5.2702,-5.1818,-5.101,-5.0702,-5.0702,-5.0702,-5.0702,-5.0702,-5.0702,-5.0702,-5.0702,-5.0702,-5.0702,-5.0702,-5.0702,-5.0702,-5.0702,-5.0702,-5.0702,-5.0702,-5.0702,-5.0048,-4.9183,-4.8317,-4.749,-4.6663,-4.5778,-4.5586,-4.5586,-4.5586,-4.5586,-4.5586,-4.5586,-4.5586,-4.5586,-4.5586,-4.5586,-4.5586,-4.5586,-4.5163,-4.4412,-4.3239,-4.2662,-4.1854,-4.0604,-4.0085,-3.9508,-3.8777,-3.7815,-3.6949,-3.6199,-3.5738,-3.5493,-3.5493,-3.5493,-3.568,-3.6045,-3.568,-3.568,-3.6026,-3.5661,-3.5493,-5.5312,-5.7461,-5.8984,-5.8125,-5.7168,-5.5488,-5.1894,-4.959,-4.6777,-4.1719,0.0,-3.7187,-3.4805,0.0,-3.6445,-3.8301,0.0,-4.5043,-4.9219,-5.0528,-5.2162,-5.5222,-5.503,-5.4664,-5.4664,-5.528,-5.5703,-5.5703,-5.5799,-5.5568,-5.4876,-5.5376,-5.5703,-5.5703,-5.5703,-5.5703,-5.5703,-5.5703,-5.5703,-5.5703,-5.5703,-5.5703,-5.5703,-5.5703,-5.5703,-5.5703,-5.5703,0.0,-5.4434,-5.3683,-5.2799,-5.1837,-5.1125,-5.0779,-5.0702,-5.0702,-5.0702,-5.0702,-5.0702,-5.0702,-5.0702,-5.0702,-5.0702,-5.0702,-5.0702,-5.0702,-5.0702,-5.0702,-5.0702,-5.0702,-5.0702,-5.0144,-4.9317,-4.8336,-4.7567,-4.6797,-4.5797,-4.5586,-4.5586,-4.5586,-4.5586,-4.5586,-4.5586,-4.5586,-4.5586,-4.5586,-4.5586,-4.5586,-4.5586,-4.549,-4.4816,-4.3278,-4.3008,-4.2277,-4.0642,-4.0489,-3.9873,-3.8411,-3.8123,-3.7353,-3.5892,-3.5622,-3.5493,-3.5493,-3.5603,-3.6007,-3.6699,-3.6122,-3.6142,-3.668,-3.5988,-3.5603,-5.7851,-5.8848,-5.8984,-5.8125,-5.6699,-5.4433,-5.0273,-4.6875,0.0,0.0,0.0,-3.3965,-3.2832,-3.3887,0.0,-3.9121,0.0,0.0,0.0,0.0,-5.2642,0.0,0.0,0.0,0.0,0.0,0.0,0.0,0.0,-5.6703,-5.6569,-5.6011,-5.5703,-5.5703,-5.5703,-5.5703,-5.5703,-5.5703,-5.5703,-5.5703,-5.5703,-5.5703,-5.5703,-5.5703,-5.5703,-5.5703,-5.5703,0.0,-5.4491,-5.4337,-5.3337,-5.1895,-5.176,-5.1298,-5.0702,-5.0702,-5.0702,-5.0702,-5.0702,-5.0702,-5.0702,-5.0702,-5.0702,-5.0702,-5.0702,-5.0702,-5.0702,-5.0702,-5.0702,-5.0702,-5.0702,-5.0587,-5.0067,-4.849,-4.799,-4.7471,-4.5932,-4.5586,-4.5586,-4.5586,-4.5586,-4.5586,-4.5586,-4.5586,-4.5586,-4.5586,-4.5586,-4.5586,-4.5586,-4.497,-4.4162,-4.3201,-4.247,-4.1604,-4.0585,-4.0489,-4.0373,-4.0065,-3.8777,-3.7873,-3.7584,-3.6238,-3.5493,-3.5493,-3.6161,-3.6565,-3.6699,-3.7276,-3.7276,-3.6699,-3.6565,-3.6142,-5.873,-5.9844,-6.0195,-5.8906,-5.6914,-5.3828,-4.8164,0.0,0.0,0.0,0.0,-3.2519,-3.168,0.0,0.0,0.0,0.0,0.0,0.0,0.0,0.0,0.0,0.0,0.0,0.0,0.0,0.0,0.0,0.0,-5.6799,-5.6338,-5.5934,-5.5703,-5.5703,-5.5703,-5.5703,-5.5703,-5.5703,-5.5703,-5.5703,-5.5703,-5.5703,-5.5703,-5.5703,-5.5703,-5.5684,-5.5261,0.0,-5.4434,-5.353,-5.2664,-5.1875,-5.1433,-5.1029,-5.0741,-5.1164,-5.1048,-5.076,-5.1183,-5.1048,-5.0702,-5.0702,-5.0702,-5.0702,-5.0702,-5.0702,-5.0702,-5.0702,-5.0702,-5.0702,-5.0702,-5.0702,-5.0356,-4.9086,-4.8105,-4.7124,-4.5855,-4.5586,-4.5586,-4.5586,-4.5586,-4.5586,-4.5586,-4.5586,-4.5586,-4.5586,-4.5586,-4.5586,-4.5586,-4.4836,-4.3989,-4.3181,-4.2739,-4.1931,-4.0604,-4.0489,-4.0315,-3.9892,-3.87,-3.7796,-3.7334,-3.6161,-3.5699,-3.6122,-3.6507,-3.7161,-3.8046,-3.7565,-3.7565,-3.8027,-3.6699,-3.6103,-5.8672,-6.0156,-6.0976,-5.9101,-5.6543,-5.2695,-4.5976,-4.2187,0.0,0.0,-3.1641,-3.1426,-3.0742,0.0,0.0,0.0,0.0,0.0,0.0,0.0,0.0,0.0,0.0,0.0,0.0,0.0,0.0,0.0,0.0,0.0,-5.5742,-5.5703,-5.5703,-5.5703,-5.5703,-5.5703,-5.5703,-5.5703,-5.5703,-5.5703,-5.5703,-5.5703,-5.5703,-5.5703,-5.5607,-5.5415,-5.4761,0.0,0.0,-5.2741,-5.2087,-5.1856,-5.1202,-5.0837,-5.0779,-5.1414,-5.1241,-5.0818,-5.1625,-5.1375,-5.0721,-5.0894,-5.0837,-5.0702,-5.0702,-5.0702,-5.0702,-5.0702,-5.0702,-5.0702,-5.0702,-5.0702,-5.0471,-4.9606,-4.8125,-4.6721,-4.6028,-4.572,-4.5586,-4.5586,-4.5586,-4.5586,-4.5586,-4.5586,-4.5586,-4.5586,-4.5586,-4.5586,-4.5586,-4.4989,-4.4259,-4.3431,-4.3201,-4.247,-4.0912,-4.0777,-4.0431,-3.9604,-3.8738,-3.7969,-3.7296,-3.6469,-3.6334,-3.6969,-3.7161,-3.7834,-3.9008,-3.7834,-3.7777,-3.8681,-3.6699,-3.6103,-5.7773,-5.9238,-5.9922,-5.7461,-5.4277,-5.0156,-4.4023,0.0,0.0,-3.0762,-2.9844,-2.9805,-2.9726,-3.0566,0.0,0.0,0.0,0.0,0.0,0.0,0.0,0.0,0.0,0.0,0.0,0.0,0.0,0.0,0.0,0.0,-5.5703,-5.5703,-5.5703,-5.5703,-5.5703,-5.5703,-5.5703,-5.5703,-5.5703,-5.5703,-5.5703,-5.5703,-5.5703,-5.5703,-5.5299,-5.4607,-5.453,0.0,0.0,-5.3145,-5.2606,-5.1895,-5.1818,-5.1337,-5.0702,-5.0779,-5.076,-5.0818,-5.1625,-5.1375,-5.0818,-5.1548,-5.1298,-5.0702,-5.0702,-5.0702,-5.0702,-5.0702,-5.0702,-5.0702,-5.0702,-5.0702,-5.0471,-4.9606,-4.8125,-4.6894,-4.6797,-4.6163,-4.5586,-4.5586,-4.5586,-4.5586,-4.5586,-4.5586,-4.5586,-4.5586,-4.5586,-4.5586,-4.5586,-4.5528,-4.5143,-4.4278,-4.3547,-4.272,-4.1758,-4.1681,-4.1316,-4.0431,-3.9623,-3.9142,-3.9065,-3.8238,-3.7796,-3.7873,-3.8661,-3.8738,-3.8123,-3.8738,-3.8334,-3.693,-3.6699,-3.6642,-5.5547,-5.7969,-5.918,-5.7129,-5.3613,-4.9219,-4.3672,0.0,0.0,-3.0371,-2.9609,-2.9609,-2.9609,-3.0312,-3.1669,0.0,0.0,0.0,0.0,0.0,0.0,0.0,0.0,0.0,0.0,0.0,0.0,0.0,0.0,0.0,-5.5703,-5.5703,-5.5703,-5.5703,-5.5703,-5.5703,-5.5703,-5.5703,-5.5703,-5.5703,-5.5703,-5.5703,-5.5703,-5.5703,-5.553,-5.5164,-5.4164,0.0,0.0,-5.2337,-5.1779,-5.1856,-5.1375,-5.0971,-5.076,-5.1241,-5.1125,-5.0818,-5.1625,-5.1375,-5.0741,-5.1068,-5.0952,-5.0779,-5.1279,-5.1087,-5.0798,-5.1298,-5.1068,-5.0702,-5.0702,-5.0298,-4.9702,-4.8817,-4.8105,-4.7355,-4.6336,-4.6259,-4.622,-4.5701,-4.5586,-4.5586,-4.5586,-4.5586,-4.5586,-4.5586,-4.5586,-4.5586,-4.5586,-4.5586,-4.547,-4.5124,-4.4335,-4.3278,-4.1931,-4.1797,-4.1431,-4.0546,-3.9738,-3.9296,-3.9296,-3.845,-3.8257,-3.8757,-3.9123,-3.9123,-3.8777,-3.8604,-3.8161,-3.7469,-3.6449,-3.6526,-5.1426,-5.4707,-5.6855,-5.5137,-5.1465,-4.7051,0.0,0.0,0.0,-2.9492,-2.8828,-2.8906,-2.918,-2.9922,-3.1045,-3.2644,0.0,0.0,0.0,0.0,0.0,0.0,0.0,0.0,0.0,0.0,0.0,0.0,0.0,0.0,-5.5703,-5.5703,-5.5703,-5.5703,-5.5703,-5.5703,-5.5703,-5.5703,-5.5703,-5.5703,-5.5703,-5.5703,-5.5684,-5.5453,-5.5338,-5.5261,-5.3818,0.0,0.0,-5.1895,-5.1395,-5.1818,-5.101,-5.0702,-5.076,-5.1337,-5.1183,-5.0818,-5.1625,-5.1375,-5.0741,-5.0971,-5.0894,-5.0837,-5.1664,-5.1337,-5.0818,-5.1395,-5.1144,-5.0702,-5.0702,-5.024,-4.9625,-4.9009,-4.849,-4.7778,-4.6586,-4.6432,-4.6336,-4.572,-4.5586,-4.5586,-4.5586,-4.5586,-4.5586,-4.5586,-4.5586,-4.5586,-4.5586,-4.5586,-4.5586,-4.5586,-4.5047,-4.4105,-4.2662,-4.2547,-4.2066,-4.095,-4.0354,-3.9912,-3.9662,-3.9065,-3.9027,-3.9642,-3.9642,-3.9411,-3.8911,-3.8296,-3.7757,-3.7238,-3.6065,-3.6257,-4.5098,-4.8867,-5.2363,-5.0683,-4.6992,-4.2871,0.0,0.0,-3.0195,-2.7578,-2.7031,-2.7285,-2.8144,-2.9023,-3.0133,-3.1746,-3.1948,0.0,0.0,0.0,0.0,0.0,0.0,0.0,0.0,0.0,0.0,0.0,0.0,0.0,-5.5703,-5.5703,-5.5703,-5.5703,-5.5703,-5.5703,-5.5703,-5.5703,-5.5703,-5.5703,-5.5703,-5.5703,-5.5665,-5.4876,-5.4511,0.0,0.0,0.0,0.0,-5.226,-5.1895,-5.1818,-5.101,-5.0702,-5.0702,-5.0702,-5.0702,-5.0818,-5.1625,-5.1375,-5.0818,-5.1625,-5.1356,-5.0837,-5.1664,-5.1337,-5.0702,-5.0702,-5.0702,-5.0702,-5.0702,-5.0683,-5.0683,-5.0664,-4.9356,-4.8105,-4.8086,-4.6778,-4.5605,-4.5586,-4.5586,-4.5586,-4.5586,-4.5586,-4.5586,-4.5586,-4.5586,-4.5586,-4.5586,-4.5586,-4.5586,-4.5586,-4.5586,-4.522,-4.4355,-4.4278,-4.3566,-4.1893,-4.1777,-4.1393,-4.0508,-4.0469,-4.0469,-4.0489,-4.0489,-3.9662,-3.8007,-3.8007,-3.7161,-3.5545,-3.5526,-3.5949,-3.998,-4.2695,-4.457,-4.3437,-4.0781,-3.7982,-3.6255,0.0,-2.8887,-2.8008,-2.7383,-2.707,-2.7363,-2.8613,-3.0105,-3.1674,-3.2422,0.0,0.0,0.0,0.0,0.0,0.0,0.0,0.0,0.0,0.0,0.0,0.0,0.0,-5.5703,-5.5703,-5.5703,-5.5703,-5.5703,-5.5703,-5.5703,-5.5703,-5.5703,-5.5684,-5.5145,-5.4876,-5.4857,-5.3991,-5.3606,0.0,0.0,0.0,0.0,-5.1664,-5.1395,-5.1818,-5.101,-5.0702,-5.076,-5.1318,-5.1529,-5.1645,-5.2491,-5.2626,-5.2356,-5.201,-5.1741,-5.1471,-5.1164,-5.0894,-5.0702,-5.0702,-5.0702,-5.0702,-5.0702,-5.026,-4.9798,-4.9798,-4.8933,-4.7952,-4.7413,-4.6855,-4.6317,-4.572,-4.5586,-4.5586,-4.5586,-4.5586,-4.5586,-4.5586,-4.5586,-4.5586,-4.5586,-4.5586,-4.5586,-4.5586,-4.5586,-4.524,-4.4374,-4.4297,-4.3585,-4.1912,-4.1797,-4.1412,-4.0527,-4.0489,-4.0489,-4.0489,-3.995,-3.9411,-3.8892,-3.77,-3.6565,-3.5545,-3.668,-3.7353,0.0,-3.7422,-3.9101,-3.8555,-3.6484,0.0,0.0,0.0,-2.7654,-2.7268,-2.6784,-2.6531,-2.6862,-2.8071,-2.9445,-3.0673,-3.189,0.0,0.0,0.0,0.0,0.0,0.0,0.0,0.0,0.0,0.0,0.0,0.0,0.0,-5.5241,-5.4934,-5.4914,-5.5241,-5.553,-5.5549,-5.5241,-5.5241,-5.5068,-5.4741,-5.4241,-5.401,-5.3972,-5.3106,-5.2895,0.0,0.0,0.0,0.0,-5.1722,-5.1452,-5.1818,-5.101,-5.0702,-5.076,-5.126,-5.1452,-5.1548,-5.225,-5.2389,-5.2182,-5.1809,-5.1561,-5.1356,-5.0837,-5.0702,-5.0702,-5.0702,-5.0452,-5.0279,-5.0606,-4.9798,-4.899,-4.9317,-4.8509,-4.7509,-4.7009,-4.6644,-4.624,-4.5701,-4.5586,-4.5586,-4.5586,-4.5586,-4.5586,-4.5586,-4.5586,-4.5586,-4.5586,-4.5586,-4.5586,-4.5586,-4.5586,-4.5374,-4.4836,-4.4778,-4.4201,-4.2835,-4.247,-4.1893,-4.1027,-4.0662,-4.0489,-4.0489,-4.0008,-3.9604,-3.9296,-3.7546,-3.6449,-3.5988,-3.7353,-3.8007,0.0,0.0,0.0,0.0,0.0,0.0,0.0,0.0,0.0,-2.5762,-2.5537,-2.577,-2.6631,-2.7509,-2.8357,-2.9165,0.0,0.0,0.0,0.0,0.0,0.0,0.0,0.0,0.0,0.0,0.0,0.0,0.0,0.0,-5.4414,-5.3645,-5.3568,-5.4376,-5.5126,-5.5184,-5.4511,-5.4434,-5.3991,-5.3203,-5.3145,-5.3106,-5.3087,-5.2222,-5.226,0.0,0.0,0.0,0.0,-5.2164,-5.1818,-5.1741,-5.0991,-5.0702,-5.0702,-5.076,-5.0779,-5.0836,-5.1281,-5.1181,-5.0932,-5.1243,-5.1047,-5.0702,-5.0702,-5.0702,-5.0702,-5.0702,-5.0106,-4.9683,-5.0491,-4.949,-4.849,-4.9298,-4.8259,-4.7086,-4.7086,-4.6394,-4.5759,-4.5701,-4.5682,-4.5663,-4.5605,-4.5586,-4.5586,-4.5586,-4.5586,-4.5586,-4.5586,-4.5586,-4.5586,-4.5586,-4.5586,-4.5586,-4.5586,-4.5586,-4.522,-4.4355,-4.3605,-4.2777,-4.1854,-4.1027,-4.0546,-4.0489,-4.0489,-4.0065,-3.92,-3.7642,-3.6853,-3.6815,-3.77,-3.8084,-2.6541,0.0,-2.7975,-2.7975,0.0,0.0,0.0,0.0,0.0,0.0,0.0,0.0,0.0,0.0,0.0,0.0,0.0,0.0,0.0,0.0,0.0,0.0,0.0,0.0,0.0,0.0,0.0,0.0,0.0,-5.351,-5.351,-5.3318,-5.3299,-5.351,-5.3683,-5.403,-5.4491,-5.3837,-5.3395,-5.3203,-5.2529,-5.2222,-5.2183,-5.1356,-5.1087,0.0,0.0,0.0,-5.126,-5.1068,-5.0971,-5.0952,-5.076,-5.0702,-5.076,-5.1395,-5.1625,-5.1721,-5.2485,-5.2679,-5.2509,-5.1947,-5.1276,-5.0702,-5.0702,-5.0702,-5.0702,-5.0702,-5.0548,-5.0433,-5.0644,-5.0394,-5.0144,-5.0337,-4.9586,-4.8817,-4.8817,-4.8125,-4.7336,-4.6721,-4.6586,-4.6374,-4.5701,-4.5586,-4.5586,-4.5586,-4.5586,-4.5586,-4.5586,-4.5586,-4.5586,-4.5586,-4.5586,-4.5586,-4.5586,-4.5586,-4.522,-4.4355,-4.4124,-4.3355,-4.1873,-4.1604,-4.1181,-4.0508,-4.0489,-3.9777,-3.8315,-3.8565,-3.8354,-3.7719,-3.8584,-3.8988,-2.5409,-2.5443,-2.5498,-2.5498,-2.5498,-2.5604,0.0,0.0,0.0,0.0,0.0,0.0,0.0,0.0,0.0,0.0,0.0,0.0,0.0,0.0,0.0,0.0,0.0,0.0,0.0,0.0,0.0,0.0,0.0,-5.2606,-5.2606,-5.226,-5.2222,-5.2587,-5.226,-5.2452,-5.3299,-5.2837,-5.2414,-5.2049,-5.1568,-5.1356,-5.1337,-5.0894,-5.0702,0.0,0.0,0.0,-5.0702,-5.0702,-5.0702,-5.0702,-5.0702,-5.0702,-5.0741,-5.1183,-5.1356,-5.1432,-5.2113,-5.2315,-5.2203,-5.1566,-5.1048,-5.0702,-5.0702,-5.0414,-5.0183,-5.0587,-5.0414,-5.0087,-5.0087,-4.9798,-4.951,-4.951,-4.9144,-4.8798,-4.8798,-4.8144,-4.7528,-4.7471,-4.6836,-4.6278,-4.6201,-4.5855,-4.5586,-4.5586,-4.5586,-4.5586,-4.5586,-4.5586,-4.5586,-4.5586,-4.5586,-4.5586,-4.5586,-4.522,-4.4797,-4.4335,-4.3951,-4.3162,-4.1854,-4.1412,-4.0969,-4.0508,-4.0489,-3.9873,-3.8604,-3.9065,-3.9065,-3.8604,-3.9084,-3.9488,-2.5303,-2.5486,-2.564,-2.5505,-2.5466,-2.5447,0.0,0.0,0.0,0.0,0.0,0.0,0.0,0.0,0.0,0.0,0.0,0.0,0.0,0.0,0.0,0.0,0.0,0.0,0.0,0.0,0.0,0.0,0.0,-5.1529,-5.1529,-5.0991,-5.0952,-5.151,-5.0856,-5.0837,-5.151,-5.1664,-5.1375,-5.0702,-5.0702,-5.0702,-5.0702,-5.0702,-5.0702,-5.0702,0.0,0.0,-5.0702,-5.0702,-5.0702,-5.0702,-5.0702,-5.0702,-5.0683,-5.0548,-5.0491,-5.0567,-5.0883,-5.1095,-5.1142,-5.0795,-5.0606,-5.0491,-5.0491,-4.9894,-4.9375,-5.026,-4.9971,-4.9394,-4.9394,-4.8952,-4.8509,-4.8509,-4.8509,-4.8509,-4.8509,-4.7971,-4.7644,-4.8202,-4.7048,-4.6182,-4.6797,-4.6182,-4.5586,-4.5586,-4.5586,-4.5586,-4.5586,-4.5586,-4.5586,-4.5586,-4.5586,-4.5586,-4.5586,-4.4913,-4.4393,-4.4124,-4.347,-4.272,-4.1854,-4.095,-4.0489,-4.0489,-4.0489,-4.0162,-3.9469,-3.9469,-3.9469,-3.9469,-3.9469,-3.9835,-2.5303,-2.5851,-2.6255,-2.5524,-2.5322,-2.5322,0.0,0.0,0.0,0.0,0.0,0.0,0.0,0.0,0.0,0.0,0.0,0.0,0.0,0.0,0.0,0.0,0.0,0.0,0.0,0.0,0.0,0.0,0.0,-4.9779,-4.9779,-5.0356,-5.0414,-4.9798,-4.9663,-4.9663,-4.9779,-5.051,-5.0818,-5.0702,-5.0702,-5.0702,-5.0702,-5.0702,-5.0702,-5.0702,0.0,-5.0702,-5.0702,-5.0702,-5.0702,-5.0702,-5.0702,-5.0702,-5.0606,-4.9875,-4.9606,-4.9606,-4.9682,-5.0181,-5.0777,-5.0721,-5.0202,-4.9606,-4.9606,-4.899,-4.849,-4.9356,-4.949,-4.9394,-4.9394,-4.9856,-5.0298,-5.0298,-5.0298,-5.0298,-5.0298,-5.0202,-4.9933,-4.9317,-4.8394,-4.7548,-4.699,-4.6182,-4.5586,-4.5586,-4.5586,-4.5586,-4.5586,-4.5586,-4.5586,-4.5586,-4.5586,-4.5586,-4.5586,-4.547,-4.4797,-4.3374,-4.3162,-4.272,-4.1854,-4.095,-4.0489,-4.0489,-4.0489,-4.0431,-4.0315,-4.0315,-4.0315,-4.0315,-4.0315,-4.0373,-2.5303,-2.5591,-2.5813,-2.5399,-2.6005,-2.6582,-2.612,0.0,0.0,0.0,0.0,0.0,0.0,0.0,0.0,0.0,0.0,0.0,0.0,0.0,0.0,0.0,0.0,0.0,0.0,0.0,0.0,0.0,0.0,0.0,-4.9375,-4.9336,-4.9106,-4.8702,-4.8702,-4.8702,-4.8702,-4.9086,-4.9529,-4.999,-5.0471,-5.0452,-4.999,-4.999,-4.999,-4.9971,0.0,-4.9548,-4.9952,-4.949,-4.9298,-4.9298,-4.9298,-4.9298,-4.924,-4.8856,-4.8702,-4.8702,-4.8702,-4.8952,-4.9298,-4.9298,-4.9029,-4.8702,-4.8702,-4.8105,-4.7548,-4.7952,-4.8702,-4.9298,-4.8817,-4.9683,-5.0452,-4.951,-5.001,-5.0702,-5.0702,-5.0317,-4.9875,-4.9471,-4.8702,-4.7836,-4.7048,-4.6567,-4.6144,-4.5663,-4.5586,-4.5586,-4.5586,-4.5586,-4.5586,-4.5586,-4.5586,-4.5586,-4.5586,-4.5163,-4.4374,-4.3181,-4.222,-4.1508,-4.1104,-4.07,-4.0489,-4.0489,-4.0489,-4.0489,-4.0489,-4.0489,-4.0489,-4.0489,-4.0489,-4.0489,-2.5303,-2.5437,-2.5553,-2.5341,0.0,-2.7274,-2.7198,0.0,0.0,0.0,0.0,0.0,0.0,0.0,0.0,0.0,0.0,0.0,0.0,0.0,0.0,0.0,0.0,0.0,0.0,0.0,0.0,0.0,0.0,0.0,-4.8779,-4.8355,-4.8009,-4.7817,-4.7817,-4.7817,-4.7817,-4.7817,-4.8259,-4.9106,-4.976,-4.974,-4.9106,-4.9317,-4.9298,-4.9067,-4.8606,-4.8663,-4.9048,-4.8375,-4.8105,-4.8105,-4.8105,-4.799,-4.7817,-4.7817,-4.7817,-4.7817,-4.7817,-4.7952,-4.8105,-4.8105,-4.7971,-4.7817,-4.7817,-4.7259,-4.6644,-4.6836,-4.7817,-4.8663,-4.799,-4.9106,-5.0048,-4.8721,-4.9413,-5.0394,-5.0394,-4.9702,-4.9106,-4.9106,-4.8394,-4.7625,-4.7009,-4.674,-4.6374,-4.5701,-4.5586,-4.5586,-4.5586,-4.5586,-4.5586,-4.5586,-4.5586,-4.5586,-4.5586,-4.4797,-4.4047,-4.3412,-4.1758,-4.07,-4.0508,-4.07,-4.07,-4.0489,-4.0489,-4.0489,-4.0489,-4.0489,-4.0489,-4.0489,-4.0489,-4.0489,-2.5303,-2.589,-2.6313,-2.5495,0.0,0.0,-2.839,0.0,0.0,0.0,0.0,0.0,0.0,0.0,0.0,0.0,0.0,0.0,0.0,0.0,0.0,0.0,0.0,0.0,0.0,0.0,0.0,0.0,0.0,0.0,-4.7086,-4.774,-4.7759,-4.7009,-4.699,-4.699,-4.699,-4.699,-4.7394,-4.8202,-4.8259,-4.8259,-4.8221,-4.9029,-4.8952,-4.824,-4.8971,-4.8875,-4.8202,-4.8125,-4.8105,-4.8105,-4.8105,-4.7644,-4.699,-4.699,-4.699,-4.699,-4.699,-4.749,-4.8105,-4.8105,-4.7586,-4.699,-4.699,-4.6374,-4.5855,-4.6682,-4.699,-4.7067,-4.7009,-4.824,-4.9452,-4.9336,-4.9394,-4.949,-4.949,-4.8817,-4.8202,-4.8202,-4.7548,-4.6971,-4.6913,-4.622,-4.5663,-4.5605,-4.5586,-4.5586,-4.5586,-4.5586,-4.5586,-4.5586,-4.5586,-4.5586,-4.5586,-4.4797,-4.4278,-4.422,-4.2643,-4.1335,-4.0527,-4.1277,-4.1335,-4.0508,-4.0489,-4.0489,-4.0489,-4.0489,-4.0489,-4.0489,-4.0489,-4.0489,-2.5303,-2.5534,-2.5707,-2.538,0.0,0.0,0.0,0.0,0.0,0.0,0.0,0.0,0.0,0.0,0.0,0.0,0.0,0.0,0.0,0.0,0.0,0.0,0.0,0.0,0.0,0.0,0.0,0.0,0.0,0.0,-4.6874,-4.6663,-4.6413,-4.6105,-4.6086,-4.6086,-4.6086,-4.6086,-4.624,-4.6547,-4.7605,-4.7836,-4.7355,-4.7702,-4.7682,-4.7336,-4.7124,-4.7163,-4.7317,-4.6778,-4.6547,-4.6547,-4.6547,-4.6355,-4.6086,-4.6086,-4.6086,-4.6086,-4.6086,-4.6278,-4.6547,-4.6547,-4.6336,-4.6086,-4.6086,-4.5855,-4.5663,-4.599,-4.6086,-4.622,-4.6759,-4.774,-4.8471,-4.7971,-4.824,-4.8586,-4.8586,-4.8336,-4.7952,-4.7451,-4.7509,-4.7317,-4.6259,-4.6278,-4.622,-4.5682,-4.5586,-4.5586,-4.5586,-4.5586,-4.5586,-4.5586,-4.5586,-4.5586,-4.5586,-4.4797,-4.4297,-4.4297,-4.3239,-4.247,-4.2124,-4.2431,-4.22,-4.1335,-4.1316,-4.1046,-4.0489,-4.0489,-4.0489,-4.0489,-4.0489,-4.0489,-2.5303,-2.5303,-2.5303,0.0,0.0,0.0,0.0,0.0,0.0,0.0,0.0,0.0,0.0,0.0,0.0,0.0,0.0,0.0,0.0,0.0,0.0,0.0,0.0,0.0,0.0,0.0,0.0,0.0,0.0,0.0,0.0,-4.5913,-4.5586,-4.5586,-4.5586,-4.5586,-4.5586,-4.5586,-4.5586,-4.5605,-4.6759,-4.7028,-4.6509,-4.6778,-4.6759,-4.6471,-4.6144,-4.6182,-4.6432,-4.5836,-4.5586,-4.5586,-4.5586,-4.5586,-4.5586,-4.5586,-4.5586,-4.5586,-4.5586,-4.5586,-4.5586,-4.5586,-4.5624,-4.5643,-4.5643,-4.568,-4.5699,-4.568,-4.5643,-4.5778,-4.6355,-4.7105,-4.7586,-4.7028,-4.7317,-4.7721,-4.7721,-4.7509,-4.7144,-4.6605,-4.6932,-4.6951,-4.5797,-4.6086,-4.6297,-4.5682,-4.5586,-4.5586,-4.5586,-4.5586,-4.5586,-4.5586,-4.5586,-4.5586,-4.5586,-4.5047,-4.4701,-4.4701,-4.4182,-4.3643,-4.3124,-4.3335,-4.3085,-4.2239,-4.195,-4.1508,-4.0912,-4.0623,-4.0489,-4.0489,-4.0489,-4.0489,-2.5303,-2.5303,0.0,0.0,0.0,0.0,0.0,0.0,0.0,0.0,0.0,0.0,0.0,0.0,0.0,0.0,0.0,0.0,0.0,0.0,0.0,0.0,0.0,0.0,0.0,0.0,0.0,0.0,0.0,0.0,0.0,-4.5586,-4.5586,-4.5586,-4.5586,-4.5586,-4.5586,-4.5586,-4.5586,-4.5586,-4.5586,-4.5586,-4.5624,-4.649,-4.6413,-4.5643,-4.6509,-4.6394,-4.5586,-4.5586,-4.5586,-4.5586,-4.5586,-4.5586,-4.5586,-4.5586,-4.5586,-4.5586,-4.5586,-4.5586,-4.5586,-4.5586,-4.5699,-4.5796,-4.5796,-4.5853,-4.5873,-4.5815,-4.5796,-4.5776,-4.5624,-4.624,-4.6894,-4.6894,-4.6894,-4.6894,-4.6894,-4.6201,-4.5586,-4.5586,-4.5586,-4.5586,-4.5586,-4.5586,-4.5586,-4.5586,-4.5586,-4.5586,-4.5586,-4.5586,-4.5586,-4.5586,-4.5586,-4.5586,-4.5586,-4.5586,-4.5586,-4.5586,-4.5586,-4.4855,-4.3181,-4.3893,-4.3932,-4.3124,-4.2258,-4.1816,-4.1797,-4.0931,-4.0489,-4.0489,-4.0489,-4.0489,-2.5141,-2.5203,0.0,0.0,0.0,0.0,0.0,0.0,0.0,0.0,0.0,0.0,0.0,0.0,0.0,0.0,0.0,0.0,0.0,0.0,0.0,0.0,0.0,0.0,0.0,0.0,0.0,0.0,0.0,0.0,0.0,-4.5009,-4.497,-4.5566,-4.5009,-4.497,-4.5586,-4.5586,-4.5586,-4.5586,-4.5586,-4.5586,-4.5605,-4.5874,-4.5836,-4.5605,-4.5874,-4.5836,-4.5586,-4.5586,-4.5586,-4.5586,-4.5586,-4.5586,-4.5586,-4.5586,-4.5586,-4.5586,-4.5586,-4.5586,-4.5605,-4.5719,-4.5699,-4.5676,-4.5766,-4.575,-4.568,-4.5643,-4.5643,-4.5643,-4.5605,-4.5778,-4.599,-4.599,-4.599,-4.599,-4.599,-4.5778,-4.5586,-4.5586,-4.5586,-4.5586,-4.5586,-4.5586,-4.5586,-4.5586,-4.5586,-4.5586,-4.5586,-4.5586,-4.5586,-4.5586,-4.5586,-4.5586,-4.5586,-4.5586,-4.5586,-4.5586,-4.5586,-4.5374,-4.4874,-4.5086,-4.4797,-4.3951,-4.3124,-4.2412,-4.1797,-4.0931,-4.0489,-4.0489,-4.0489,-4.0489,-2.5118,0.0,0.0,0.0,0.0,0.0,0.0,0.0,0.0,0.0,0.0,0.0,0.0,0.0,0.0,0.0,0.0,0.0,0.0,0.0,0.0,0.0,0.0,0.0,0.0,0.0,0.0,0.0,0.0,0.0,0.0,-4.4105,-4.4066,-4.4586,-4.4105,-4.4085,-4.4605,-4.4605,-4.4605,-4.4605,-4.4605,-4.4759,-4.5086,-4.5432,-4.5586,-4.5586,-4.5586,-4.5586,-4.5586,-4.5586,-4.5586,-4.5586,-4.5586,-4.5586,-4.5586,-4.5586,-4.5586,-4.5586,-4.5586,-4.5586,-4.5605,-4.5699,-4.569,-4.5688,-4.5786,-4.5754,-4.5719,-4.5699,-4.568,-4.568,-4.5605,-4.5586,-4.5586,-4.5586,-4.5586,-4.5586,-4.5586,-4.5586,-4.5586,-4.5586,-4.5586,-4.5586,-4.5586,-4.5586,-4.5586,-4.5586,-4.5586,-4.5586,-4.5586,-4.5586,-4.5586,-4.5586,-4.5586,-4.5586,-4.5586,-4.5586,-4.5586,-4.5586,-4.5586,-4.5586,-4.5586,-4.5586,-4.5182,-4.4316,-4.3508,-4.2662,-4.1797,-4.0931,-4.0489,-4.0489,-4.0489,-4.0489,0.0,0.0,0.0,0.0,0.0,0.0,0.0,0.0,0.0,0.0,0.0,0.0,0.0,0.0,0.0,0.0,0.0,0.0,0.0,0.0,0.0,0.0,0.0,0.0,0.0,0.0,0.0,0.0,0.0,0.0,0.0,-4.2951,-4.2931,-4.3085,-4.2951,-4.2931,-4.3104,-4.3104,-4.3104,-4.3104,-4.3104,-4.347,-4.422,-4.5086,-4.5509,-4.5586,-4.5586,-4.5586,-4.5586,-4.5509,-4.547,-4.547,-4.547,-4.547,-4.549,-4.5566,-4.5586,-4.5586,-4.5586,-4.5586,-4.5586,-4.5605,-4.5688,-4.579,-4.5786,-4.5834,-4.5853,-4.5796,-4.5776,-4.5757,-4.5624,-4.5586,-4.5586,-4.5586,-4.5586,-4.5586,-4.5586,-4.5586,-4.5586,-4.5586,-4.5586,-4.5586,-4.5586,-4.5586,-4.5586,-4.5586,-4.5586,-4.5586,-4.5586,-4.5586,-4.5586,-4.5586,-4.5586,-4.5586,-4.5586,-4.5586,-4.5586,-4.5586,-4.5586,-4.5586,-4.5586,-4.5586,-4.5182,-4.4316,-4.3508,-4.2662,-4.1797,-4.0931,-4.0489,-4.0489,-4.0489,-4.0489,0.0,0.0,0.0,0.0,0.0,0.0,0.0,0.0,0.0,0.0,0.0,0.0,0.0,0.0,0.0,0.0,0.0,0.0,0.0,0.0,0.0,0.0,0.0,0.0,0.0,0.0,0.0,0.0,0.0,0.0,-4.3104,-4.1797,-4.1681,-4.3066,-4.1758,-4.172,-4.3085,-4.3104,-4.3104,0.0,-4.3104,-4.3181,-4.3393,-4.4201,-4.4951,-4.5586,-4.5586,-4.5586,-4.5547,-4.4855,-4.4586,-4.4586,-4.4586,-4.4586,-4.4662,-4.5336,-4.5586,-4.5586,-4.5586,-4.5586,-4.5605,-4.5719,-4.5714,-4.5651,-4.5774,-4.5738,-4.5643,-4.5643,-4.5624,-4.5624,-4.5605,-4.5586,-4.5586,-4.5586,-4.5586,-4.5586,-4.5586,-4.5586,-4.5586,-4.5586,-4.5586,-4.5586,-4.5586,-4.5586,-4.5586,-4.5586,-4.5586,-4.5586,-4.5586,-4.5586,-4.5586,-4.5586,-4.5586,-4.5586,-4.5586,-4.5586,-4.5586,-4.5586,-4.5586,-4.5586,-4.5586,-4.5586,-4.5182,-4.4316,-4.3508,-4.2662,-4.1797,-4.0931,-4.0489,-4.0489,-4.0489,-4.0489,0.0,0.0,0.0,0.0,0.0,0.0,0.0,0.0,0.0,0.0,0.0,0.0,0.0,0.0,0.0,0.0,0.0,0.0,0.0,0.0,0.0,0.0,0.0,0.0,0.0,0.0,0.0,0.0,0.0,-4.0662,-4.0662,-3.9796,-3.9719,-4.0623,-3.9777,-3.9931,-4.1258,-4.1277,-4.147,-4.1854,-4.1854,-4.2066,-4.2508,-4.3335,-4.397,-4.4393,-4.4393,-4.4393,-4.4393,-4.4335,-4.4297,-4.4297,-4.4297,-4.4297,-4.4316,-4.4374,-4.4393,-4.4393,-4.4393,-4.4393,-4.4412,-4.4528,-4.4739,-4.4989,-4.5143,-4.5374,-4.5586,-4.5586,-4.5586,-4.5586,-4.5586,-4.5586,-4.5586,-4.5586,-4.5586,-4.5586,-4.5586,-4.5586,-4.5586,-4.5586,-4.5586,-4.5586,-4.5586,-4.5586,-4.5586,-4.5586,-4.5586,-4.5586,-4.5586,-4.5586,-4.5586,-4.5586,-4.5586,-4.5586,-4.5586,-4.5586,-4.5586,-4.5586,-4.5586,-4.5586,-4.5586,-4.5201,-4.4586,-4.3739,-4.3316,-4.247,-4.1181,-4.0719,-4.07,-4.1104,-4.0681,-4.0719,0.0,0.0,0.0,0.0,0.0,0.0,0.0,0.0,0.0,0.0,0.0,0.0,0.0,0.0,0.0,0.0,0.0,0.0,0.0,0.0,0.0,0.0,0.0,0.0,0.0,0.0,0.0,0.0,0.0,-3.8007,-3.8007,-3.7853,-3.7834,-3.8007,-3.7853,-3.818,-3.9065,-3.9084,-3.9411,-4.0065,-4.0065,-4.045,-4.1181,-4.1893,-4.2547,-4.3104,-4.3104,-4.3104,-4.3143,-4.3662,-4.3874,-4.3874,-4.3874,-4.3874,-4.3816,-4.3297,-4.3104,-4.3104,-4.3104,-4.3104,-4.3104,-4.3145,-4.3605,-4.4105,-4.4222,-4.4664,-4.5201,-4.5336,-4.5374,-4.5413,-4.5547,-4.5586,-4.5586,-4.5586,-4.5586,-4.5586,-4.5586,-4.5586,-4.5586,-4.5586,-4.5586,-4.5586,-4.5586,-4.5586,-4.5586,-4.5586,-4.5586,-4.5586,-4.5586,-4.5586,-4.5586,-4.5586,-4.5586,-4.5586,-4.5586,-4.5586,-4.5528,-4.5374,-4.5509,-4.5528,-4.5374,-4.4816,-4.4085,-4.3124,-4.2951,-4.2162,-4.0719,-4.0719,-4.1162,-4.2008,-4.1123,-4.1104,0.0,0.0,0.0,0.0,0.0,0.0,0.0,0.0,0.0,0.0,0.0,0.0,0.0,0.0,0.0,0.0,0.0,0.0,0.0,0.0,0.0,0.0,0.0,0.0,0.0,0.0,0.0,0.0,-3.7565,-3.8007,-3.8007,-3.7276,-3.7219,-3.7988,-3.7276,-3.7296,-3.8161,-3.8161,-3.8238,-3.8334,-3.8334,-3.8392,-3.8507,-3.8623,-4.0296,-4.3104,-4.3104,-4.3104,-4.3047,-4.2412,-4.2143,-4.2143,-4.2143,-4.2143,-4.222,-4.2854,-4.3104,-4.3104,-4.3104,-4.3104,-4.3104,-4.3104,-4.3181,-4.3258,-4.3278,-4.3355,-4.3585,-4.4278,-4.447,-4.4643,-4.5393,-4.5586,-4.5586,-4.5586,-4.5586,-4.5586,-4.5586,-4.5586,-4.5586,-4.5586,-4.5586,-4.5586,-4.5586,-4.5586,-4.5586,-4.5586,-4.5586,-4.5586,-4.5586,-4.5586,-4.5586,-4.5586,-4.5586,-4.5586,-4.5586,-4.5586,-4.5278,-4.4509,-4.5182,-4.5259,-4.4489,-4.5086,-4.4682,-4.3124,-4.2354,-4.1873,-4.1643,-4.1643,-4.2066,-4.2912,-4.2027,-4.17,0.0,0.0,0.0,0.0,0.0,0.0,0.0,0.0,0.0,0.0,0.0,0.0,0.0,0.0,0.0,0.0,0.0,0.0,0.0,0.0,0.0,0.0,0.0,0.0,0.0,0.0,0.0,0.0,-3.5641,-3.5661,-3.5161,-3.4776,-3.4757,-3.5122,-3.4776,-3.5218,-3.6584,-3.6603,-3.7065,-3.8007,-3.8007,-3.8007,-3.8007,-3.8007,-3.8815,-4.0239,-4.0239,-4.0239,-4.0258,-4.0354,-4.0392,-4.0431,-4.0893,-4.1066,-4.1123,-4.1489,-4.1643,-4.1643,-4.1643,-4.1643,-4.1662,-4.172,-4.2027,-4.2393,-4.245,-4.2777,-4.3162,-4.3528,-4.3951,-4.4393,-4.4759,-4.522,-4.5586,-4.5586,-4.5586,-4.547,-4.497,-4.5259,-4.5586,-4.5586,-4.5586,-4.5586,-4.5586,-4.5586,-4.5586,-4.5586,-4.5586,-4.5586,-4.5586,-4.5586,-4.5586,-4.5586,-4.5586,-4.5586,-4.5586,-4.5143,-4.4701,-4.4316,-4.4239,-4.4028,-4.3643,-4.3528,-4.3124,-4.2393,-4.2912,-4.2508,-4.1066,-4.1566,-4.2258,-4.3066,-4.17,-4.1585,0.0,0.0,0.0,0.0,0.0,0.0,0.0,0.0,0.0,0.0,0.0,0.0,0.0,0.0,0.0,0.0,0.0,0.0,0.0,0.0,0.0,0.0,0.0,0.0,0.0,0.0,0.0,0.0,-3.3872,-3.3583,-3.2929,-3.2891,-3.2891,-3.2891,-3.2891,-3.3526,-3.4834,-3.4853,-3.5584,-3.7026,-3.6815,-3.6815,-3.7026,-3.7026,-3.7026,-3.7065,-3.7719,-3.8007,-3.8046,-3.87,-3.8969,-3.9027,-3.9623,-3.9854,-3.9873,-3.9873,-3.9892,-3.9931,-4.0181,-4.0104,-3.9969,-4.0523,-4.0912,-4.1219,-4.1527,-4.1989,-4.2489,-4.272,-4.3201,-4.372,-4.3932,-4.447,-4.4951,-4.4951,-4.4951,-4.4893,-4.4682,-4.4797,-4.5086,-4.5509,-4.5413,-4.5336,-4.5547,-4.5413,-4.5336,-4.5566,-4.5413,-4.5336,-4.5566,-4.5586,-4.5586,-4.5586,-4.5393,-4.5259,-4.5259,-4.4489,-4.3893,-4.3682,-4.3316,-4.3008,-4.2777,-4.2354,-4.2027,-4.1797,-4.3258,-4.2951,-4.0835,-4.1489,-4.2258,-4.3066,-4.1546,-4.1527,0.0,0.0,0.0,0.0,0.0,0.0,0.0,0.0,0.0,0.0,0.0,0.0,0.0,0.0,0.0,0.0,0.0,0.0,0.0,0.0,0.0,0.0,0.0,0.0,0.0,0.0,0.0,0.0,-3.2968,-3.2949,-3.2891,-3.2891,-3.2891,-3.2891,-3.2891,-3.2949,-3.3026,-3.3045,-3.3487,-3.4391,-3.3564,-3.3603,-3.4391,-3.4391,-3.4391,-3.4526,-3.6949,-3.8007,-3.8007,-3.8046,-3.8065,-3.8065,-3.8104,-3.8123,-3.8142,-3.8204,-3.8223,-3.8358,-3.9319,-3.9012,-3.8493,-4.0162,-4.0119,-3.9565,-4.0335,-4.0585,-4.0796,-4.1643,-4.1912,-4.2124,-4.2951,-4.3201,-4.3239,-4.3239,-4.3239,-4.3643,-4.5201,-4.4316,-4.3701,-4.5278,-4.4932,-4.4624,-4.5451,-4.4913,-4.4643,-4.547,-4.4893,-4.4662,-4.549,-4.5586,-4.5586,-4.5586,-4.4855,-4.4374,-4.4374,-4.3624,-4.2816,-4.1989,-4.2662,-4.2739,-4.1912,-4.2624,-4.2643,-4.1816,-4.2701,-4.2701,-4.1739,-4.1777,-4.2258,-4.3085,-4.2162,-4.1777,0.0,0.0,0.0,0.0,0.0,0.0,0.0,0.0,0.0,0.0,0.0,0.0,0.0,0.0,0.0,0.0,0.0,0.0,0.0,0.0,0.0,0.0,0.0,0.0,0.0,0.0,0.0,0.0,0.0,-3.1891,-3.1333,-3.1295,-3.1295,-3.1295,-3.1295,-3.1564,-3.2122,-3.2641,-3.3064,-3.3353,-3.3045,-3.3064,-3.3372,-3.393,-3.3891,-3.3449,-3.4911,-3.5872,-3.6411,-3.6411,-3.6411,-3.6449,-3.6969,-3.718,-3.7238,-3.7858,-3.807,-3.808,-3.8498,-3.8363,-3.8142,-3.8757,-3.9123,-3.9354,-3.9642,-4.0085,-4.0566,-4.0873,-4.1373,-4.1873,-4.2181,-4.2681,-4.3104,-4.3104,-4.2662,-4.2585,-4.3739,-4.3932,-4.4047,-4.4643,-4.497,-4.522,-4.5547,-4.4874,-4.4605,-4.547,-4.4412,-4.4028,-4.5413,-4.5105,-4.4759,-4.4759,-4.4489,-4.4085,-4.3566,-4.2758,-4.2143,-4.1816,-4.1566,-4.1277,-4.0969,-4.1258,-4.1277,-4.0969,-4.1258,-4.1277,-4.0969,-4.1527,-4.197,-4.2239,-4.1373,-4.1277,0.0,0.0,0.0,0.0,0.0,0.0,0.0,0.0,0.0,0.0,0.0,0.0,0.0,0.0,0.0,0.0,0.0,0.0,0.0,0.0,0.0,0.0,0.0,0.0,0.0,0.0,0.0,0.0,0.0,0.0,-3.0417,-3.0398,-3.0398,-3.0398,-3.0398,-3.0679,-3.1256,-3.1795,-3.2218,-3.2487,-3.2199,-3.2218,-3.2526,-3.3103,-3.3045,-3.2545,-3.3391,-3.4083,-3.4661,-3.4949,-3.5064,-3.5161,-3.5968,-3.6315,-3.6392,-3.7012,-3.725,-3.7274,-3.7611,-3.7507,-3.7315,-3.7873,-3.843,-3.8854,-3.8854,-3.9623,-4.0431,-4.0162,-4.07,-4.1354,-4.1354,-4.1797,-4.222,-4.222,-4.1777,-4.1527,-4.2104,-4.2643,-4.3201,-4.3778,-4.4124,-4.4412,-4.4701,-4.4047,-4.3758,-4.4624,-4.3566,-4.3162,-4.4566,-4.4259,-4.3893,-4.3893,-4.3643,-4.3239,-4.272,-4.1854,-4.1354,-4.1354,-4.0816,-4.0489,-4.0489,-4.0489,-4.0489,-4.0489,-4.0489,-4.0489,-4.0489,-4.1085,-4.1354,-4.1354,-4.0758,-4.0796,0.0,0.0,0.0,0.0,0.0,0.0,0.0,0.0,0.0,0.0,0.0,0.0,0.0,0.0,0.0,0.0,0.0,0.0,0.0,0.0,0.0,0.0,0.0,0.0,0.0,0.0,0.0,0.0,-3.034,-3.0359,-3.0359,-3.0359,-3.0359,-3.0359,-3.0359,-3.0359,-3.0398,-3.0398,-3.0833,-3.166,-3.0814,-3.0852,-3.1679,-3.1698,-3.1679,-3.1679,-3.2506,-3.2833,-3.2852,-3.3776,-3.416,-3.4237,-3.5103,-3.5435,-3.5474,-3.5565,-3.5626,-3.583,-3.6682,-3.64,-3.5949,-3.7579,-3.806,-3.7969,-3.7969,-3.9123,-4.0258,-3.9469,-3.9835,-4.0469,-4.0489,-4.0489,-4.0489,-4.0489,-4.0489,-4.0489,-4.0489,-4.0489,-4.1008,-4.272,-4.2412,-4.2104,-4.2951,-4.2374,-4.2104,-4.297,-4.2335,-4.2085,-4.2989,-4.3085,-4.3066,-4.3066,-4.2297,-4.1797,-4.1758,-4.0989,-4.0489,-4.0489,-4.0489,-4.0489,-4.0489,-4.0489,-4.0489,-4.0489,-4.0489,-4.0508,-4.0527,-4.0508,-4.0489,-4.0489,-4.0489,-4.0489,-2.3692,0.0,0.0,0.0,0.0,0.0,0.0,0.0,0.0,0.0,0.0,0.0,0.0,0.0,0.0,0.0,0.0,0.0,0.0,0.0,0.0,0.0,0.0,0.0,0.0,0.0,0.0,0.0,-2.9121,-2.9467,-2.9467,-2.9467,-2.9467,-2.9467,-2.9467,-2.9756,-3.0379,-3.0398,-3.0564,-3.0833,-3.0602,-3.0621,-3.0929,-3.1499,-3.1076,-2.9967,-3.141,-3.1314,-3.0314,-3.2391,-3.3282,-3.3346,-3.3596,-3.4134,-3.4787,-3.4845,-3.5233,-3.5728,-3.597,-3.5869,-3.5699,-3.6103,-3.6622,-3.7065,-3.7065,-3.7815,-3.8642,-3.8411,-3.8969,-3.9758,-4.0335,-4.0489,-4.0489,-4.0489,-4.0489,-4.0489,-4.0489,-4.0489,-4.0816,-4.195,-4.247,-4.2816,-4.3066,-4.2374,-4.2104,-4.297,-4.1816,-4.1393,-4.2912,-4.2547,-4.2162,-4.2162,-4.195,-4.1546,-4.0912,-4.0642,-4.0489,-4.0489,-4.0489,-4.0489,-4.0489,-4.0489,-4.0489,-4.0489,-4.0489,-4.0796,-4.145,-4.0796,-4.0489,-4.0489,-4.0489,-4.0489,0.0,0.0,0.0,0.0,0.0,0.0,-2.419,-2.419,0.0,0.0,0.0,0.0,0.0,0.0,0.0,0.0,0.0,0.0,0.0,0.0,0.0,0.0,0.0,0.0,0.0,-2.7775,-2.8005,-2.7909,-2.8332,-2.8602,-2.8602,-2.8602,-2.8602,-2.8602,-2.8602,-2.9006,-2.9852,-2.9525,-2.9552,-2.9944,-2.9629,-2.9481,-2.9535,-2.9989,-2.965,-2.8709,-2.9679,-2.9737,-2.9248,-3.0698,-3.1782,-3.2532,-3.2932,-3.3439,-3.395,-3.4,-3.4518,-3.5187,-3.5145,-3.5329,-3.5603,-3.5526,-3.6045,-3.6642,-3.6315,-3.7046,-3.7911,-3.7565,-3.8084,-3.8873,-3.9335,-3.945,-3.945,-3.945,-3.9719,-3.9892,-3.9527,-4.0008,-4.0642,-4.1162,-4.1662,-4.2008,-4.2008,-4.1585,-4.1431,-4.1931,-4.1143,-4.0873,-4.1873,-4.1566,-4.1258,-4.1258,-4.1258,-4.1046,-4.0527,-4.0489,-4.0489,-4.0489,-4.0489,-4.0489,-4.0489,-4.0489,-4.0489,-4.0489,-4.0489,-4.0739,-4.1258,-4.0739,-4.0489,-4.0489,-4.0489,-4.0489,0.0,0.0,0.0,0.0,0.0,0.0,-2.4209,-2.4209,-2.4284,0.0,0.0,0.0,0.0,0.0,0.0,0.0,0.0,0.0,0.0,0.0,0.0,0.0,0.0,0.0,-2.639,-2.6544,-2.689,-2.7563,-2.7698,-2.7717,-2.7621,-2.7698,-2.7755,-2.7755,-2.7755,-2.8159,-2.8967,-2.8275,-2.8321,-2.9075,-2.8341,-2.8009,-2.8029,-2.8027,-2.792,-2.7785,-2.7871,-2.8362,-2.9074,-2.9102,-3.014,-3.1749,-3.2574,-3.2965,-3.3075,-3.3057,-3.3616,-3.4347,-3.4206,-3.4673,-3.5315,-3.5238,-3.5699,-3.6142,-3.543,-3.6315,-3.7469,-3.6873,-3.7257,-3.7873,-3.7969,-3.8007,-3.8007,-3.8007,-3.8584,-3.8931,-3.8161,-3.9161,-4.0219,-4.0219,-4.0354,-4.0489,-4.0489,-4.0489,-4.0469,-4.0373,-4.0431,-4.0431,-4.0239,-4.0373,-4.0469,-4.0373,-4.045,-4.0489,-4.0489,-4.0489,-4.0489,-4.0489,-4.0489,-4.0489,-4.0489,-4.0489,-4.0489,-4.0489,-4.0585,-4.0585,-4.0489,-4.0489,-4.0489,-4.0489,-4.0489,-4.0489,0.0,0.0,0.0,0.0,0.0,0.0,-2.4266,-2.4339,-2.4495,0.0,0.0,0.0,0.0,0.0,0.0,0.0,0.0,0.0,0.0,0.0,0.0,0.0,0.0,0.0,-2.5534,-2.6197,-2.639,-2.5851,-2.6467,-2.6544,-2.5851,-2.6467,-2.6851,-2.6851,-2.6899,-2.736,-2.8214,-2.806,-2.8126,-2.838,-2.8125,-2.8085,-2.8232,-2.8136,-2.773,-2.7132,-2.7766,-2.8132,-2.8296,-2.8983,-2.9906,-3.0914,-3.0991,-3.1514,-3.2231,-3.2174,-3.2707,-3.3441,-3.3371,-3.3441,-3.3558,-3.3449,-3.3506,-3.3603,-3.3449,-3.4122,-3.518,-3.6372,-3.6834,-3.7123,-3.7815,-3.8007,-3.8007,-3.8007,-3.8123,-3.82,-3.8046,-3.8257,-3.8488,-3.8488,-3.9585,-4.0489,-4.0489,-4.0489,-4.0277,-3.9623,-4.0085,-4.0008,-3.8661,-3.9662,-4.0239,-3.9604,-4.0104,-4.0489,-4.0489,-4.0489,-4.0489,-4.0489,-4.0489,-4.0489,-4.0489,-4.0489,-4.0489,-4.0489,-4.1181,-4.12,-4.0489,-4.0489,-4.0489,-4.0489,-4.0489,-4.0489,0.0,0.0,0.0,-2.4264,0.0,0.0,0.0,-2.4594,-2.47,-2.4864,0.0,0.0,0.0,0.0,0.0,0.0,0.0,0.0,0.0,0.0,0.0,0.0,0.0,0.0,-2.5303,-2.5736,-2.5832,-2.5428,-2.5793,-2.5851,-2.536,-2.5755,-2.6005,-2.6005,-2.6033,-2.6487,-2.7392,-2.6958,-2.7016,-2.7539,-2.7027,-2.6868,-2.6958,-2.6884,-2.6611,-2.6226,-2.6586,-2.6997,-2.744,-2.7802,-2.8533,-2.9481,-3.025,-3.0866,-3.1291,-3.1255,-3.1786,-3.2503,-3.2451,-3.2692,-3.3,-3.291,-3.2891,-3.2891,-3.2891,-3.3506,-3.4372,-3.5218,-3.5776,-3.6199,-3.6642,-3.6757,-3.6757,-3.6757,-3.7065,-3.7238,-3.6834,-3.7411,-3.7873,-3.745,-3.8373,-3.9238,-3.9238,-3.9238,-3.9123,-3.87,-3.8988,-3.895,-3.8104,-3.8719,-3.9104,-3.8681,-3.9392,-3.9892,-3.9892,-4.0258,-4.0489,-4.0489,-4.0489,-4.0489,-4.0489,-4.0489,-4.0489,-4.0489,-4.0931,-4.0931,-4.0489,-4.0489,-4.0489,-4.0489,-4.0489,-4.0489,0.0,0.0,0.0,0.0,0.0,-2.4888,0.0,0.0,0.0,-2.4986,0.0,0.0,0.0,0.0,0.0,0.0,0.0,0.0,0.0,0.0,0.0,0.0,0.0,0.0,0.0,-2.537,-2.5428,-2.5493,-2.5502,-2.5483,-2.5416,-2.5418,-2.5409,-2.5409,-2.5428,-2.5804,-2.6549,-2.5866,-2.5898,-2.666,-2.5937,-2.5586,-2.5615,-2.5586,-2.5561,-2.5529,-2.5453,-2.594,-2.6766,-2.6659,-2.7198,-2.8191,-2.9552,-3.018,-3.0314,-3.014,-3.0698,-3.1513,-3.134,-3.1782,-3.2429,-3.2429,-3.2429,-3.2449,-3.2622,-3.316,-3.3737,-3.391,-3.4468,-3.5045,-3.5218,-3.5257,-3.5295,-3.5468,-3.6007,-3.6295,-3.5641,-3.6565,-3.7315,-3.6622,-3.7046,-3.7623,-3.795,-3.8007,-3.795,-3.7777,-3.7892,-3.7873,-3.7565,-3.7796,-3.8007,-3.8007,-3.8777,-3.9354,-3.9508,-4.0123,-4.0489,-4.0489,-4.0489,-4.0489,-4.0489,-4.0489,-4.0489,-4.0489,-4.0489,-4.0489,-4.0489,-4.0457,-4.0457,-4.0489,-4.0489,-4.0489,0.0,0.0,0.0,0.0,-2.5012,0.0,0.0,0.0,-2.4986,-2.4998,0.0,0.0,0.0,0.0,0.0,0.0,0.0,0.0,0.0,0.0,0.0,0.0,0.0,0.0,0.0,-2.537,-2.5423,-2.5496,-2.5507,-2.5507,-2.5488,-2.5487,-2.5466,-2.5409,-2.5524,-2.5603,-2.5649,-2.5609,-2.5661,-2.5832,-2.5617,-2.5563,-2.5676,-2.5577,-2.5532,-2.5581,-2.5525,-2.595,-2.6706,-2.6687,-2.7168,-2.7939,-2.8124,-2.8673,-2.9267,-2.8486,-2.9198,-3.0436,-2.9679,-2.9967,-3.0667,-3.0667,-3.0667,-3.0833,-3.1602,-3.191,-3.2122,-3.2852,-3.3122,-3.3372,-3.4141,-3.4353,-3.4545,-3.5334,-3.557,-3.5622,-3.5526,-3.5661,-3.5757,-3.5661,-3.5718,-3.6257,-3.7738,-3.8007,-3.7738,-3.6969,-3.7507,-3.7469,-3.5988,-3.7084,-3.8007,-3.8007,-3.8777,-3.9585,-4.0296,-4.045,-4.0489,-4.0489,-4.0489,-4.0489,-4.0489,-4.0489,-4.0489,-4.0489,-4.0489,-4.0489,-4.0489,-4.025,-4.0286,-4.0489,-4.0489,-4.0489,0.0,0.0,0.0,0.0,0.0,0.0,-2.5126,0.0,-2.5173,0.0,0.0,0.0,0.0,0.0,0.0,0.0,-2.5082,0.0,0.0,0.0,0.0,0.0,0.0,0.0,0.0,0.0,0.0,0.0,-2.5627,-2.5607,-2.5568,-2.5558,-2.5543,-2.5515,-2.5563,-2.5599,-2.5627,-2.5642,-2.5664,-2.5703,-2.5637,-2.5639,-2.5646,-2.5578,-2.5543,-2.5534,-2.5479,-2.5636,-2.5937,-2.5899,-2.6091,-2.639,-2.639,-2.7236,-2.839,-2.8025,-2.8352,-2.8967,-2.9063,-2.9333,-2.9737,-3.0237,-3.0398,-3.0456,-3.0833,-3.1295,-3.1775,-3.2102,-3.2545,-3.2987,-3.3353,-3.3814,-3.4295,-3.4661,-3.4757,-3.4872,-3.5391,-3.5103,-3.4911,-3.5411,-3.5493,-3.5718,-3.643,-3.6546,-3.643,-3.6065,-3.6334,-3.6295,-3.5603,-3.6122,-3.6546,-3.6546,-3.7296,-3.793,-3.8277,-3.8757,-3.9258,-3.9758,-4.0239,-4.0489,-4.0489,-4.0489,-4.0489,-4.0489,-4.0489,-4.0489,-4.0489,-4.0389,-4.0389,-4.0489,-4.0339,-4.0356,-2.5543,0.0,0.0,0.0,0.0,0.0,0.0,0.0,0.0,0.0,0.0,0.0,0.0,0.0,0.0,0.0,0.0,0.0,0.0,0.0,0.0,0.0,0.0,0.0,0.0,0.0,0.0,-2.5683,-2.5703,-2.5684,-2.5625,-2.5625,-2.5625,-2.5601,-2.5614,-2.5646,-2.5673,-2.5673,-2.5673,-2.5673,-2.5652,-2.5625,-2.5567,-2.5553,-2.5524,-2.5466,-2.5409,-2.537,-2.537,-2.5322,-2.5303,-2.5303,-2.5303,-2.6082,-2.7198,-2.7198,-2.7486,-2.7948,-2.8294,-2.8563,-2.8871,-2.9506,-2.9717,-2.9717,-2.9717,-3.0314,-3.0987,-3.0987,-3.1583,-3.2275,-3.2506,-3.3045,-3.3564,-3.3795,-3.3833,-3.4026,-3.4661,-3.4295,-3.4026,-3.4661,-3.4795,-3.4795,-3.4795,-3.518,-3.5493,-3.5493,-3.5493,-3.5493,-3.5493,-3.5493,-3.557,-3.5815,-3.6353,-3.6796,-3.7046,-3.7642,-3.8373,-3.9238,-4.0046,-4.0489,-4.0489,-4.0489,-4.0489,-4.0489,-4.0489,-4.0489,-4.0489,-4.0441,-4.0441,-4.0489,-4.0304,-4.0302,0.0,0.0,0.0,-2.5409,0.0,0.0,0.0,0.0,-2.5322,0.0,0.0,0.0,0.0,0.0,0.0,0.0,0.0,0.0,0.0,0.0,0.0,0.0,0.0,0.0,0.0,0.0,0.0,-2.5683,-2.5703,-2.5703,-2.5703,-2.5703,-2.5664,-2.5605,-2.5663,-2.5678,-2.5592,-2.5611,-2.5611,-2.5592,-2.5544,-2.5513,-2.5498,-2.544,-2.5409,-2.5409,-2.5322,-2.5303,-2.5303,-2.5303,-2.5303,-2.5303,-2.5303,-2.5322,-2.538,-2.538,-2.6447,-2.7775,-2.6967,-2.7236,-2.7928,-2.7967,-2.7986,-2.7986,-2.7986,-2.8544,-2.9179,-2.9179,-2.9813,-3.0667,-3.1525,-3.1756,-3.1987,-3.2756,-3.2949,-3.2949,-3.2987,-3.2968,-3.2949,-3.2987,-3.2987,-3.2987,-3.2987,-3.4391,-3.5493,-3.5493,-3.5493,-3.5493,-3.5493,-3.5493,-3.5815,-3.6584,-3.668,-3.7046,-3.7892,-3.7988,-3.8373,-3.9238,-4.0046,-4.0489,-4.0489,-4.0489,-4.0489,-4.0489,-4.0489,-4.0489,-4.0489,-4.0232,-4.0251,-4.0489,-4.0489,-4.0489,0.0,0.0,-2.5493,-2.5473,0.0,0.0,0.0,0.0,0.0,0.0,0.0,0.0,0.0,0.0,0.0,0.0,0.0,0.0,0.0,0.0,0.0,0.0,0.0,0.0,0.0,0.0,0.0,-2.4883,-2.5371,-2.5703,-2.5703,-2.5703,-2.5684,-2.5664,-2.5684,-2.5662,-2.5611,-2.5601,-2.5582,-2.5524,-2.5511,-2.5476,-2.5429,-2.5408,-2.539,-2.5322,-2.5303,-2.5303,-2.5303,-2.5303,-2.5303,-2.5303,-2.5303,-2.5303,-2.5303,-2.5303,-2.6043,-2.7082,-2.7351,-2.764,-2.789,-2.789,-2.8255,-2.8679,-2.8679,-2.9294,-2.9967,-2.9967,-3.0179,-3.0456,-3.0756,-3.1275,-3.1775,-3.2045,-3.2102,-3.2256,-3.2795,-3.2487,-3.2256,-3.2795,-3.3372,-3.3757,-3.3757,-3.4737,-3.5315,-3.4737,-3.5141,-3.5493,-3.5493,-3.5493,-3.5603,-3.5892,-3.5911,-3.6026,-3.6334,-3.6834,-3.7507,-3.8373,-3.9238,-3.9931,-4.0469,-4.0489,-4.0489,-4.0489,-4.0489,-4.0489,-4.0489,-4.0406,-4.0406,-4.0489,-4.0489,-4.0489,-2.5567,-2.5567,0.0,-2.5548,-2.5493,0.0,-2.5408,0.0,0.0,0.0,0.0,0.0,0.0,0.0,0.0,0.0,0.0,0.0,0.0,-2.5582,0.0,0.0,0.0,0.0,0.0,0.0,-2.4807,-2.4863,-2.5098,-2.5371,0.0,0.0,-2.5703,-2.5703,-2.5703,-2.5685,-2.5641,-2.5597,-2.5543,-2.5505,-2.5447,-2.5409,-2.537,-2.537,-2.5341,-2.5303,-2.5303,-2.5303,-2.5303,-2.5303,-2.5303,-2.5303,-2.5303,-2.5303,-2.5303,-2.5303,-2.5649,-2.6217,-2.6774,-2.6986,-2.6986,-2.6986,-2.7332,-2.7755,-2.7755,-2.8563,-2.9583,-2.9871,-3.016,-3.0456,-3.0794,-3.1064,-3.1237,-3.1237,-3.1237,-3.1391,-3.191,-3.1602,-3.1391,-3.191,-3.2468,-3.2852,-3.2852,-3.3564,-3.4276,-3.4603,-3.5141,-3.5493,-3.5493,-3.5493,-3.5493,-3.5493,-3.5493,-3.5493,-3.5493,-3.6238,-3.7065,-3.795,-3.8815,-3.9662,-4.0469,-4.0489,-4.0642,-4.095,-4.0662,-4.0489,-4.0489,-4.0489,-4.0181,-3.9623,-4.0219,-4.0335]}]]